[[{"header":{"parameterUnit":"m.s-1","parameterCategory":1,"la1":30.6,"la2":29.2853,"lo1":-89.7004,"lo2":-87.6739,"dy":0.0162,"dx":0.0183,"nx":112,"ny":82,"refTime":"2023-10-20T12:00:00:Z","depth":0,"parameterNumber":2,"parameterNumberName":"U-component_of_WINDS"},"data":[0.0,0.0,0.0,0.0,0.0,0.0,0.0,0.0,0.0,0.0,0.0,0.0,0.0,0.0,0.0,0.0,0.0,0.0,0.0,0.0,0.0,0.0,0.0,0.0,0.0,0.0,0.0,0.0,0.0,0.0,0.0,0.0,0.0,0.0,0.0,0.0,0.0,0.0,0.0,0.0,0.0,0.0,0.0,0.0,0.0,0.0,0.0,0.0,0.0,0.0,0.0,0.0,0.0,0.0,0.0,0.0,0.0,0.0,0.0,0.0,0.0,0.0,0.0,0.0,0.0,0.0,0.0,0.0,0.0,0.0,0.0,0.0,0.0,0.0,0.0,0.0,0.0,0.0,0.0,0.0,0.0,0.0,0.0,0.0,0.0,0.0,0.0,0.0,0.0,0.0,0.6125,0.6313,0.6463,0.658,0.6688,0.66,0.6525,0.6525,0.0,0.0,0.0,0.0,0.0,0.0,0.0,0.0,0.0,0.0,0.0,0.0,0.0,0.0,0.0,0.0,0.0,0.0,0.0,0.0,0.0,0.0,0.0,0.0,0.0,0.0,0.0,0.0,0.0,0.0,0.0,0.0,0.0,0.0,0.0,0.0,0.0,0.0,0.0,0.0,0.0,0.0,0.0,0.0,0.0,0.0,0.0,0.0,0.0,0.0,0.0,0.0,0.0,0.0,0.0,0.0,0.0,0.0,0.0,0.0,0.0,0.0,0.0,0.0,0.0,0.0,0.0,0.0,0.0,0.0,0.0,0.0,0.0,0.0,0.0,0.0,0.0,0.0,0.0,0.0,0.0,0.0,0.0,0.0,0.0,0.0,0.0,0.0,0.0,0.0,0.0,0.0,0.0,0.0,0.0,0.0,0.0,0.0,0.0,0.0,0.0,0.0,0.0,0.0,0.632,0.6443,0.6593,0.6675,0.6702,0.6681,0.6668,0.6668,0.0,0.0,0.0,0.0,0.0,0.0,0.0,0.0,0.0,0.0,0.0,0.0,0.0,0.0,0.0,0.0,0.0,0.0,0.0,0.0,0.0,0.0,0.0,0.0,0.0,0.0,0.0,0.0,0.0,0.0,0.0,0.0,0.0,0.0,0.0,0.0,0.0,0.0,0.0,0.0,0.0,0.0,0.0,0.0,0.0,0.0,0.0,0.0,0.0,0.0,0.0,0.0,0.0,0.0,0.0,0.0,0.0,0.0,0.0,0.0,0.0,0.0,0.0,0.0,0.0,0.0,0.0,0.0,0.0,0.0,0.0,0.0,0.0,0.0,0.0,0.0,0.0,0.0,0.0,0.0,0.0,0.0,0.0,0.0,0.0,0.0,0.0,0.0,0.0,0.0,0.0,0.0,0.0,0.0,0.0,0.0,0.0,0.0,0.0,0.0,0.0,0.0,0.0,0.6348,0.6484,0.6695,0.6762,0.6837,0.6911,0.685,0.6803,0.6803,0.662,0.0,0.0,0.0,0.0,0.0,0.0,0.0,0.0,0.0,0.0,0.0,0.0,0.0,0.0,0.0,0.0,0.0,0.0,0.0,0.0,0.0,0.0,0.0,0.0,0.0,0.0,0.0,0.0,0.0,0.0,0.0,0.0,0.0,0.0,0.0,0.0,0.0,0.0,0.0,0.0,0.0,0.0,0.0,0.0,0.0,0.0,0.0,0.0,0.0,0.0,0.0,0.0,0.0,0.0,0.0,0.0,0.0,0.0,0.0,0.0,0.0,0.0,0.0,0.0,0.0,0.0,0.0,0.0,0.0,0.0,0.0,0.0,0.0,0.0,0.0,0.0,0.0,0.0,0.0,0.0,0.0,0.0,0.0,0.0,0.0,0.0,0.0,0.0,0.0,0.0,0.0,0.0,0.0,0.0,0.0,0.0,0.0,0.0,0.0,0.0,0.0,0.0,0.6357,0.6422,0.6856,0.6938,0.6977,0.7085,0.6997,0.6958,0.6958,0.685,0.0,0.0,0.0,0.0,0.0,0.0,0.0,0.0,0.0,0.0,0.0,0.0,0.0,0.0,0.0,0.0,0.0,0.0,0.0,0.0,0.0,0.0,0.0,0.0,0.0,0.0,0.0,0.0,0.0,0.0,0.0,0.0,0.0,0.0,0.0,0.0,0.0,0.0,0.0,0.0,0.0,0.0,0.0,0.0,0.0,0.0,0.0,0.0,0.0,0.0,0.0,0.0,0.0,0.0,0.0,0.0,0.0,0.0,0.0,0.0,0.0,0.0,0.0,0.0,0.0,0.0,0.0,0.0,0.0,0.0,0.0,0.0,0.0,0.0,0.0,0.0,0.0,0.0,0.0,0.0,0.0,0.0,0.0,0.0,0.0,0.0,0.0,0.0,0.0,0.0,0.0,0.0,0.0,0.0,0.0,0.0,0.0,0.0,0.0,0.0,0.0,0.0,0.5954,0.5922,0.6805,0.7004,0.7085,0.7098,0.7085,0.7085,0.7085,0.7071,0.0,0.0,0.0,0.0,0.0,0.0,0.0,0.0,0.0,0.0,0.0,0.0,0.0,0.0,0.0,0.0,0.0,0.0,0.0,0.0,0.0,0.0,0.0,0.0,0.0,0.0,0.0,0.0,0.0,0.0,0.0,0.0,0.0,0.0,0.0,0.0,0.0,0.0,0.0,0.0,0.0,0.0,0.0,0.0,0.0,0.0,0.0,0.0,0.0,0.0,0.0,0.0,0.0,0.0,0.0,0.0,0.0,0.0,0.0,0.0,0.0,0.0,0.0,0.0,0.0,0.0,0.0,0.0,0.0,0.0,0.0,0.0,0.0,0.0,0.0,0.0,0.0,0.0,0.0,0.0,0.0,0.0,0.0,0.0,0.0,0.0,0.0,0.0,0.0,0.0,0.0,0.0,0.0,0.0,0.0,0.0,0.0,0.0,0.0,0.0,0.0,0.0,0.5602,0.5696,0.6231,0.6886,0.7285,0.7285,0.7285,0.7244,0.7098,0.0,0.0,0.0,0.0,0.0,0.0,0.0,0.0,0.0,0.0,0.0,0.0,0.0,0.0,0.0,0.0,0.0,0.0,0.0,0.0,0.0,0.0,0.0,0.0,0.0,0.0,0.0,0.0,0.0,0.0,0.0,0.0,0.0,0.0,0.0,0.0,0.0,0.0,0.0,0.0,0.0,0.0,0.0,0.0,0.0,0.0,0.0,0.0,0.0,0.0,0.0,0.0,0.0,0.0,0.0,0.0,0.0,0.0,0.0,0.0,0.0,0.0,0.0,0.0,0.0,0.0,0.0,0.0,0.0,0.0,0.0,0.0,0.0,0.0,0.0,0.0,0.0,0.0,0.0,0.0,0.0,0.0,0.0,0.0,0.0,0.0,0.0,0.0,0.0,0.0,0.0,0.0,0.0,0.0,0.0,0.0,0.0,0.0,0.0,0.0,0.0,0.0,0.489,0.4768,0.4855,0.5342,0.6023,0.6582,0.6928,0.6913,0.6986,0.7173,0.0,0.0,0.0,0.0,0.0,0.0,0.0,0.0,0.0,0.0,0.0,0.0,0.0,0.0,0.0,0.0,0.0,0.0,0.0,0.0,0.0,0.0,0.0,0.0,0.0,0.0,0.0,0.0,0.0,0.0,0.0,0.0,0.0,0.0,0.0,0.0,0.0,0.0,0.0,0.0,0.0,0.0,0.0,0.0,0.0,0.0,0.0,0.0,0.0,0.0,0.0,0.0,0.0,0.0,0.0,0.0,0.0,0.0,0.0,0.0,0.0,0.0,0.0,0.0,0.0,0.0,0.0,0.0,0.0,0.0,0.0,0.0,0.0,0.0,0.0,0.0,0.0,0.0,0.0,0.0,0.0,0.0,0.0,0.0,0.0,0.0,0.0,0.0,0.0,0.0,0.0,0.0,0.0,0.0,0.0,0.0,0.0,0.0,0.0,0.0,0.0,0.0,0.4054,0.3383,0.3252,0.4189,0.4367,0.4821,0.5884,0.5853,0.6247,0.0,0.0,0.0,0.0,0.0,0.0,0.0,0.0,0.0,0.0,0.0,0.0,0.0,0.0,0.0,0.0,0.0,0.0,0.0,0.0,0.0,0.0,0.0,0.0,0.0,0.0,0.0,0.0,0.0,0.0,0.0,0.0,0.0,0.0,0.0,0.0,0.0,0.0,0.0,0.0,0.0,0.0,0.0,0.0,0.0,0.0,0.0,0.0,0.0,0.0,0.0,0.0,0.0,0.0,0.0,0.0,0.0,0.0,0.0,0.0,0.0,0.0,0.0,0.0,0.0,0.0,0.0,0.0,0.0,0.0,0.0,0.0,0.0,0.0,0.0,0.0,0.0,0.0,0.0,0.0,0.0,0.0,0.0,0.0,0.0,0.0,0.0,0.0,0.0,0.0,0.0,0.0,0.0,0.0,0.0,0.0,0.0,0.0,0.0,0.0,0.0,0.0,0.0,0.3093,0.2984,0.3063,0.3475,0.4133,0.4679,0.4993,0.4971,0.5322,0.6207,0.0,0.0,0.0,0.0,0.0,0.0,0.0,0.0,0.0,0.0,0.0,0.0,0.0,0.0,0.0,0.0,0.0,0.0,0.0,0.0,0.0,0.0,0.0,0.0,0.0,0.0,0.0,0.0,0.0,0.0,0.0,0.0,0.0,0.0,0.0,0.0,0.0,0.0,0.0,0.0,0.0,0.0,0.0,0.0,0.0,0.0,0.0,0.0,0.0,0.0,0.0,0.0,0.0,0.0,0.0,0.0,0.0,0.0,0.0,0.0,0.0,0.0,0.0,0.0,0.0,0.0,0.0,0.0,0.0,0.0,0.0,0.0,0.0,0.0,0.0,0.0,0.0,0.0,0.0,0.0,0.0,0.0,0.0,0.0,0.0,0.0,0.0,0.0,0.0,0.0,0.0,0.0,0.0,0.0,0.0,0.0,0.0,0.0,0.0,0.0,0.0,0.0,0.2261,0.2304,0.2437,0.2542,0.306,0.3567,0.4009,0.3981,0.4361,0.5275,0.0,0.0,0.0,0.0,0.0,0.0,0.0,0.0,0.0,0.0,0.0,0.0,0.0,0.0,0.0,0.0,0.0,0.0,0.0,0.0,0.0,0.0,0.0,0.0,0.0,0.0,0.0,0.0,0.0,0.0,0.0,0.0,0.0,0.0,0.0,0.0,0.0,0.0,0.0,0.0,0.0,0.0,0.0,0.0,0.0,0.0,0.0,0.0,0.0,0.0,0.0,0.0,0.0,0.0,0.0,0.0,0.0,0.0,0.0,0.0,0.0,0.0,0.0,0.0,0.0,0.0,0.0,0.0,0.0,0.0,0.0,0.0,0.0,0.0,0.0,0.0,0.0,0.0,0.0,0.0,0.0,0.0,0.0,0.0,0.0,0.0,0.0,0.0,0.0,0.0,0.0,0.0,0.0,0.0,0.0,0.0,0.0,0.0,0.0,0.0,0.0,0.0,0.1601,0.1562,0.1596,0.1601,0.16,0.1994,0.2972,0.2949,0.3335,0.4379,0.0,0.0,0.0,0.0,0.0,0.0,0.0,0.0,0.0,0.0,0.0,0.0,0.0,0.0,0.0,0.0,0.0,0.0,0.0,0.0,0.0,0.0,0.0,0.0,0.0,0.0,0.0,0.0,0.0,0.0,0.0,0.0,0.0,0.0,0.0,0.0,0.0,0.0,0.0,0.0,0.0,0.0,0.0,0.0,0.0,0.0,0.0,0.0,0.0,0.0,0.0,0.0,0.0,0.0,0.0,0.0,0.0,0.0,0.0,0.0,-0.1491,-0.0876,0.0,0.0,0.0,0.0,0.0,0.0,0.0,0.0,0.0,0.0,0.0,0.0,0.0,0.0,0.0,0.0,0.0,0.0,0.0,0.0,0.0,0.0,0.0,0.0,0.0,0.0,0.0,0.0,0.0,0.0,0.0,0.0,0.0,0.0,0.0,0.0,0.0,0.0,0.0,0.0,0.1593,0.1588,0.1605,0.1605,0.1588,0.1693,0.1918,0.1912,0.2317,0.3283,0.3534,0.0,0.0,0.0,0.0,0.0,0.0,0.0,0.0,0.0,0.0,0.0,0.0,0.0,0.0,0.0,0.0,0.0,0.0,0.0,0.0,0.0,0.0,0.0,0.0,0.0,0.0,0.0,0.0,0.0,0.0,0.0,0.0,0.0,0.0,0.0,0.0,0.0,0.0,0.0,0.0,0.0,0.0,0.0,0.0,0.0,0.0,0.0,0.0,0.0,0.0,0.0,0.0,0.0,0.0,0.0,0.0,0.0,0.0,0.0,-0.2257,-0.164,0.0,0.0,0.0,0.0,0.0,0.0,0.0,0.0,0.0,0.0,0.0,0.0,0.0,0.0,0.0,0.0,0.0,0.0,0.0,0.0,0.0,0.0,0.0,0.0,0.0,0.0,0.0,0.0,0.0,0.0,0.0,0.0,0.0,0.0,0.0,0.0,0.0,0.0,0.0,0.0,0.1592,0.1609,0.1599,0.159,0.1592,0.1592,0.1592,0.1592,0.1811,0.2288,0.2805,0.0,0.0,0.0,0.0,0.0,0.0,0.0,0.0,0.0,0.0,0.0,0.0,0.0,0.0,0.0,0.0,0.0,0.0,0.0,0.0,0.0,0.0,0.0,0.0,0.0,0.0,0.0,0.0,0.0,0.0,0.0,0.0,0.0,0.0,0.0,0.0,0.0,0.0,0.0,0.0,0.0,0.0,0.0,0.0,0.0,0.0,0.0,0.0,0.0,0.0,0.0,0.0,0.0,-0.5201,-0.5282,-0.5282,-0.5236,-0.5077,-0.4786,-0.3059,-0.2567,-0.2933,-0.2329,0.0,0.0,0.0,0.0,0.0,0.0,0.0,0.0,0.0,0.0,0.0,0.0,0.0,0.0,0.0,0.0,0.0,0.0,0.0,0.0,0.0,0.0,0.1049,0.1049,0.1204,0.1337,0.1337,0.0,0.0,0.0,0.0,0.0,0.0,0.0,0.0,0.0,0.0,0.0,0.1603,0.16,0.1592,0.1592,0.1592,0.1592,0.1592,0.1592,0.1592,0.1592,0.2421,0.2997,0.0,0.0,0.0,0.0,0.0,0.0,0.0,0.0,0.0,0.0,0.0,0.0,0.0,0.0,0.0,0.0,0.0,0.0,0.0,0.0,0.0,0.0,0.0,0.0,0.0,0.0,0.0,0.0,0.0,0.0,0.0,0.0,-0.4708,-0.4708,0.0,0.0,0.0,0.0,0.0,0.0,0.0,0.0,0.0,0.0,0.0,0.0,0.0,-0.5282,-0.5282,-0.5547,-0.5753,-0.5927,-0.5945,-0.598,-0.5955,-0.5728,-0.5605,-0.5551,-0.5274,0.0,-0.4073,-0.3985,0.0,0.0,0.0,0.0,0.0,0.0,0.0,0.0,0.0,0.0,0.0,0.0,0.0,0.0,0.0,0.0,0.0,0.0,0.0,0.0,0.0,0.0,0.0091,0.0091,0.0788,0.1479,0.1479,0.1439,0.1409,0.1457,0.1487,0.1486,0.0,0.0,0.0,0.0,0.0,0.0,0.1607,0.1589,0.1592,0.1592,0.1592,0.1592,0.1592,0.1592,0.1592,0.1592,0.1743,0.2221,0.3173,0.3349,0.0,0.0,0.0,0.0,0.0,0.0,0.0,0.0,0.0,0.0,0.0,0.0,0.0,0.0,0.0,0.0,0.0,0.0,0.0,0.0,0.0,0.0,0.0,0.0,0.0,0.0,0.0,0.0,0.0,-0.4972,-0.5018,-0.5084,-0.5145,-0.5195,0.0,0.0,0.0,0.0,0.0,0.0,0.0,0.0,0.0,-0.5955,-0.596,-0.596,-0.596,-0.6149,-0.6283,-0.6388,-0.646,-0.6489,-0.6489,-0.636,-0.6231,-0.6096,-0.6096,-0.5784,-0.5237,-0.498,-0.4834,-0.4782,0.0,0.0,0.0,0.0,-0.4097,-0.3708,-0.4266,-0.3846,-0.3054,-0.3026,0.0,0.0,0.0,0.0,0.0,0.0,0.0,-0.1162,-0.1668,-0.1424,-0.1078,-0.1162,-0.0806,-0.0468,-0.0423,0.0099,0.0751,0.1371,0.1494,0.1507,0.1549,0.1551,0.0,0.0,0.0,0.1602,0.159,0.1632,0.1668,0.1668,0.1668,0.1668,0.1668,0.1626,0.1592,0.1592,0.1592,0.1817,0.2269,0.2871,0.3425,0.0,0.0,0.0,0.0,0.0,0.0,0.0,0.0,0.0,0.0,0.0,0.0,0.0,0.0,0.0,0.0,0.0,0.0,0.0,0.0,0.0,0.0,0.0,0.0,0.0,0.0,0.0,0.0,-0.5723,-0.5997,-0.5906,-0.5985,-0.6166,0.0,0.0,0.0,0.0,0.0,0.0,-0.669,-0.6678,-0.6636,-0.6498,-0.6504,-0.6504,-0.6504,-0.6623,-0.6714,-0.6714,-0.6866,-0.6937,-0.6937,-0.6937,-0.6829,-0.6635,-0.6604,-0.6487,-0.6258,-0.5705,-0.5448,-0.5379,-0.5108,-0.4995,-0.4952,-0.4951,-0.4465,-0.3943,-0.4708,-0.446,-0.3842,-0.3822,-0.3802,-0.3641,-0.2943,0.0,0.0,0.0,0.0,-0.2238,-0.2568,-0.2429,-0.2262,-0.2367,-0.2171,-0.1973,-0.1921,-0.0965,0.0129,0.0941,0.1351,0.1579,0.1627,0.1631,0.0,0.1636,0.1613,0.1613,0.1613,0.1659,0.1699,0.1699,0.1699,0.1699,0.1699,0.1652,0.1613,0.1613,0.1613,0.1613,0.1613,0.2394,0.2817,0.2817,0.0,0.0,0.0,0.0,0.0,0.0,0.0,0.0,0.0,0.0,0.0,0.0,0.0,0.0,0.0,0.0,0.0,0.0,0.0,0.0,0.0,0.0,0.0,0.0,0.0,0.0,0.0,0.0,0.0,-0.7286,-0.7442,0.0,0.0,0.0,0.0,-0.9698,-0.9796,-0.9335,-0.8341,-0.8272,-0.7833,-0.6806,-0.6785,-0.6785,-0.6785,-0.6904,-0.697,-0.697,-0.717,-0.7278,-0.7278,-0.7278,-0.7278,-0.7244,-0.7187,-0.7166,-0.7089,-0.6294,-0.5963,-0.5948,-0.5874,-0.5867,-0.5913,-0.5864,-0.5836,-0.5869,-0.5922,-0.5896,-0.5855,-0.5777,-0.5678,-0.5572,-0.5518,-0.4648,0.0,0.0,-0.4337,-0.3654,-0.4661,-0.4186,-0.3419,-0.3422,-0.2651,-0.1909,-0.1911,-0.0956,-0.008,-0.0026,0.09,0.1696,0.1697,0.0,0.1697,0.17,0.17,0.17,0.17,0.1701,0.1703,0.1703,0.1703,0.1703,0.1703,0.17,0.17,0.17,0.17,0.17,0.17,0.1753,0.1763,0.1763,0.1759,0.0,0.0,0.0,0.0,0.0,0.0,0.0,0.0,0.0,0.0,0.0,0.0,0.0,0.0,0.0,0.0,0.0,0.0,0.0,0.0,0.0,0.0,0.0,0.0,0.0,0.0,0.0,0.0,-0.8799,-0.9059,0.0,-0.9805,-0.966,-0.9727,-1.0153,-1.0179,-1.0056,-0.9755,-0.988,-0.9426,-0.8314,-0.841,-0.8074,-0.7263,-0.7307,-0.7328,-0.7328,-0.7387,-0.7424,-0.7424,-0.7424,-0.7424,-0.7424,-0.741,-0.7388,-0.7383,-0.7069,-0.674,-0.6373,-0.6124,-0.6011,-0.6004,-0.5965,-0.5975,-0.6008,-0.6008,-0.6008,-0.6004,-0.5965,-0.5927,-0.5893,-0.5893,-0.5578,-0.5291,-0.5689,-0.5453,-0.52,-0.5638,-0.5328,-0.4936,-0.4963,-0.4563,-0.4152,-0.4152,-0.3326,-0.2555,-0.239,-0.0162,0.1704,0.1704,0.1704,0.1704,0.1704,0.1704,0.1704,0.1704,0.1749,0.1761,0.1761,0.1761,0.1761,0.1761,0.1715,0.1704,0.1704,0.1704,0.1704,0.1704,0.1695,0.1689,0.1689,0.1678,0.1673,0.0,0.0,0.0,0.0,0.0,0.0,0.0,0.0,0.0,0.0,0.0,0.0,0.0,0.0,0.0,0.0,0.0,0.0,0.0,0.0,0.0,0.0,0.0,0.0,0.0,-0.9824,-1.0833,-1.0549,-1.0761,-1.1111,-1.1561,-1.1335,-1.1354,-1.1818,-1.1854,-1.1711,-1.1401,-1.1504,-1.1047,-0.9916,-0.9996,-0.9679,-0.8816,-0.8816,-0.8816,-0.8816,-0.8868,-0.8887,-0.8887,-0.8887,-0.8623,-0.8219,-0.8638,-0.8329,-0.7548,-0.795,-0.7658,-0.6882,-0.6659,-0.6536,-0.6493,-0.6453,-0.6438,-0.6433,-0.6425,-0.641,-0.641,-0.641,-0.641,-0.641,-0.641,-0.6329,-0.6249,-0.6249,-0.6168,-0.6106,-0.6151,-0.6028,-0.5909,-0.5945,-0.5824,-0.5717,-0.5717,-0.4899,-0.4111,-0.3943,-0.1593,0.0406,0.0514,0.0514,0.065,0.1057,0.1057,0.1138,0.1517,0.1533,0.1544,0.1626,0.1626,0.1683,0.1793,0.1746,0.1735,0.1735,0.1735,0.1735,0.1735,0.1725,0.1746,0.1746,0.171,0.1704,0.1704,0.0,0.0,0.0,0.0,0.0,0.0,0.0,0.0,0.0,0.0,0.0,0.0,0.0,0.0,0.0,0.0,0.0,0.0,0.0,0.0,0.0,0.0,0.0,-1.0592,-1.2445,-1.3624,-1.2515,-1.251,-1.3126,-1.4493,-1.3572,-1.3432,-1.4813,-1.4908,-1.4388,-1.3212,-1.3165,-1.265,-1.1512,-1.1491,-1.1471,-1.1413,-1.1413,-1.1413,-1.1421,-1.1557,-1.161,-1.161,-1.161,-1.0931,-0.9753,-1.0914,-0.9997,-0.7745,-0.8981,-0.8748,-0.7623,-0.7553,-0.7489,-0.7473,-0.7354,-0.7311,-0.7294,-0.7237,-0.7221,-0.7221,-0.7221,-0.7221,-0.7221,-0.7221,-0.6976,-0.6725,-0.6725,-0.653,-0.634,-0.634,-0.634,-0.6307,-0.6307,-0.6307,-0.6302,-0.6302,-0.5397,-0.4554,-0.4554,-0.3352,-0.2235,-0.1875,-0.1819,-0.1428,-0.0252,-0.0308,0.0,0.1037,0.0954,0.0898,0.1206,0.1235,0.1376,0.1742,0.177,0.177,0.177,0.177,0.177,0.177,0.177,0.1781,0.1781,0.1698,0.1683,0.1683,0.0,0.0,0.0,0.0,0.0,0.0,0.0,0.0,0.0,0.0,0.0,0.0,0.0,0.0,0.0,0.0,0.0,0.0,0.0,0.0,0.0,-1.4296,-1.403,-1.2193,-1.3413,-1.4458,-1.4352,-1.4477,-1.4746,-1.5149,-1.4891,-1.4731,-1.488,-1.4908,-1.4767,-1.4427,-1.4526,-1.414,-1.3101,-1.3218,-1.2902,-1.2133,-1.2133,-1.2133,-1.2133,-1.2151,-1.2176,-1.2176,-1.2176,-1.199,-1.165,-1.1973,-1.1733,-1.1079,-1.1263,-1.1156,-1.0604,-0.8384,-0.7489,-0.7484,-0.7452,-0.7441,-0.7435,-0.7432,-0.7421,-0.7421,-0.7421,-0.7421,-0.7421,-0.7421,-0.7363,-0.7277,-0.7277,-0.7219,-0.7161,-0.7161,-0.6956,-0.6729,-0.6729,-0.6523,-0.6302,-0.6302,-0.6186,-0.6042,-0.5847,-0.5624,-0.4836,-0.2796,-0.2461,-0.2349,-0.2014,-0.2014,-0.1958,-0.165,-0.1753,-0.1453,-0.0399,-0.0375,0.0,0.1046,0.1134,0.1134,0.1134,0.1134,0.1134,0.1134,0.1158,0.1155,0.1155,0.1121,0.1118,0.0,0.0,0.0,0.0,0.0,0.0,0.0,0.0,0.0,0.0,0.0,0.0,0.0,0.0,0.0,0.0,0.0,0.0,0.0,0.0,0.0,0.0,-1.5255,-1.5173,-1.441,-1.4938,-1.5436,-1.5573,-1.5707,-1.5855,-1.6052,-1.5971,-1.5905,-1.5902,-1.5924,-1.5924,-1.5924,-1.6039,-1.5812,-1.5236,-1.5176,-1.4867,-1.4248,-1.4101,-1.4038,-1.4038,-1.4038,-1.4038,-1.4038,-1.4038,-1.3757,-1.3277,-1.3819,-1.3403,-1.2421,-1.2883,-1.2747,-1.2046,0.0,0.0,0.0,0.0,-0.8348,-0.8212,-0.7694,-0.7489,-0.7489,-0.7489,-0.7489,-0.7489,-0.7489,-0.7489,-0.7489,-0.7489,-0.7489,-0.7489,-0.7489,-0.7325,-0.7156,-0.7156,-0.6966,-0.6801,-0.6801,-0.6915,-0.7,-0.6829,-0.6943,0.0,-0.4992,-0.443,-0.4027,-0.3522,-0.355,-0.3438,-0.2936,-0.3045,-0.2836,-0.1929,-0.1889,-0.1584,-0.0691,-0.0605,0.0,0.0,0.0,-0.07,-0.0734,-0.0734,0.0,0.0,0.0,-0.0734,-0.0734,-0.0734,0.0,0.0,0.0695,0.1231,0.0,0.0,0.0,0.0,0.0,0.0,0.0,0.0,0.0,0.0,0.0,0.0,0.0,0.0,0.0,0.0,-1.6006,-1.6199,-1.6718,-1.661,-1.6478,-1.6445,-1.6464,-1.6648,-1.7067,-1.6866,-1.6871,-1.7268,-1.7302,-1.7302,-1.7302,-1.7302,0.0,0.0,0.0,-1.6914,-1.6937,-1.6637,-1.6481,-1.6481,-1.6481,-1.6481,-1.6481,-1.6481,-1.5878,-1.4866,-1.6013,-1.5148,-1.3055,-1.4242,-1.3963,-1.2773,-1.2067,-1.1792,-1.1625,-1.0374,-0.9837,-0.953,-0.8248,0.0,0.0,-0.7586,-0.7557,-0.7557,-0.7557,-0.7557,-0.7557,-0.7557,-0.7557,-0.7557,-0.7557,-0.7546,-0.7511,-0.7511,-0.75,-0.7489,-0.7489,-0.7489,-0.7489,-0.7489,-0.7489,-0.7489,-0.7489,-0.6917,-0.6079,-0.5002,-0.503,-0.4806,-0.374,-0.3858,-0.3892,-0.3439,-0.3418,0.0,-0.2854,-0.2828,-0.2873,-0.3003,-0.3005,-0.305,-0.3085,-0.3088,-0.3085,-0.3079,-0.3085,-0.3088,-0.3088,-0.3092,-0.3094,-0.3036,-0.0677,0.0413,0.0,0.0,0.0,0.0,0.0,0.0,0.0,0.0,0.0,0.0,0.0,0.0,0.0,0.0,0.0,-1.6453,-1.6718,-1.6972,-1.7286,-1.7496,-1.7515,-1.7288,-1.7456,-1.7589,-1.7638,-1.7612,-1.7495,-1.7291,-1.7302,-1.7302,-1.7302,-1.7302,-1.7394,-1.7631,-1.7568,-1.7596,-1.7757,-1.7705,-1.7673,-1.7673,-1.7673,0.0,-1.7673,-1.7673,-1.7534,-1.731,-1.7577,-1.7214,-1.653,-1.6625,-1.6212,-1.5328,-1.3136,-1.226,-1.222,-1.197,-1.1726,-1.1401,-1.0125,-0.9525,-0.9179,-0.8164,-0.7832,-0.7832,-0.7832,-0.7832,0.0,-0.7832,-0.7832,-0.7832,-0.7832,-0.7736,-0.7665,-0.7665,-0.7589,-0.7489,-0.7489,-0.7489,-0.7489,-0.7489,-0.7489,-0.7489,-0.7489,-0.7364,-0.7188,-0.6951,-0.6951,-0.6922,-0.6691,-0.6798,-0.6464,-0.5308,-0.5309,-0.4895,-0.3776,-0.3655,-0.3691,-0.3701,-0.3704,-0.3686,-0.3649,-0.3649,-0.3599,-0.3496,-0.3596,-0.3649,-0.3649,-0.3696,-0.3719,-0.3717,-0.2998,-0.2511,0.0,0.0,0.0,0.0,0.0,0.0,0.0,0.0,0.0,0.0,0.0,-1.562,-1.6045,0.0,-1.6477,-1.7008,-1.7201,-1.743,-1.7829,-1.8149,-1.8209,-1.7925,-1.801,-1.813,-1.8239,-1.8263,-1.8229,-1.8203,-1.8215,-1.8215,-1.8215,-1.8215,-1.8274,-1.8403,-1.8244,-1.8207,-1.8302,-1.8098,-1.8001,-1.8001,-1.8001,-1.8001,-1.8001,-1.8001,-1.8001,-1.8001,-1.8001,-1.7905,-1.7744,-1.7641,-1.7422,-1.7036,-1.5705,-1.4848,-1.4257,-1.3631,-1.335,-1.3052,-1.1736,-1.1215,-1.1016,-1.0366,-1.0149,-1.0149,-1.0149,-1.0149,-1.0001,-0.9287,-0.91,-0.8932,-0.8192,-0.7952,-0.7892,-0.7832,-0.7741,-0.7693,-0.7693,-0.7693,-0.7693,-0.7693,-0.7693,-0.7693,-0.7693,-0.7693,-0.7655,-0.7506,-0.7489,-0.7489,-0.7489,-0.7573,-0.734,-0.6685,-0.672,-0.654,-0.5869,-0.5921,-0.6001,-0.6001,-0.6046,-0.605,-0.6005,-0.6001,-0.598,-0.5908,-0.598,-0.6001,-0.6001,-0.6046,-0.6039,-0.6035,-0.5914,-0.5012,0.0,0.0,0.0,0.0,0.0,0.0,0.0,-1.5221,-1.533,-1.5608,-1.5861,-1.6139,-1.648,-1.6694,-1.7032,-1.7581,-1.7714,-1.7865,-1.8312,-1.8601,-1.8717,-1.8469,-1.8444,-1.8529,-1.8778,-1.879,-1.8874,-1.9092,-1.9104,-1.9104,-1.9104,-1.9104,-1.9104,-1.9104,-1.886,-1.8699,-1.8699,-1.8366,-1.8194,-1.8194,-1.8194,-1.8194,-1.8194,-1.8194,-1.8194,-1.8194,-1.813,-1.8141,-1.8098,-1.8033,-1.8001,-1.8001,-1.8001,-1.7444,-1.6504,-1.5491,-1.5074,-1.4856,-1.3519,-1.3021,-1.2932,-1.2618,-1.2515,-1.2492,-1.2429,-1.2398,-1.2177,-1.1034,-1.0496,-1.0032,-0.8829,-0.8335,-0.8094,-0.7995,-0.7973,-0.7973,-0.7973,-0.7973,-0.7973,-0.7973,-0.7973,-0.7973,-0.7973,-0.7973,-0.7867,-0.7655,-0.7622,-0.7633,-0.7625,-0.763,-0.763,-0.763,-0.7747,-0.7807,-0.7807,-0.7981,-0.8121,-0.8121,-0.8182,-0.8193,-0.8166,-0.8166,-0.8155,-0.8134,-0.8155,-0.8166,-0.8166,-0.8193,-0.8204,-0.8204,-0.8204,-0.6996,-1.411,-1.4504,-1.483,-1.5015,-1.5065,-1.5137,0.0,-1.5632,-1.5885,-1.6163,-1.6429,-1.6754,-1.7261,-1.7399,-1.7605,-1.8118,-1.8396,-1.8596,-1.8669,-1.8899,-1.9056,-1.9019,-1.9019,-1.9032,-1.9056,-1.9068,-1.908,-1.9104,-1.9104,-1.9104,-1.9104,-1.9104,-1.9104,-1.9104,-1.9072,-1.904,-1.904,-1.9008,-1.8976,-1.8976,-1.8976,-1.8976,-1.8976,-1.8976,-1.8976,-1.8944,-1.8667,-1.8539,-1.8507,-1.8141,-1.8001,-1.8001,-1.8001,-1.7935,-1.7793,-1.7665,-1.7498,-1.715,-1.5865,-1.5249,-1.4841,-1.3394,-1.2915,-1.2852,-1.2515,-1.2398,-1.2366,-1.2209,-1.1262,-1.0274,-1.0102,-0.9126,-0.8177,-0.8166,-0.8161,-0.8161,-0.8161,-0.8161,-0.8161,-0.8161,-0.8161,-0.8161,-0.8161,-0.8161,-0.8149,-0.8044,-0.8023,-0.8061,-0.8107,-0.8123,-0.8123,-0.8123,-0.8134,-0.8145,-0.8145,-0.8166,-0.8183,-0.8183,-0.8193,-0.8187,-0.811,-0.8104,-0.8055,-0.7946,-0.805,-0.8104,-0.8104,-0.8182,-0.8204,-0.8204,-0.8204,-0.8034,-1.4835,-1.5003,-1.5149,-1.5294,-1.5451,-1.5632,-1.5897,-1.6163,-1.6392,-1.6513,-1.6863,-1.7225,-1.7472,-1.7774,-1.8082,-1.8456,-1.8645,-1.8734,-1.8923,-1.9044,-1.9104,-1.9104,-1.9104,-1.9104,-1.9104,-1.9104,-1.9104,-1.9104,-1.9104,-1.9104,-1.9104,-1.9104,-1.9177,-1.9334,-1.9334,-1.9418,-1.9543,-1.9576,-1.9576,-1.9576,-1.9576,-1.9576,-1.9576,-1.9576,-1.9576,-1.9543,-1.9424,-1.9358,-1.9358,-1.9182,-1.9116,-1.9116,-1.9116,-1.9116,-1.9015,-1.8277,-1.7944,-1.7789,-1.7267,-1.6998,-1.6795,-1.6138,-1.5915,-1.5884,-1.5692,-1.5661,-1.5501,-1.467,-1.402,-1.3343,-1.2498,-1.1836,-1.1367,-1.1309,-1.1286,-1.1073,-1.0256,-1.0066,-0.9812,-0.8997,-0.8683,-0.8556,-0.8556,-0.8364,-0.821,-0.8263,-0.8204,-0.8176,-0.8193,-0.8204,-0.8231,-0.8302,-0.8307,-0.8334,-0.8437,-0.8437,-0.8437,-0.8437,-0.8437,-0.8416,-0.8399,-0.8399,-0.8372,-0.8323,-0.8372,-0.8399,-0.8399,-0.8416,-0.8437,-0.8437,-0.8437,-0.8437,-1.5161,-1.533,-1.5487,-1.5668,-1.591,-1.6163,-1.6384,-1.661,-1.6803,-1.6803,-1.7165,-1.7556,-1.7672,-1.8022,-1.8408,-1.8734,-1.8826,-1.8886,-1.908,-1.9104,-1.9104,-1.9104,-1.9104,-1.9104,-1.9104,-1.9104,-1.9104,-1.9104,-1.9104,-1.914,-1.9213,-1.9213,-1.9334,-1.96,-1.9612,-1.9709,-1.9881,-1.9881,-1.9881,-1.9881,-1.9881,-1.9881,-1.9881,-1.9881,-1.9881,-1.9881,-1.9881,-1.9881,-1.9881,-1.9881,-1.9881,-1.9881,-1.9881,-1.9881,-1.9799,-1.8846,-1.8511,-1.8511,-1.8511,-1.8511,-1.8511,-1.8413,-1.8323,-1.8277,-1.8136,-1.8058,-1.7808,-1.6753,-1.6203,-1.5644,-1.4566,-1.4006,-1.3713,-1.3612,-1.3576,-1.3291,-1.2282,-1.2059,-1.1772,-1.0724,-1.0346,-1.0186,-1.0186,-0.9607,-0.9192,-0.9294,-0.8909,-0.8528,-0.8334,-0.8302,-0.8334,-0.8454,-0.8465,-0.8497,-0.8579,-0.859,-0.859,-0.859,-0.859,-0.859,-0.859,-0.859,-0.859,-0.859,-0.859,-0.859,-0.859,-0.859,-0.859,-0.859,-0.859,-0.859,-1.5487,-1.5873,-1.6272,-1.626,-1.6465,-1.6682,-1.6682,-1.6887,-1.708,-1.708,-1.7327,-1.7677,-1.8167,-1.8287,-1.8469,-1.9007,-1.9092,-1.9092,-1.9104,-1.9104,-1.9104,-1.9104,-1.9104,-1.9104,-1.9104,-1.9104,-1.9104,-1.9104,-1.9104,-1.9213,-1.9467,-1.9491,-1.9612,-1.9869,-1.9869,-1.9881,-1.9881,-1.9881,-1.9881,-1.9881,-1.9881,-1.9881,-1.9881,-1.9881,-1.9881,-1.9881,-1.9881,-1.9881,-1.9881,-1.9881,-1.9881,-1.9881,-1.9881,-1.9881,-1.9881,-1.9869,-1.9823,-1.9823,-1.9823,-1.9823,-1.979,-1.9444,-1.918,-1.8902,-1.8497,-1.8228,-1.8001,-1.7937,-1.6958,-1.5879,-1.5836,-1.4809,-1.3781,-1.3781,-1.3781,-1.3781,-1.3748,-1.3748,-1.3715,-1.3683,-1.365,-1.365,-1.365,-1.2505,-1.1593,-1.16,-1.0498,-0.9383,-0.8679,-0.8579,-0.8579,-0.8584,-0.8584,-0.8584,-0.859,-0.859,-0.859,-0.859,-0.859,-0.859,-0.859,-0.859,-0.859,-0.859,-0.859,-0.859,-0.859,-0.859,-0.859,-0.859,-0.859,-0.859,-1.597,-1.6151,-1.6332,-1.6513,-1.6754,-1.696,-1.696,-1.7165,-1.7387,-1.7387,-1.7593,-1.7822,-1.8016,-1.8342,-1.8613,-1.8826,-1.8995,-1.9104,-1.9104,-1.9104,-1.9104,-1.9104,-1.9104,-1.9104,-1.9104,-1.9104,-1.9104,-1.9104,-1.9261,-1.9406,-1.9491,-1.9672,-1.9902,-2.0168,-2.018,-2.0265,-2.0434,-2.0434,-2.0434,-2.0434,-2.0434,-2.0434,-2.0434,-2.0434,-2.0434,-2.0434,-2.0434,-2.0434,-2.0434,-2.0434,-2.0434,-2.0434,-2.0434,-2.0434,-2.0434,-2.0434,-2.0434,-2.0386,-2.0002,-1.9881,-1.9881,-1.9781,-1.9654,-1.9582,-1.9449,-1.9345,-1.9241,-1.9241,-1.8911,-1.8536,-1.8536,-1.8194,-1.7851,-1.7851,-1.7851,-1.7586,-1.6645,-1.6445,-1.6178,-1.5233,-1.4898,-1.473,-1.473,-1.4117,-1.3275,-1.2304,-1.0766,-0.9594,-0.9361,-0.9328,-0.9328,-0.9328,-0.9328,-0.9328,-0.9328,-0.9089,-0.8917,-0.8917,-0.8723,-0.859,-0.859,-0.859,-0.859,-0.859,-0.859,-0.859,-0.859,-0.859,-0.859,-0.859,-0.8705,-0.8743,-1.6263,-1.6456,-1.6638,-1.6791,-1.7032,-1.7237,-1.7237,-1.7387,-1.7508,-1.7508,-1.7641,-1.7798,-1.7883,-1.8185,-1.8487,-1.8681,-1.8819,-1.8995,-1.9092,-1.9104,-1.9104,-1.9104,-1.9104,-1.9104,-1.9104,-1.9104,-1.9152,-1.9237,-1.9406,-1.9588,-1.9781,-1.9963,-2.018,-2.0446,-2.0446,-2.0531,-2.07,-2.07,-2.07,-2.07,-2.07,-2.07,-2.07,-2.07,-2.07,-2.07,-2.07,-2.07,-2.07,-2.07,-2.07,-2.07,-2.07,-2.07,-2.07,-2.07,-2.07,-2.0652,-2.0313,-2.0204,-2.0204,-2.0204,-2.0132,-2.0026,-2.0026,-1.9999,-1.9881,-1.9881,-1.9881,-1.9881,-1.9881,-1.9881,-1.9881,-1.9881,-1.9881,-1.9647,-1.8754,-1.8552,-1.8284,-1.7387,-1.7016,-1.6881,-1.6881,-1.6263,-1.5236,-1.3806,-1.2601,-1.137,-1.0004,-0.9835,-0.9835,-0.9835,-0.9835,-0.9835,-0.9835,-0.9593,-0.9458,-0.9458,-0.9255,-0.912,-0.912,-0.912,-0.912,-0.912,-0.8985,-0.8917,-0.8917,-0.8788,-0.872,-0.872,-0.8796,-0.8834,-1.6335,-1.6694,-1.7092,-1.7105,-1.7298,-1.7508,-1.7508,-1.7508,-1.7508,-1.7467,-1.7508,-1.7581,-1.7822,-1.7883,-1.8076,-1.8584,-1.8662,-1.8802,-1.9056,-1.9092,-1.9104,-1.9104,-1.9104,-1.9104,-1.9104,-1.9116,-1.9237,-1.9503,-1.9527,-1.9757,-2.0277,-2.0325,-2.0446,-2.07,-2.07,-2.07,-2.07,-2.07,-2.07,-2.07,-2.07,-2.07,-2.07,-2.07,-2.07,-2.07,-2.07,-2.07,-2.07,-2.07,-2.07,-2.07,-2.07,-2.07,-2.07,-2.07,-2.07,-2.07,-2.07,-2.07,-2.07,-2.07,-2.0531,-2.0325,-2.0325,-2.0122,-1.9929,-1.9929,-1.9929,-1.9929,-1.9929,-1.9929,-1.9929,-1.9929,-1.9929,-1.9929,-1.9929,-1.9929,-1.9929,-1.9929,-1.9929,-1.9929,-1.9929,-1.8766,-1.7396,-1.6031,-1.5759,-1.4421,-1.0847,-1.0335,-1.0266,-1.0266,-1.0197,-1.0162,-1.0162,-1.0127,-1.0127,-1.0127,-1.0093,-1.0093,-1.0093,-1.0093,-1.0093,-1.0093,-0.9712,-0.9538,-0.9538,-0.9122,-0.8914,-0.8919,-0.8924,-0.8924,-1.6807,-1.7012,-1.7141,-1.7363,-1.746,-1.7508,-1.7508,-1.7508,-1.743,-1.7237,-1.7346,-1.7472,-1.7339,-1.7641,-1.7943,-1.8088,-1.8451,-1.871,-1.877,-1.8983,-1.9104,-1.9104,-1.9104,-1.9104,-1.9104,-1.9285,-1.9515,-1.9793,-1.9817,-1.9929,-2.0289,-2.0495,-2.064,-2.07,-2.07,-2.07,-2.07,-2.07,-2.07,-2.07,-2.07,-2.07,-2.07,-2.07,-2.07,-2.07,-2.07,-2.07,-2.07,-2.07,-2.07,-2.07,-2.07,-2.07,-2.07,-2.07,-2.07,-2.07,-2.07,-2.07,-2.07,-2.07,-2.0652,-2.0603,-2.0603,-2.0555,-2.0507,-2.0507,-2.0507,-2.0507,-2.0507,-2.0507,-2.0507,-2.0507,-2.0507,-2.0507,-2.0507,-2.0507,-2.0507,-2.0507,-2.0507,-2.0507,-2.0507,-1.9243,-1.8125,-1.7767,-1.6713,-1.5589,-1.4429,-1.3275,-1.2563,-1.2563,-1.1572,-1.0923,-1.0923,-1.0647,-1.0474,-1.0474,-1.0231,-1.0093,-1.0093,-1.0093,-1.0093,-1.0093,-0.9989,-0.9954,-0.9954,-0.9538,-0.933,-0.9336,-0.9152,-0.9054,-1.6984,-1.7177,-1.7298,-1.7443,-1.7508,-1.7484,-1.7334,-1.731,-1.7295,-1.713,-1.7118,-1.715,-1.7106,-1.7336,-1.7593,-1.7714,-1.8088,-1.8439,-1.8681,-1.8964,-1.9193,-1.9316,-1.9328,-1.9377,-1.9467,-1.9516,-1.966,-2.0059,-2.0096,-2.0204,-2.047,-2.0628,-2.07,-2.07,-2.07,-2.07,-2.07,-2.07,-2.07,-2.07,-2.07,-2.077,-2.0908,-2.077,-2.077,-2.0908,-2.077,-2.07,-2.07,-2.07,-2.07,-2.07,-2.07,-2.07,-2.07,-2.07,-2.07,-2.07,-2.07,-2.07,-2.07,-2.07,-2.07,-2.07,-2.07,-2.07,-2.07,-2.07,-2.07,-2.07,-2.07,-2.07,-2.07,-2.07,-2.07,-2.07,-2.07,-2.07,-2.07,-2.07,-2.07,-2.07,-2.07,-1.9994,-1.9401,-1.9401,-1.8681,-1.805,-1.7898,-1.5964,-1.4579,-1.4579,-1.385,-1.3362,-1.3362,-1.2532,-1.205,-1.205,-1.125,-1.0764,-1.0764,-1.0764,-1.0764,-1.0764,-1.0588,-1.0482,-1.0482,-1.013,-0.9947,-0.9918,-0.9782,-0.9638,-1.7068,-1.731,-1.7508,-1.7508,-1.7455,-1.7399,-1.7141,-1.7068,-1.7045,-1.7046,-1.6866,-1.6766,-1.6996,-1.7086,-1.7165,-1.7423,-1.7714,-1.8076,-1.8596,-1.8975,-1.9274,-1.9515,-1.9608,-1.9732,-1.9915,-1.9772,-1.9872,-2.0345,-2.044,-2.0561,-2.0688,-2.07,-2.07,-2.07,-2.07,-2.07,-2.07,-2.07,-2.0735,-2.077,-2.077,-2.0943,-2.1276,-2.0908,-2.0908,-2.1173,-2.0839,-2.0735,-2.077,-2.077,-2.077,-2.077,-2.077,-2.077,-2.077,-2.077,-2.0804,-2.0839,-2.077,-2.077,-2.077,-2.07,-2.07,-2.07,-2.07,-2.07,-2.07,-2.07,-2.07,-2.07,-2.07,-2.07,-2.07,-2.07,-2.07,-2.07,-2.07,-2.07,-2.07,-2.07,-2.07,-2.07,-2.07,-2.07,-2.07,-2.07,-2.07,-2.07,-2.07,-1.818,-1.6413,-1.6413,-1.6237,-1.6096,-1.6096,-1.4937,-1.42,-1.42,-1.2924,-1.2187,-1.2187,-1.2008,-1.19,-1.19,-1.1368,-1.108,-1.108,-1.0714,-1.0563,-1.0563,-1.0527,-1.0311,-1.7315,-1.7443,-1.7508,-1.7508,-1.7322,-1.7153,-1.7105,-1.6923,-1.6778,-1.6774,-1.6731,-1.6718,-1.6762,-1.6951,-1.7105,-1.7153,-1.7593,-1.8016,-1.8312,-1.8852,-1.9211,-1.9208,-1.9633,-1.9858,-1.9601,-2.0202,-2.061,-2.0709,-2.1227,-2.1308,-2.0735,-2.07,-2.07,-2.07,-2.07,-2.07,-2.07,-2.07,-2.0839,-2.1104,-2.1104,-2.1311,-2.1691,-2.1276,-2.1138,-2.1173,-2.0839,-2.0873,-2.1104,-2.1104,-2.1104,-2.1104,-2.1104,-2.1104,-2.1104,-2.1104,-2.1311,-2.1565,-2.122,-2.1104,-2.1081,-2.0804,-2.07,-2.07,-2.07,-2.07,-2.07,-2.07,-2.07,-2.07,-2.07,-2.07,-2.07,-2.07,-2.07,-2.07,-2.07,-2.07,-2.07,-2.07,-2.07,-2.07,-2.07,-2.07,-2.07,-2.07,-2.07,-2.07,-2.07,-1.9111,-1.8016,-1.8016,-1.6871,-1.6096,-1.6096,-1.5884,-1.5707,-1.5707,-1.546,-1.5318,-1.5318,-1.4164,-1.3496,-1.3496,-1.2187,-1.1512,-1.1512,-1.1116,-1.09,-1.09,-1.0635,-1.0455,-1.7334,-1.7508,-1.7484,-1.7339,-1.7189,-1.702,-1.6758,-1.6573,-1.6542,-1.6667,-1.6486,-1.6372,-1.6642,-1.6817,-1.6943,-1.7118,-1.7473,-1.7956,-1.8691,-1.9062,-1.9393,-1.982,-2.0157,-2.0347,-2.0462,-2.0705,-2.0981,-2.1304,-2.1627,-2.1565,-2.0977,-2.0804,-2.077,-2.0943,-2.0977,-2.1047,-2.1289,-2.1289,-2.1358,-2.1518,-2.1518,-2.1622,-2.1794,-2.1587,-2.1518,-2.1484,-2.1358,-2.1358,-2.1518,-2.1518,-2.1518,-2.1518,-2.1518,-2.1518,-2.1484,-2.1276,-2.1311,-2.1449,-2.1081,-2.0943,-2.0908,-2.0735,-2.07,-2.07,-2.07,-2.07,-2.07,-2.07,-2.07,-2.07,-2.07,-2.07,-2.07,-2.07,-2.07,-2.07,-2.07,-2.07,-2.07,-2.07,-2.07,-2.07,-2.07,-2.07,-2.07,-2.07,-2.07,-2.07,-2.07,-2.0063,-1.9611,-1.9611,-1.8925,-1.8506,-1.8506,-1.776,-1.7303,-1.7303,-1.6554,-1.5743,-1.5008,-1.4271,-1.3531,-1.2717,-1.1972,-1.1584,-1.1584,-1.1404,-1.1296,-1.1296,-1.1145,-1.1004,-1.7189,-1.7322,-1.729,-1.7056,-1.696,-1.6803,-1.6408,-1.6263,-1.6301,-1.6641,-1.6258,-1.6099,-1.671,-1.675,-1.682,-1.7204,-1.7406,-1.7923,-1.914,-1.9315,-1.9581,-2.041,-2.0604,0.0,-2.1246,-2.1183,-2.1326,-2.1859,-2.1897,-2.1725,-2.1346,-2.1081,-2.1047,-2.1311,-2.1311,-2.1484,-2.1794,-2.1794,-2.1841,-2.1897,-2.1897,-2.1932,-2.2035,-2.1932,-2.1897,-2.1897,-2.1829,-2.1829,-2.1897,-2.1897,-2.1897,-2.1897,-2.1897,-2.1897,-2.1863,-2.1449,-2.138,-2.138,-2.0943,-2.0804,-2.0804,-2.0735,-2.07,-2.07,-2.07,-2.07,-2.07,-2.07,-2.07,-2.07,-2.07,-2.07,-2.07,-2.07,-2.07,-2.07,-2.07,-2.07,-2.07,-2.07,-2.07,-2.07,-2.07,-2.07,-2.07,-2.07,-2.07,-2.07,-2.07,-2.07,-2.07,-2.07,-2.07,-2.07,-2.07,-1.9576,-1.8901,-1.8901,-1.776,-1.6564,-1.5398,-1.4725,-1.3808,-1.2574,-1.1936,-1.1584,-1.1584,-1.1584,-1.1597,-1.1631,-1.1631,-1.1596,-1.6694,-1.6767,-1.6767,-1.6742,-1.6549,-1.6344,-1.6308,-1.6115,-1.6082,-1.6577,-1.6258,-1.6152,-1.6987,-1.6897,-1.6902,-1.7467,-1.7535,-1.7911,-1.914,-1.9315,-1.9501,-2.0074,0.0,0.0,-2.0961,-2.1463,-2.1937,-2.2216,-2.2242,-2.2104,-2.176,-2.1738,-2.1691,-2.1725,-2.1725,-2.176,-2.1794,-2.1794,-2.1932,-2.2242,-2.2242,-2.2448,-2.2791,-2.2413,-2.2242,-2.2242,-2.1932,-2.1966,-2.2242,-2.2242,-2.2242,-2.2242,-2.2242,-2.2242,-2.2207,-2.1863,-2.1932,-2.2104,-2.138,-2.1138,-2.1116,-2.0804,-2.07,-2.07,-2.07,-2.07,-2.07,-2.07,-2.07,-2.07,-2.07,-2.07,-2.07,-2.07,-2.07,-2.07,-2.07,-2.07,-2.07,-2.07,-2.07,-2.07,-2.07,-2.07,-2.07,-2.07,-2.07,-2.07,-2.07,-2.07,-2.07,-2.07,-2.07,-2.07,-2.07,-2.0561,-2.0492,-2.0492,-2.0353,-2.0202,-2.0063,-1.7409,-1.5813,-1.5672,-1.2996,-1.1584,-1.1584,-1.1584,-1.1651,-1.1773,-1.1773,-1.1861,-1.6622,-1.6706,-1.6658,-1.6489,-1.6368,-1.626,-1.6091,-1.597,-1.6045,-1.6604,-1.6258,-1.6099,-1.6789,-1.6799,-1.6892,-1.7497,-1.7705,0.0,-1.9423,-1.9607,-1.9806,-2.0396,-2.0824,-2.118,-2.1542,-2.1799,-2.215,-2.2614,-2.2654,-2.2585,-2.2482,-2.2035,-2.1897,-2.2104,-2.2104,-2.2207,-2.2448,-2.2448,-2.2516,-2.2654,-2.2654,-2.2619,-2.2551,-2.2619,-2.2516,-2.231,-2.2413,-2.2551,-2.2654,-2.2654,-2.2654,-2.2654,-2.2654,-2.2654,-2.2619,-2.2242,-2.207,-2.1932,-2.138,-2.1081,-2.0873,-2.0735,-2.07,-2.07,-2.07,-2.07,-2.07,-2.07,-2.07,-2.07,-2.07,-2.07,-2.07,-2.07,-2.07,-2.07,-2.07,-2.07,-2.07,-2.07,-2.07,-2.07,-2.07,-2.07,-2.07,-2.07,-2.07,-2.07,-2.07,-2.07,-2.07,-2.07,-2.07,-2.07,-2.07,-2.07,-2.07,-2.07,-2.07,-2.0284,-1.9355,-1.8156,-1.7057,-1.6131,-1.4058,-1.296,-1.296,-1.2135,-1.1739,-1.1793,-1.1925,-1.2054,-1.6404,-1.6465,-1.6416,-1.6238,-1.6229,-1.622,-1.596,-1.5965,-1.6152,-1.6604,-1.6338,-1.6205,-1.6842,-1.6895,-1.7035,-1.7618,-1.7885,-1.8379,-1.953,-1.973,-2.0025,-2.0641,-2.1015,-2.143,-2.1937,-2.2171,-2.2452,-2.2867,-2.2893,-2.2893,-2.2893,-2.2413,-2.2242,-2.2482,-2.2482,-2.2619,-2.2893,-2.2893,-2.2893,-2.2893,-2.2893,-2.2756,-2.2482,-2.2756,-2.2756,-2.2482,-2.2791,-2.2893,-2.2893,-2.2893,-2.2893,-2.2893,-2.2893,-2.2893,-2.2859,-2.2448,-2.2138,-2.1897,-2.1518,-2.122,-2.1012,-2.0873,-2.0839,-2.0839,-2.0735,-2.07,-2.07,-2.07,-2.07,-2.07,-2.07,-2.07,-2.07,-2.07,-2.07,-2.07,-2.07,-2.07,-2.07,-2.07,-2.07,-2.07,-2.07,-2.07,-2.07,-2.07,-2.07,-2.07,-2.07,-2.07,-2.07,-2.07,-2.07,-2.07,-2.07,-2.07,-2.07,-2.07,-2.07,-2.0214,-1.9111,-1.8657,-1.7875,-1.6811,-1.4927,-1.3961,-1.3961,-1.259,-1.1925,-1.1965,-1.2081,-1.2247,-1.5924,-1.5897,-1.5924,-1.5897,-1.6111,-1.6217,-1.5977,-1.6111,-1.6377,-1.663,-1.6471,-1.6563,-1.7424,-1.7384,-1.7383,-1.7915,-1.8016,0.0,-1.925,-1.9641,-2.0025,-2.0641,-2.1221,-2.1703,-2.1951,-2.2546,-2.2893,-2.2893,-2.2893,-2.2893,-2.2893,-2.2893,-2.2893,-2.2893,-2.2893,-2.2893,-2.2893,-2.2893,-2.2893,-2.2893,-2.2893,-2.2893,-2.2893,-2.2893,-2.2893,-2.2893,-2.2893,-2.2893,-2.2893,-2.2893,-2.2893,-2.2893,-2.2893,-2.2893,-2.2859,-2.2448,-2.231,-2.2242,-2.1897,-2.1794,-2.1738,-2.1311,-2.1173,-2.1151,-2.0804,-2.07,-2.07,-2.07,-2.07,-2.07,-2.07,-2.07,-2.07,-2.07,-2.07,-2.07,-2.07,-2.07,-2.07,-2.07,-2.07,-2.07,-2.07,-2.07,-2.07,-2.07,-2.07,-2.07,-2.07,-2.07,-2.07,-2.07,-2.07,-2.07,-2.07,-2.07,-2.07,-2.07,-2.07,-2.07,-2.0665,-1.9216,-1.8377,-1.8377,-1.5561,-1.412,-1.4075,-1.2756,-1.2173,-1.2284,-1.2284,-1.2366,-1.6062,-1.6031,-1.5939,-1.6137,-1.6244,-1.6271,-1.6191,-1.6365,-1.6604,-1.6683,-1.6471,-1.643,-1.6895,-1.6922,-1.7062,-1.7632,-1.8064,-1.8579,-1.9308,-1.9777,-2.0146,-2.033,-2.1243,-2.1964,-2.2258,-2.2632,-2.2893,-2.2893,-2.2893,-2.2893,-2.2893,-2.2893,-2.2893,-2.2893,-2.2893,-2.2893,-2.2893,-2.2893,-2.2893,-2.2893,-2.2893,-2.2893,-2.2893,-2.2893,-2.2893,-2.2893,-2.2893,-2.2893,-2.2893,-2.2893,-2.2893,-2.2893,-2.2893,-2.2893,-2.2859,-2.2756,-2.2551,-2.2276,-2.2173,-2.2001,-2.1772,-2.1656,-2.1415,-2.1173,-2.1081,-2.0873,-2.07,-2.07,-2.07,-2.07,-2.07,-2.07,-2.07,-2.07,-2.07,-2.07,-2.07,-2.07,-2.07,-2.07,-2.07,-2.07,-2.07,-2.07,-2.07,-2.07,-2.07,-2.07,-2.07,-2.07,-2.07,-2.07,-2.07,-2.07,-2.07,-2.07,-2.07,-2.07,-2.07,-2.07,-2.07,-2.0237,-2.004,-2.0251,-1.8321,-1.6853,-1.5931,-1.455,-1.3377,-1.2433,-1.2433,-1.2461,-1.5891,-1.5946,-1.5965,-1.6217,-1.6377,-1.643,-1.6324,-1.6497,-1.671,-1.671,-1.6577,-1.6577,-1.6975,-1.7054,-1.7209,-1.7662,-1.8162,-1.8719,-1.9308,-1.9867,-2.037,-2.0811,-2.1537,-2.2151,-2.2552,-2.2786,-2.2893,-2.2893,-2.2893,-2.2893,-2.2893,-2.2893,-2.2893,-2.2893,-2.2893,-2.2893,-2.2893,-2.2893,-2.2893,-2.2893,-2.2893,-2.2893,-2.2893,-2.2893,-2.2893,-2.2893,-2.2893,-2.2893,0.0,-2.2893,-2.2893,-2.2893,-2.2893,-2.2893,-2.2893,-2.2893,-2.2756,-2.2516,-2.2516,-2.2379,-2.2173,-2.2035,-2.1725,-2.1415,-2.1415,-2.1081,-2.07,-2.07,-2.07,-2.07,-2.07,-2.07,-2.07,-2.07,-2.07,-2.07,-2.07,-2.07,-2.07,-2.07,-2.07,-2.07,-2.07,-2.07,-2.07,-2.07,-2.07,-2.07,-2.07,-2.07,-2.07,-2.07,-2.07,-2.07,-2.07,-2.07,-2.07,-2.07,-2.07,-2.07,-2.07,-2.0797,-2.093,-2.1087,-1.973,-1.8326,-1.6878,-1.4843,-1.3403,-1.2501,-1.2501,-1.2501,0.0,-1.568,-1.5965,-1.6271,-1.6524,-1.663,-1.6404,-1.6524,0.0,-1.671,-1.671,-1.6895,-1.745,-1.7582,-1.7662,-1.7969,-1.8289,-1.8732,-1.9348,-1.9893,-2.0664,-2.1844,-2.1991,-2.2251,-2.284,-2.2893,-2.2893,-2.2893,-2.2893,-2.2893,-2.2893,-2.2893,-2.2893,-2.2893,-2.2893,-2.2893,-2.2893,-2.2893,-2.2893,-2.2893,-2.2893,-2.2893,-2.2893,-2.2893,-2.2893,-2.2893,-2.2893,-2.2893,-2.2893,-2.2893,-2.2893,-2.2893,-2.2893,-2.2893,-2.2893,-2.2893,-2.2893,-2.2893,-2.2893,-2.2893,-2.2825,-2.2413,-2.2104,-2.1829,-2.1807,-2.1289,-2.0735,-2.0735,-2.0735,-2.07,-2.07,-2.07,-2.07,-2.07,-2.07,-2.07,-2.07,-2.07,-2.07,-2.07,-2.07,-2.07,-2.07,-2.07,-2.07,-2.07,-2.07,-2.07,-2.07,-2.07,-2.07,-2.07,-2.07,-2.07,-2.07,-2.07,-2.07,-2.07,-2.07,-2.0712,-2.0724,-2.0966,-2.1111,-2.1148,-1.9921,-1.8512,-1.702,-1.3992,-1.2501,-1.2501,-1.2501,-1.2501,-1.5125,0.0,-1.6019,-1.6497,-1.6657,-1.6683,0.0,0.0,0.0,0.0,0.0,0.0,0.0,-1.7279,-1.7476,-1.7988,-1.8299,-1.8771,-1.9586,-2.0201,-2.0953,-2.1903,-2.1991,-2.2251,-2.284,-2.2893,-2.2893,-2.2893,-2.2893,-2.2893,-2.2893,-2.2893,-2.2893,-2.2893,-2.2893,-2.2893,-2.2893,-2.2893,-2.2893,-2.2893,-2.2893,-2.2893,-2.2893,-2.2893,-2.2893,-2.2893,-2.2893,-2.2893,-2.2893,-2.2893,-2.2893,-2.2893,-2.2893,-2.2893,-2.2893,-2.2893,-2.2893,-2.2893,-2.2893,-2.2893,-2.2825,-2.2413,-2.2242,-2.2138,-2.1863,-2.1462,-2.1081,-2.1081,-2.0908,-2.07,-2.07,-2.07,-2.07,-2.07,-2.07,-2.07,-2.07,-2.07,-2.07,-2.07,-2.07,-2.07,-2.07,-2.07,-2.07,-2.07,-2.07,-2.07,-2.07,-2.07,-2.07,-2.07,-2.07,-2.07,-2.07,-2.07,-2.07,-2.07,-2.07,-2.0797,-2.099,-2.1063,-2.1293,-2.1704,-1.9175,-1.7681,-1.7312,-1.4084,-1.2501,-1.2501,-1.2501,-1.2501,-1.504,-1.5403,-1.5873,-1.6539,-1.671,-1.671,-1.671,0.0,0.0,0.0,0.0,0.0,0.0,-1.7476,-1.7714,-1.8217,-1.8633,-1.9227,-2.008,-2.0739,-2.1341,-2.1943,-2.2111,-2.2365,-2.2853,-2.2893,-2.2893,-2.2893,-2.2893,-2.2893,-2.2893,-2.2893,-2.2893,-2.2893,-2.2893,-2.2893,-2.2893,-2.2893,-2.2893,-2.2893,-2.2893,-2.2893,-2.2893,-2.2893,-2.2893,-2.2893,-2.2893,-2.2893,-2.2893,-2.2893,-2.2893,-2.2893,-2.2893,-2.2893,-2.2893,-2.2893,-2.2893,-2.2893,-2.2893,-2.2893,-2.2859,-2.2654,-2.2643,-2.2727,-2.2554,-2.2296,-2.1998,-2.1351,-2.1167,-2.1091,-2.0917,-2.0978,-2.1075,-2.1075,-2.1075,-2.1075,-2.1075,-2.1075,-2.1075,-2.1075,-2.1075,-2.1075,-2.1075,-2.1075,-2.1075,-2.1075,-2.1075,-2.1075,-2.1075,-2.1075,-2.1075,-2.1075,-2.0966,-2.0882,-2.0882,-2.0773,-2.07,-2.07,-2.0821,-2.0942,-2.1087,-2.1341,-2.1667,-2.2079,-1.9709,-1.8138,-1.7379,-1.4829,-1.3228,-1.2501,-1.2501,-1.2501,-1.5028,-1.527,-1.5641,-1.6489,-1.6683,-1.6657,-1.6697,0.0,0.0,0.0,0.0,0.0,0.0,-1.7809,-1.8116,-1.8437,-1.9093,-1.9803,-2.0592,-2.1221,-2.1689,-2.1984,-2.2245,-2.2539,-2.2867,-2.2893,-2.2893,-2.2893,-2.2893,-2.2893,-2.2893,-2.2893,-2.2893,-2.2893,-2.2893,-2.2893,-2.2893,-2.2893,-2.2893,-2.2893,-2.2893,-2.2893,-2.2893,-2.2893,-2.2893,-2.2893,-2.2893,-2.2893,-2.2893,-2.2893,-2.2893,-2.2893,-2.2893,-2.2893,-2.2893,-2.2893,-2.2893,-2.2907,-2.2947,-2.2974,-2.2974,-2.3014,-2.318,-2.3394,-2.3394,-2.3285,-2.295,-2.1747,-2.154,-2.1608,-2.1266,-2.1341,-2.151,-2.151,-2.151,-2.151,-2.151,-2.151,-2.151,-2.151,-2.151,-2.151,-2.151,-2.151,-2.151,-2.151,-2.151,-2.151,-2.151,-2.151,-2.151,-2.151,-2.1305,-2.116,-2.116,-2.0954,-2.0821,-2.0821,-2.1002,-2.1135,-2.122,-2.1704,-2.2066,-2.2296,-2.065,-1.9019,-1.7417,-1.5701,-1.4068,-1.2501,-1.2501,-1.2501,-1.4968,-1.5137,-1.541,-1.6451,-1.6524,-1.643,-1.6657,0.0,0.0,0.0,0.0,0.0,0.0,-1.7809,-1.8116,-1.8437,-1.9399,-2.0241,-2.0646,-2.1221,-2.1689,-2.1984,-2.2245,-2.2539,-2.2867,-2.2893,-2.2893,-2.2893,-2.2893,-2.2893,-2.2893,-2.2893,-2.2893,-2.2893,-2.2893,-2.2893,-2.2893,-2.2893,-2.2893,-2.2893,-2.2893,-2.2893,-2.2893,-2.2893,-2.2893,-2.2893,-2.2893,-2.2893,-2.2893,-2.2893,-2.2893,-2.2893,-2.2893,-2.2893,-2.2893,-2.2893,-2.2893,-2.2934,-2.3166,-2.326,-2.33,-2.3589,-2.3696,-2.3701,-2.3701,-2.3479,-2.3099,-2.2546,-2.2224,-2.1928,-2.1558,-2.1486,-2.151,-2.151,-2.151,-2.151,-2.151,-2.151,-2.151,-2.151,-2.151,-2.151,-2.151,-2.151,-2.151,-2.151,-2.151,-2.151,-2.151,-2.151,-2.151,-2.151,-2.1474,-2.145,-2.145,-2.1414,-2.1389,-2.1389,-2.1208,-2.1305,-2.1764,-2.2079,-2.226,-2.2296,-2.065,-1.9019,-1.7417,-1.5701,-1.4068,-1.2501,-1.2501,-1.2501,-1.5004,-1.5311,-1.5725,-1.6503,-1.6604,-1.6551,-1.6683,0.0,0.0,0.0,0.0,0.0,0.0,-1.8049,-1.8516,-1.9276,-1.985,-2.0357,-2.0842,-2.1448,-2.1877,-2.201,-2.2412,-2.2746,-2.288,-2.2893,-2.2893,-2.2893,-2.2893,-2.2893,-2.2893,-2.2893,-2.2893,-2.2893,-2.2893,-2.2893,-2.2893,-2.2893,-2.2893,-2.2893,-2.2893,-2.2893,-2.2893,-2.2893,-2.2893,-2.2893,-2.2893,-2.2893,-2.2893,-2.2893,-2.2893,-2.2893,-2.2893,-2.2893,-2.292,-2.3046,-2.3113,-2.3153,-2.346,-2.3567,-2.3594,-2.3763,-2.391,-2.4008,-2.4008,-2.3826,-2.3544,-2.3143,-2.2664,-2.2188,-2.1801,-2.1837,-2.1933,-2.1933,-2.1933,-2.1933,-2.1933,-2.1933,-2.1933,-2.1933,-2.1933,-2.1933,-2.1933,-2.1933,-2.1933,-2.1933,-2.1933,-2.1933,-2.1933,-2.1933,-2.1933,-2.1933,-2.1813,-2.1728,-2.1728,-2.1595,-2.1583,-2.1716,-2.1607,-2.1704,-2.2103,-2.2236,-2.2296,-2.2296,-2.1536,-1.9887,-1.7417,-1.6617,-1.4944,-1.2501,-1.2501,-1.2501,-1.504,-1.5486,-1.6015,-1.6488,-1.6604,0.0,0.0,0.0,0.0,0.0,0.0,0.0,-1.7928,-1.8383,-1.9038,-2.0037,-2.0264,-2.049,-2.1042,-2.1617,-2.1991,-2.1991,-2.2532,-2.2893,-2.2893,-2.2893,-2.2893,-2.2893,-2.2893,-2.2893,-2.2893,-2.2893,-2.2893,-2.2893,-2.2893,-2.2893,-2.2893,-2.2893,-2.2893,-2.2893,-2.2893,-2.2893,-2.2893,-2.2893,-2.2893,-2.2893,-2.2893,-2.2893,-2.2893,-2.2893,-2.2893,-2.2893,-2.2893,-2.2934,-2.3041,-2.3233,-2.3332,-2.3474,-2.3768,-2.391,-2.3888,-2.3991,-2.4128,-2.4302,-2.4302,-2.4169,-2.3933,-2.3624,-2.304,-2.2436,-2.2068,-2.2151,-2.2296,-2.2296,-2.2296,-2.2296,-2.2296,-2.2296,-2.2296,-2.2296,-2.2296,-2.2296,-2.2296,-2.2296,-2.2296,-2.2296,-2.2296,-2.2296,-2.2296,-2.2296,-2.2296,-2.2296,-2.2115,-2.1994,-2.1994,-2.1813,-2.1788,-2.1982,-2.1994,-2.2091,-2.2284,-2.2296,-2.2296,-2.2296,-2.2296,-2.0699,-1.7417,-1.7417,-1.5701,-1.2501,-1.2501,-1.2501,-1.504,-1.5486,-1.5963,-1.6262,-1.6324,0.0,-1.704,-1.6948,0.0,-1.7146,0.0,0.0,-1.7982,-1.8731,-1.9535,-2.0104,-2.0468,-2.0779,-2.1069,-2.1617,-2.1991,-2.1991,-2.2532,-2.2893,-2.2893,-2.2893,-2.2893,-2.2893,-2.2893,-2.2893,-2.2893,-2.2893,-2.2893,-2.2893,-2.2893,-2.2893,-2.2893,-2.2893,-2.2893,-2.2893,-2.2893,-2.2893,-2.2893,-2.2893,-2.2893,-2.2893,-2.2893,-2.2893,-2.2893,-2.2893,-2.2893,-2.2893,-2.2893,-2.3033,-2.3265,-2.3278,-2.35,-2.3817,-2.4075,-2.4168,-2.4222,-2.4452,-2.4559,-2.4572,-2.4572,-2.429,-2.4007,-2.397,-2.3438,-2.2757,-2.2384,-2.2284,-2.2296,-2.2296,-2.2296,-2.2296,-2.2296,-2.2296,-2.2296,-2.2296,-2.2296,-2.2296,-2.2296,-2.2296,-2.2296,-2.2296,-2.2296,-2.2296,-2.2296,-2.2296,-2.2296,-2.2296,-2.2284,-2.2272,-2.2272,-2.2248,-2.2248,-2.2272,-2.2272,-2.2284,-2.2296,-2.2296,-2.2296,-2.2296,-2.2296,-2.0699,-1.7417,-1.7417,-1.5701,-1.2501,-1.2501,-1.2501,-1.5282,-1.5848,-1.6372,-1.6326,-1.659,0.0,0.0,-1.737,-1.7541,-1.7661,-1.8035,0.0,-1.8798,-1.9292,-1.9826,-2.0414,-2.0632,-2.0775,-2.1069,-2.1617,-2.1991,-2.1991,-2.2532,-2.2893,-2.2893,-2.2893,-2.2893,-2.2893,-2.2893,-2.2893,-2.2893,-2.2893,-2.2893,-2.2893,-2.2893,-2.2893,-2.2893,-2.2893,-2.2893,-2.2893,-2.2893,-2.2893,-2.2893,-2.2893,-2.2893,-2.2893,-2.2893,-2.2893,-2.2893,-2.2893,-2.2893,-2.292,-2.3073,-2.322,-2.3332,-2.3741,-2.3941,-2.4075,-2.4369,-2.4439,-2.4452,-2.4559,-2.4599,-2.4599,-2.4599,-2.4341,-2.4007,-2.4007,-2.3488,-2.2856,-2.2707,-2.2483,-2.2296,-2.2296,-2.2296,-2.2296,-2.2296,-2.2296,-2.2296,-2.2296,-2.2296,-2.2296,-2.2296,-2.2296,-2.2296,-2.2296,-2.2296,-2.2296,-2.2296,-2.2296,-2.2296,-2.2296,-2.2296,-2.2296,-2.2296,-2.2296,-2.2296,-2.2296,-2.2296,-2.2296,-2.2296,-2.13,-2.0763,-2.0763,-1.9774,-1.864,-1.7417,-1.635,-1.5212,-1.3991,-1.2958,-1.2501,-1.5427,-1.6034,-1.6551,-1.6444,0.0,0.0,-1.7397,-1.7675,-1.7941,-1.8115,-1.849,-1.8946,-1.9441,-1.9813,-2.0214,-2.0646,-2.0779,-2.0882,-2.1082,-2.1617,-2.1991,-2.1991,-2.2532,-2.2893,-2.2893,-2.2893,-2.2893,-2.2893,-2.2893,-2.2893,-2.2893,-2.2893,-2.2893,-2.2893,-2.2893,-2.2893,-2.2893,-2.2893,-2.2893,-2.2893,-2.2893,-2.2893,-2.2893,-2.2893,-2.2893,-2.2893,-2.2893,-2.2893,-2.2893,-2.2893,-2.2893,-2.2934,-2.3207,-2.3345,-2.3527,-2.4022,-2.4262,-2.4332,-2.4532,-2.4599,-2.4599,-2.4599,-2.4599,-2.4599,-2.4599,-2.4414,-2.4193,-2.4193,-2.3748,-2.3228,-2.3079,-2.2669,-2.2296,-2.2296,-2.2296,-2.2296,-2.2296,-2.2296,-2.2296,-2.2296,-2.2296,-2.2296,-2.2296,-2.2296,-2.2296,-2.2296,-2.2296,-2.2296,-2.2296,-2.2296,-2.2296,-2.2296,-2.2296,-2.2296,-2.2296,-2.2296,-2.2296,-2.2296,-2.2296,-2.2072,-2.1536,-2.0425,-1.9547,-1.9057,-1.7948,-1.715,-1.6617,-1.5472,-1.4637,-1.4107,-1.2997,-1.2501,-1.5427,-1.5903,-1.6377,-1.663,0.0,0.0,-1.7875,-1.7793,-1.7776,-1.8382,-1.9,-1.9495,-1.9746,-2.0281,-2.0712,-2.0712,-2.0922,-2.1109,-2.1109,-2.1617,-2.1991,-2.1991,-2.2532,-2.2893,-2.2893,-2.2893,-2.2893,-2.2893,-2.2893,-2.2893,-2.2893,-2.2893,-2.2893,-2.2893,-2.2893,-2.2893,-2.2893,-2.2893,-2.2893,-2.2893,-2.2893,-2.2893,-2.2893,-2.2893,-2.2893,-2.2893,-2.2893,-2.2893,-2.2893,-2.2893,-2.2893,-2.2934,-2.3207,-2.3514,-2.3843,-2.4102,-2.4359,-2.4599,-2.4599,-2.4599,-2.4599,-2.4599,-2.4599,-2.4599,-2.4599,-2.4599,-2.4599,-2.4599,-2.4304,-2.3933,-2.3513,-2.2856,-2.2296,-2.2296,-2.2296,-2.2296,-2.2296,-2.2296,-2.2296,-2.2296,-2.2296,-2.2296,-2.2296,-2.2296,-2.2296,-2.2296,-2.2296,-2.2296,-2.2296,-2.2296,-2.2296,-2.2296,-2.2296,-2.2296,-2.2296,-2.2296,-2.2296,-2.2296,-2.2296,-2.1536,-1.9887,-1.9774,-1.9008,-1.7417,-1.7341,-1.6541,-1.4905,-1.4867,-1.4068,-1.254,-1.2501,-1.2501,-1.5892,-1.6302,-1.6551,-1.6457,0.0,0.0,0.0,-1.7999,0.0,0.0,-1.9441,-1.976,-2.0024,-2.0414,-2.0748,-2.0949,-2.1056,-2.1109,-2.1109,-2.1617,-2.1991,-2.1991,-2.2532,-2.2893,-2.2893,-2.2893,-2.2893,-2.2893,-2.2893,-2.2893,-2.2893,-2.2893,-2.2893,-2.2893,-2.2893,-2.2893,-2.2893,-2.2893,-2.2893,-2.2893,-2.2893,-2.2893,-2.2893,-2.2893,-2.2893,-2.2893,-2.2893,-2.2893,-2.2893,-2.2893,-2.3027,-2.322,-2.3527,-2.3821,-2.4115,-2.4359,-2.4532,-2.4599,-2.4599,-2.4599,-2.4599,-2.4599,-2.4599,-2.4599,-2.4599,-2.4599,-2.4599,-2.4599,-2.4304,-2.397,-2.3859,-2.3265,-2.2632,-2.2371,-2.2296,-2.2296,-2.2296,-2.2296,-2.2296,-2.2296,-2.2296,-2.2296,-2.2296,-2.2296,-2.2296,-2.2296,-2.2296,-2.2296,-2.2296,-2.2296,-2.2296,-2.2296,-2.2296,-2.2296,-2.2296,-2.2296,-2.2296,-2.2296,-2.2296,-2.1536,-1.9887,-1.8706,-1.7341,-1.5663,-1.4522,-1.4253,-1.4905,-1.376,-1.3529,-1.4176,-1.3035,-1.2501,-1.5988,-1.6338,-1.6497,-1.635,-1.6958,-1.7701,-1.8045,0.0,0.0,-1.9468,-1.9773,-2.0067,-2.0361,-2.0655,-2.0909,-2.1082,-2.1109,-2.1109,-2.1109,-2.1617,-2.1991,-2.1991,-2.2532,-2.2893,-2.2893,-2.2893,-2.2893,-2.2893,-2.2893,-2.2893,-2.2893,-2.2893,-2.2893,-2.2893,-2.2893,-2.2893,-2.2893,-2.2893,-2.2893,-2.2893,-2.2893,-2.2893,-2.2893,-2.2893,-2.2893,-2.2893,-2.2893,-2.2893,-2.2907,-2.2993,-2.3153,-2.3332,-2.3781,-2.4048,-2.4235,-2.4492,-2.4599,-2.4599,-2.4599,-2.4599,-2.4599,-2.4599,-2.4599,-2.4599,-2.4599,-2.4599,-2.4599,-2.4599,-2.4414,-2.4193,-2.4044,-2.3674,-2.3191,-2.2669,-2.2408,-2.2296,-2.2296,-2.2296,-2.2296,-2.2296,-2.2296,-2.2296,-2.2296,-2.2296,-2.2296,-2.2296,-2.2296,-2.2296,-2.2296,-2.2296,-2.2296,-2.2296,-2.2296,-2.2296,-2.2296,-2.2296,-2.2296,-2.2296,-2.2296,-2.1536,-1.9887,-1.8252,-1.6617,-1.4944,-1.3305,-1.2997,-1.3953,-1.2958,-1.2997,-1.3914,-1.2958,-1.2501,-1.5893,-1.6137,-1.6297,-1.6377,-1.7005,-1.7868,-1.8713,-1.9158,-1.9481,-1.9733,-1.9997,-2.029,-2.0646,-2.0909,-2.1109,-2.1109,-2.1109,-2.1109,-2.1109,-2.159,-2.1951,-2.201,-2.2519,-2.2867,-2.2893,-2.2893,-2.2893,-2.2893,-2.2893,-2.2893,-2.2893,-2.2893,-2.2893,-2.2893,-2.2893,-2.2893,-2.2893,-2.2893,-2.2893,-2.2893,-2.2893,-2.2893,-2.2893,-2.2893,-2.2893,-2.2893,-2.2893,-2.2893,-2.292,-2.3193,-2.3305,-2.3385,-2.3981,-2.4222,-2.4275,-2.4506,-2.4599,-2.4599,-2.4599,-2.4599,-2.4599,-2.4599,-2.4599,-2.4599,-2.4599,-2.4599,-2.4599,-2.4599,-2.4599,-2.4525,-2.4156,-2.4044,-2.3822,-2.3116,-2.2632,-2.2334,-2.2296,-2.2296,-2.2296,-2.2296,-2.2296,-2.2296,-2.2296,-2.2296,-2.2296,-2.2296,-2.2296,-2.2296,-2.2296,-2.2296,-2.2296,-2.2296,-2.2296,-2.2296,-2.2296,-2.2296,-2.2296,-2.2296,-2.2296,-2.1611,-2.0075,-1.8327,-1.6617,-1.4944,-1.3305,-1.2501,-1.2501,-1.2501,-1.2501,-1.2501,-1.2501,-1.2501,-1.6343,-1.6418,-1.6404,-1.6882,-1.7443,-1.8076,-1.8753,-1.9158,-1.9481,-1.9733,-1.9997,-2.029,-2.0646,-2.0909,-2.1109,-2.1109,-2.1109,-2.1109,-2.1109,-2.1448,-2.1756,-2.1951,-2.2298,-2.2605,-2.288,-2.2893,-2.2893,-2.2893,-2.2893,-2.2893,-2.2893,-2.2893,-2.2893,-2.2893,-2.2893,-2.2893,-2.2893,-2.2893,-2.2893,-2.2893,-2.2893,-2.2893,-2.2893,-2.2893,-2.2893,-2.2893,-2.2893,-2.2893,-2.292,-2.3193,-2.346,-2.375,-2.4062,-2.4342,-2.4519,-2.4572,-2.4599,-2.4599,-2.4599,-2.4599,-2.4599,-2.4599,-2.4599,-2.4599,-2.4599,-2.4599,-2.4599,-2.4599,-2.4599,-2.4562,-2.4488,-2.423,-2.3896,-2.3401,-2.3042,-2.2669,-2.2371,-2.2296,-2.2296,-2.2296,-2.2296,-2.2296,-2.2296,-2.2296,-2.2296,-2.2296,-2.2296,-2.2296,-2.2296,-2.2296,-2.2296,-2.2296,-2.2296,-2.2296,-2.2296,-2.2296,-2.2296,-2.2296,-2.2296,-2.2147,-2.1761,-1.8943,-1.6617,-1.4944,-1.3305,-1.2501,-1.2501,-1.2501,-1.2501,-1.2501,-1.2501,-1.2501,-1.6354,-1.6404,-1.6494,-1.7209,-1.7735,-1.8182,-1.8766,-1.9158,-1.9481,-1.9733,-1.9997,-2.029,-2.0646,-2.0909,-2.1109,-2.1109,-2.1109,-2.1109,-2.1109,-2.1395,-2.1689,-2.1984,-2.2245,-2.2539,-2.2867,-2.2893,-2.2893,-2.2893,-2.2893,-2.2893,-2.2893,-2.2893,-2.2893,-2.2893,-2.2893,-2.2893,-2.2893,-2.2893,-2.2893,-2.2893,-2.2893,-2.2893,-2.2893,-2.2893,-2.2893,-2.2893,-2.2893,-2.2987,-2.3113,-2.342,-2.3714,-2.4008,-2.4302,-2.4466,-2.4599,-2.4599,-2.4599,-2.4599,-2.4599,-2.4599,-2.4599,-2.4599,-2.4599,-2.4599,-2.4599,-2.4599,-2.4599,-2.4599,-2.4599,-2.4599,-2.4599,-2.4451,-2.4156,-2.355,-2.3154,-2.2781,-2.2371,-2.2296,-2.2296,-2.2296,-2.2296,-2.2296,-2.2296,-2.2296,-2.2296,-2.2296,-2.2296,-2.2296,-2.2296,-2.2296,-2.2296,-2.2296,-2.2296,-2.2296,-2.2296,-2.2296,-2.2296,-2.2296,-2.2296,-2.2296,-2.2296,-1.917,-1.6998,-1.6121,-1.3722,-1.2501,-1.2501,-1.2501,-1.2501,-1.2501,-1.2501,-1.2501,-1.6217,-1.6377,-1.6626,-1.7363,-1.7839,-1.8307,-1.8795,-1.9158,-1.9468,-1.9679,-2.0,-2.029,-2.0646,-2.0909,-2.1109,-2.1109,-2.1109,-2.1109,-2.1109,-2.1355,-2.1622,-2.1917,-2.2164,-2.2458,-2.2786,-2.2867,-2.2893,-2.2893,-2.2893,-2.2893,-2.2893,-2.2893,-2.2893,-2.2893,-2.2893,-2.2893,-2.2893,-2.2893,-2.2893,-2.2893,-2.2893,-2.2893,-2.2893,-2.2893,-2.2893,-2.2893,-2.2893,-2.3033,-2.3319,-2.3647,-2.3977,-2.4235,-2.4492,-2.4599,-2.4599,-2.4599,-2.4599,-2.4599,-2.4599,-2.4599,-2.4599,-2.4599,-2.4599,-2.4599,-2.4599,-2.4599,-2.4599,-2.4599,-2.4599,-2.4599,-2.4599,-2.4599,-2.4414,-2.36,-2.3191,-2.2856,-2.2408,-2.2296,-2.2296,-2.2296,-2.2296,-2.2296,-2.2296,-2.2296,-2.2296,-2.2296,-2.2296,-2.2296,-2.2296,-2.2296,-2.2296,-2.2296,-2.2296,-2.2296,-2.2296,-2.2296,-2.2296,-2.2296,-2.2296,-2.2296,-2.2296,-1.917,-1.7417,-1.7417,-1.4184,-1.2501,-1.2501,-1.2501,-1.2501,-1.2501,-1.2501,-1.2501,-1.6217,0.0,-1.7105,0.0,-1.7839,-1.8543,-1.8823,-1.9158,-1.9401,-1.9441,-1.9853,-2.029,-2.0646,-2.0909,-2.1109,-2.1109,-2.1109,-2.1109,-2.1109,-2.1149,-2.1283,-2.1609,-2.1903,-2.2164,-2.2445,-2.2746,-2.2893,-2.2893,-2.2893,-2.2893,-2.2893,-2.2893,-2.2893,-2.2893,-2.2893,-2.2893,-2.2893,-2.2893,-2.2893,-2.2893,-2.2893,-2.2893,-2.2893,-2.2893,-2.2893,-2.2893,-2.2893,-2.3033,-2.3319,-2.3647,-2.3977,-2.4235,-2.4492,-2.4599,-2.4599,-2.4599,-2.4599,-2.4599,-2.4599,-2.4599,-2.4599,-2.4599,-2.4599,-2.4599,-2.4599,-2.4599,-2.4599,-2.4599,-2.4599,-2.4599,-2.4599,-2.4599,-2.4414,-2.36,-2.3364,-2.3154,-2.2446,-2.2296,-2.2296,-2.2296,-2.2296,-2.2296,-2.2296,-2.2296,-2.2296,-2.2296,-2.2296,-2.2296,-2.2296,-2.2296,-2.2296,-2.2296,-2.2296,-2.2296,-2.2296,-2.2296,-2.2296,-2.2296,-2.2296,-2.2296,-2.2296,-1.917,-1.7417,-1.7417,-1.4184,-1.2501,-1.2501,-1.2501,-1.2501,-1.2501,-1.2501,-1.2501,-1.6045,-1.6471,-1.6934,0.0,-1.7613,-1.8351,-1.8623,-1.9038,-1.9401,-1.9401,-1.9693,-2.008,-2.0374,-2.0668,-2.0922,-2.1082,-2.1109,-2.1109,-2.1109,-2.1109,-2.1216,-2.1542,-2.1836,-2.2098,-2.2358,-2.2686,-2.2893,-2.2893,-2.2893,-2.2893,-2.2893,-2.2893,-2.2893,-2.2893,-2.2893,-2.2893,-2.2893,-2.2893,-2.2893,-2.2893,-2.2893,-2.2893,-2.2893,-2.2893,-2.2893,-2.2907,-2.3046,-2.33,-2.3594,-2.3888,-2.4182,-2.4426,-2.4546,-2.4599,-2.4599,-2.4599,-2.4599,-2.4599,-2.4599,-2.4599,-2.4599,-2.4599,-2.4599,-2.4599,-2.4599,-2.4599,-2.4599,-2.4599,-2.4599,-2.4599,-2.4599,-2.4599,-2.4451,-2.3846,-2.3562,-2.3253,-2.2744,-2.2446,-2.2296,-2.2296,-2.2296,-2.2296,-2.2296,-2.2296,-2.2296,-2.2296,-2.2296,-2.2296,-2.2296,-2.2296,-2.2296,-2.2296,-2.2296,-2.2296,-2.2296,-2.2296,-2.2296,-2.2296,-2.2296,-2.2296,-2.2296,-1.917,-1.7417,-1.7417,-1.4184,-1.2501,-1.2501,-1.2501,-1.2501,-1.2501,-1.2501,-1.2501,-1.5885,0.0,-1.671,-1.671,-1.7376,-1.8135,-1.8436,-1.8891,-1.9308,-1.9388,-1.9575,-1.9773,-2.0037,-2.0428,-2.0779,-2.0962,-2.1069,-2.1109,-2.1109,-2.1109,-2.1189,-2.1448,-2.1729,-2.1991,-2.2285,-2.2579,-2.2813,-2.2893,-2.2893,-2.2893,-2.2893,-2.2893,-2.2893,-2.2893,-2.2893,-2.2893,-2.2893,-2.2893,-2.2893,-2.2893,-2.2893,-2.2893,-2.2893,-2.2893,-2.2934,-2.2993,-2.322,-2.35,-2.383,-2.4088,-2.4369,-2.4599,-2.4599,-2.4599,-2.4599,-2.4599,-2.4599,-2.4599,-2.4599,-2.4599,-2.4599,-2.4599,-2.4599,-2.4599,-2.4599,-2.4599,-2.4599,-2.4599,-2.4599,-2.4599,-2.4599,-2.4599,-2.4488,-2.4119,-2.3698,-2.3302,-2.2856,-2.252,-2.2296,-2.2296,-2.2296,-2.2296,-2.2296,-2.2296,-2.2296,-2.2296,-2.2296,-2.2296,-2.2296,-2.2296,-2.2296,-2.2296,-2.2296,-2.2296,-2.2296,-2.2296,-2.2296,-2.2296,-2.2296,-2.2296,-2.2296,-1.917,-1.7417,-1.7417,-1.4184,-1.2501,-1.2501,-1.2501,-1.2501,-1.2501,-1.2501,-1.2501,0.0,-1.6285,0.0,-1.671,-1.7368,-1.8089,-1.8424,-1.8731,-1.9025,-1.9334,-1.9401,-1.9508,-1.9773,-2.0294,-2.0712,-2.0726,-2.0922,-2.1109,-2.1109,-2.1109,-2.1122,-2.1136,-2.1422,-2.1729,-2.1977,-2.2271,-2.2565,-2.288,-2.2893,-2.2893,-2.2893,-2.2893,-2.2893,-2.2893,-2.2893,-2.2893,-2.2893,-2.2893,-2.2893,-2.2893,-2.2893,-2.2893,-2.2893,-2.2893,-2.302,-2.3265,-2.3278,-2.35,-2.383,-2.4088,-2.4369,-2.4599,-2.4599,-2.4599,-2.4599,-2.4599,-2.4599,-2.4599,-2.4599,-2.4599,-2.4599,-2.4599,-2.4599,-2.4599,-2.4599,-2.4599,-2.4599,-2.4599,-2.4599,-2.4599,-2.4599,-2.4599,-2.4488,-2.4119,-2.3698,-2.3178,-2.2483,-2.2296,-2.2296,-2.2296,-2.2296,-2.2296,-2.2296,-2.2296,-2.2296,-2.2296,-2.2296,-2.2296,-2.2296,-2.2296,-2.2296,-2.2296,-2.2296,-2.2296,-2.2296,-2.2296,-2.2296,-2.2296,-2.2296,-2.2296,-2.2296,-1.917,-1.7417,-1.7417,-1.4184,-1.2501,-1.2501,-1.2501,-1.2501,-1.2501,-1.2501,-1.2501,0.0,0.0,0.0,-1.6391,-1.6979,-1.7614,-1.8134,-1.8564,-1.9011,-1.9334,-1.9401,-1.9428,-1.9535,-2.0,-2.0454,-2.0672,-2.0922,-2.1109,-2.1109,-2.1109,-2.1109,-2.1109,-2.1408,-2.1703,-2.1951,-2.2245,-2.2539,-2.288,-2.2893,-2.2893,-2.2893,-2.2893,-2.2893,-2.2893,-2.2893,-2.2893,-2.2893,-2.2893,-2.2893,-2.2893,-2.2893,-2.2893,-2.2893,-2.2893,-2.3033,-2.3305,-2.3527,-2.3781,-2.4075,-2.4369,-2.4506,-2.4599,-2.4599,-2.4599,-2.4599,-2.4599,-2.4599,-2.4599,-2.4599,-2.4599,-2.4599,-2.4599,-2.4599,-2.4599,-2.4599,-2.4599,-2.4599,-2.4599,-2.4599,-2.4599,-2.4599,-2.4599,-2.4414,-2.3785,-2.3488,-2.3178,-2.2446,-2.2296,-2.2296,-2.2296,-2.2296,-2.2296,-2.2296,-2.2296,-2.2296,-2.2296,-2.2296,-2.2296,-2.2296,-2.2296,-2.2296,-2.2296,-2.2296,-2.2296,-2.2296,-2.2296,-2.2296,-2.2296,-2.2296,-2.2296,-2.2296,-1.917,-1.7417,-1.7417,-1.4184,-1.2501,-1.2501,-1.2501,-1.2501,-1.2501,-1.2501,-1.2501,-1.5885,0.0,0.0,-1.6271,-1.6662,-1.7226,-1.7942,-1.8345,-1.8736,-1.9279,-1.9401,-1.9401,-1.9401,-1.976,-2.0187,-2.0481,-2.0775,-2.1002,-2.1096,-2.1109,-2.1109,-2.1109,-2.1315,-2.1555,-2.185,-2.2098,-2.2392,-2.2733,-2.284,-2.2893,-2.2893,-2.2893,-2.2893,-2.2893,-2.2893,-2.2893,-2.2893,-2.2893,-2.2893,-2.2893,-2.2893,-2.2893,-2.2893,-2.2893,-2.3121,-2.3487,-2.3688,-2.3941,-2.4222,-2.4479,-2.4599,-2.4599,-2.4599,-2.4599,-2.4599,-2.4599,-2.4599,-2.4599,-2.4599,-2.4599,-2.4599,-2.4599,-2.4599,-2.4599,-2.4599,-2.4599,-2.4599,-2.4599,-2.4599,-2.4599,-2.4599,-2.4488,-2.423,-2.3562,-2.329,-2.3079,-2.2446,-2.2296,-2.2296,-2.2296,-2.2296,-2.2296,-2.2296,-2.2296,-2.2296,-2.2296,-2.2296,-2.2296,-2.2296,-2.2296,-2.2296,-2.2296,-2.2296,-2.2296,-2.2296,-2.2296,-2.2296,-2.2296,-2.2296,-2.2072,-2.1499,-1.8868,-1.715,-1.6579,-1.3876,-1.2501,-1.2501,-1.2501,-1.2501,-1.2501,-1.2501,-1.2501,0.0,0.0,0.0,-1.6297,-1.6497,-1.693,-1.7862,-1.802,-1.8274,-1.9168,-1.9388,-1.9401,-1.9401,-1.9599,-1.988,-2.0144,-2.0481,-2.0806,-2.1056,-2.1109,-2.1109,-2.1109,-2.1109,-2.1229,-2.1555,-2.185,-2.2111,-2.2392,-2.2699,-2.2893,-2.2893,-2.2893,-2.2893,-2.2893,-2.2893,-2.2893,-2.2893,-2.2893,-2.2893,-2.2893,-2.2893,-2.2893,-2.2893,-2.2893,-2.3228,-2.3803,-2.3803,-2.3977,-2.4235,-2.4479,-2.4599,-2.4599,-2.4599,-2.4599,-2.4599,-2.4599,-2.4599,-2.4599,-2.4599,-2.4599,-2.4599,-2.4599,-2.4599,-2.4599,-2.4599,-2.4599,-2.4599,-2.4599,-2.4599,-2.4599,-2.4599,-2.4304,-2.3896,-2.3488,-2.3154,-2.2781,-2.2371,-2.2296,-2.2296,-2.2296,-2.2296,-2.2296,-2.2296,-2.2296,-2.2296,-2.2296,-2.2296,-2.2296,-2.2296,-2.2296,-2.2296,-2.2296,-2.2296,-2.2296,-2.2296,-2.2296,-2.2296,-2.2296,-2.2296,-2.1536,-1.9887,-1.8252,-1.6617,-1.4944,-1.3305,-1.2501,-1.2501,-1.2501,-1.2501,-1.2501,-1.2501,-1.2501,-1.5885,0.0,0.0,0.0,0.0,0.0,-1.7043,-1.7629,-1.8194,-1.8645,-1.9097,-1.9401,-1.9401,-1.9468,-1.9615,-1.9867,-2.0347,-2.0739,-2.0788,-2.0975,-2.1109,-2.1109,-2.1109,-2.1229,-2.1555,-2.185,-2.2111,-2.2392,-2.2699,-2.2893,-2.2893,-2.2893,-2.2893,-2.2893,-2.2893,-2.2893,-2.2893,-2.2893,-2.2893,-2.2893,-2.2893,-2.2893,-2.2893,-2.2893,-2.3228,-2.3803,-2.3803,-2.4062,-2.4492,-2.4572,-2.4599,-2.4599,-2.4599,-2.4599,-2.4599,-2.4599,-2.4599,-2.4599,-2.4599,-2.4599,-2.4599,-2.4599,-2.4599,-2.4599,-2.4599,-2.4599,-2.4599,-2.4599,-2.4599,-2.4599,-2.4599,-2.4304,-2.3896,-2.3488,-2.3154,-2.2781,-2.2371,-2.2296,-2.2296,-2.2296,-2.2296,-2.2296,-2.2296,-2.2296,-2.2296,-2.2296,-2.2296,-2.2296,-2.2296,-2.2296,-2.2296,-2.2296,-2.2296,-2.2296,-2.2296,-2.2296,-2.2296,-2.2296,-2.2296,-2.1536,-1.9887,-1.8252,-1.6617,-1.4944,-1.3305,-1.2501,-1.2501,-1.2501,-1.2501,-1.2501,-1.2501,-1.2501,0.0,0.0,0.0,0.0,0.0,0.0,-1.6698,-1.7275,-1.7832,-1.82,-1.8772,-1.9185,-1.9185,-1.9301,-1.9455,-1.9615,-2.0013,-2.0401,-2.0672,-2.0922,-2.1109,-2.1109,-2.1109,-2.1176,-2.1381,-2.177,-2.2058,-2.2218,-2.2666,-2.2893,-2.2893,-2.2893,-2.2893,-2.2893,-2.2893,-2.2893,-2.2893,-2.2893,-2.2893,-2.2893,-2.2893,-2.2893,-2.2893,-2.2893,-2.3228,-2.3803,-2.3803,-2.4102,-2.4599,-2.4599,-2.4599,-2.4599,-2.4599,-2.4599,-2.4599,-2.4599,-2.4599,-2.4599,-2.4599,-2.4599,-2.4599,-2.4599,-2.4599,-2.4599,-2.4599,-2.4599,-2.4599,-2.4599,-2.4599,-2.4599,-2.4599,-2.4193,-2.3698,-2.3438,-2.3005,-2.2595,-2.2334,-2.2296,-2.2296,-2.2296,-2.2296,-2.2296,-2.2296,-2.2296,-2.2296,-2.2296,-2.2296,-2.2296,-2.2296,-2.2296,-2.2296,-2.2296,-2.2296,-2.2296,-2.2296,-2.2296,-2.2296,-2.2296,-2.2296,-2.1262,-1.8905,-1.791,-1.6312,-1.3953,-1.2997,-1.2501,-1.2501,-1.2501,-1.2501,-1.2501,-1.2501,-1.2501,0.0,0.0,0.0,0.0,-1.5885,0.0,-1.6579,-1.6946,-1.7344,-1.7821,-1.8429,-1.891,-1.891,-1.9156,-1.933,-1.933,-1.9583,-1.9957,-2.0548,-2.0882,-2.1069,-2.1109,-2.1109,-2.1109,-2.1109,-2.1617,-2.1984,-2.201,-2.2559,-2.2893,-2.2893,-2.2893,-2.2893,-2.2893,-2.2893,-2.2893,-2.2893,-2.2893,-2.2893,-2.2893,-2.2893,-2.2893,-2.2893,-2.2893,-2.3228,-2.3803,-2.3803,-2.4102,-2.4599,-2.4599,-2.4599,-2.4599,-2.4599,-2.4599,-2.4599,-2.4599,-2.4599,-2.4599,-2.4599,-2.4599,-2.4599,-2.4599,-2.4599,-2.4599,-2.4599,-2.4599,-2.4599,-2.4599,-2.4599,-2.4599,-2.4599,-2.4007,-2.3401,-2.3401,-2.2856,-2.2296,-2.2296,-2.2296,-2.2296,-2.2296,-2.2296,-2.2296,-2.2296,-2.2296,-2.2296,-2.2296,-2.2296,-2.2296,-2.2296,-2.2296,-2.2296,-2.2296,-2.2296,-2.2296,-2.2296,-2.2296,-2.2296,-2.2296,-2.2147,-2.0613,-1.7531,-1.7227,-1.5663,-1.2579,-1.2501,-1.2501,-1.2501,-1.2501,-1.2501,-1.2501,-1.2501,-1.2501,0.0,0.0,0.0,0.0,-1.5885,0.0,-1.6038,-1.6673,-1.7238,-1.7316,-1.8173,-1.891,-1.891,-1.8939,-1.8997,-1.8997,-1.9204,-1.9608,-2.0207,-2.0575,-2.0842,-2.1082,-2.1109,-2.1109,-2.1109,-2.1462,-2.177,-2.1964,-2.2559,-2.2893,-2.2893,-2.2893,-2.2893,-2.2893,-2.2893,-2.2893,-2.2893,-2.2893,-2.2893,-2.2893,-2.2893,-2.2893,-2.2893,-2.2893,-2.3228,-2.3803,-2.3803,-2.4102,-2.4599,-2.4599,-2.4599,-2.4599,-2.4599,-2.4599,-2.4599,-2.4599,-2.4599,-2.4599,-2.4599,-2.4599,-2.4599,-2.4599,-2.4599,-2.4599,-2.4599,-2.4599,-2.4599,-2.4599,-2.4599,-2.4599,-2.4599,-2.4007,-2.3401,-2.3401,-2.2856,-2.2296,-2.2296,-2.2296,-2.2296,-2.2296,-2.2296,-2.2296,-2.2296,-2.2296,-2.2296,-2.2296,-2.2296,-2.2296,-2.2296,-2.2296,-2.2296,-2.2296,-2.2296,-2.2296,-2.2296,-2.2296,-2.2296,-2.2296,-2.1037,-1.9434,-1.7493,-1.6083,-1.4483,-1.254,-1.2501,-1.2501,-1.2501,-1.2501,-1.2501,-1.2501,-1.2501,-1.2501,0.0,0.0,0.0,-1.6296,-1.6296,0.0,0.0,-1.6749,-1.7142,-1.7142,-1.7848,-1.8457,-1.8457,-1.8561,-1.8648,-1.8648,-1.891,-1.9253,-1.9691,-2.0296,-2.0766,-2.0869,-2.1029,-2.1109,-2.1109,-2.1408,-2.177,-2.2164,-2.2653,-2.2893,-2.2893,-2.2893,-2.2893,-2.2893,-2.2893,-2.2893,-2.2893,-2.2893,-2.2893,-2.2893,-2.2893,-2.2893,-2.2893,-2.2893,-2.3228,-2.3803,-2.3803,-2.4102,-2.4599,-2.4599,-2.4599,-2.4599,-2.4599,-2.4599,-2.4599,-2.4599,-2.4599,-2.4599,-2.4599,-2.4599,-2.4599,-2.4599,-2.4599,-2.4599,-2.4599,-2.4599,-2.4599,-2.4599,-2.4599,-2.4562,-2.4341,-2.3859,-2.3377,-2.3191,-2.2707,-2.2296,-2.2296,-2.2296,-2.2296,-2.2296,-2.2296,-2.2296,-2.2296,-2.2296,-2.2296,-2.2296,-2.2296,-2.2296,-2.2296,-2.2296,-2.2296,-2.2296,-2.2296,-2.2296,-2.2296,-2.2296,-2.196,-2.1112,-2.0274,-1.8706,-1.6236,-1.5357,-1.4137,-1.254,-1.2501,-1.2501,-1.2501,-1.2501,-1.2501,-1.2501,-1.2501,-1.2501,0.0,0.0,0.0,0.0,0.0,-1.6706,0.0,0.0,0.0,-1.7092,-1.7571,-1.8002,-1.8002,-1.8165,-1.8315,-1.8264,-1.8522,-1.8771,-1.8939,-1.9819,-2.0486,-2.0686,-2.0882,-2.1042,-2.1096,-2.1408,-2.1796,-2.2298,-2.2605,-2.284,-2.2893,-2.2893,-2.2893,-2.2893,-2.2893,-2.2893,-2.2893,-2.2893,-2.2893,-2.2893,-2.2893,-2.2893,-2.2893,-2.296,-2.3281,-2.3803,-2.387,-2.4155,-2.4599,-2.4599,-2.4599,-2.4599,-2.4599,-2.4599,-2.4599,-2.4599,-2.4599,-2.4599,-2.4599,-2.4599,-2.4599,-2.4599,-2.4599,-2.4599,-2.4599,-2.4599,-2.4599,-2.4599,-2.4599,-2.4525,-2.4119,-2.3711,-2.3327,-2.2968,-2.2595,-2.2296,-2.2296,-2.2296,-2.2296,-2.2296,-2.2296,-2.2296,-2.2296,-2.2296,-2.2296,-2.2296,-2.2296,-2.2296,-2.2296,-2.2345,-2.2369,-2.2369,-2.2417,-2.2453,-2.2453,-2.2453,-2.1714,-2.0027,-1.9599,-1.8113,-1.5126,-1.467,-1.3829,-1.254,-1.2501,-1.2501,-1.2501,-1.2501,-1.2501,-1.2501,-1.2501,-1.2501,0.0,0.0,0.0,0.0,-1.6706,-1.6706,-1.6706,0.0,-1.7092,-1.7092,0.0,-1.8002,-1.8002,0.0,0.0,-1.774,-1.7915,-1.8031,-1.7835,-1.8744,-1.9779,-2.0615,-2.0739,-2.0828,-2.1082,-2.1408,-2.1716,-2.2004,-2.2298,-2.2579,-2.288,-2.2893,-2.2893,-2.2893,-2.2893,-2.2893,-2.2893,-2.2893,-2.2893,-2.2893,-2.2893,-2.2893,-2.2907,-2.3153,-2.346,-2.3817,-2.4035,-2.4342,-2.4599,-2.4599,-2.4599,-2.4599,-2.4599,-2.4599,-2.4599,-2.4599,-2.4599,-2.4599,-2.4599,-2.4599,-2.4599,-2.4599,-2.4599,-2.4599,-2.4599,-2.4599,-2.4599,-2.4599,-2.4599,-2.4525,-2.4119,-2.3711,-2.3327,-2.2968,-2.2595,-2.2296,-2.2296,-2.2296,-2.2296,-2.2296,-2.2296,-2.2296,-2.2296,-2.2296,-2.2296,-2.2296,-2.2296,-2.2296,-2.2296,-2.2502,-2.2647,-2.2647,-2.2852,-2.2997,-2.2997,-2.2997,-2.2241,-2.0447,-1.8994,-1.7347,-1.5431,-1.3791,-1.2793,-1.2501,-1.2501,-1.2501,-1.2501,-1.2501,-1.2501,-1.2501,-1.2501,-1.2501,0.0,0.0,0.0,0.0,-1.7153,-1.7153,-1.7153,-1.7237,-1.7322,-1.7322,0.0,0.0,0.0,0.0,0.0,0.0,-1.7798,-1.7952,-1.784,-1.8395,-1.9124,-2.0086,-2.0482,-2.082,-2.1082,-2.1408,-2.1703,-2.1964,-2.2258,-2.2552,-2.288,-2.2893,-2.2893,-2.2893,-2.2893,-2.2893,-2.2893,-2.2893,-2.2893,-2.2893,-2.2893,-2.2893,-2.2907,-2.318,-2.3487,-2.3817,-2.4075,-2.4332,-2.4599,-2.4599,-2.4599,-2.4599,-2.4599,-2.4599,-2.4599,-2.4599,-2.4599,-2.4599,-2.4599,-2.4599,-2.4599,-2.4599,-2.4599,-2.4599,-2.4599,-2.4599,-2.4599,-2.4599,-2.4599,-2.4451,-2.3822,-2.3525,-2.3253,-2.2707,-2.2408,-2.2296,-2.2296,-2.2296,-2.2296,-2.2296,-2.2296,-2.2296,-2.2296,-2.2296,-2.2296,-2.2296,-2.2296,-2.2357,-2.2502,-2.2623,-2.2744,-2.2901,-2.3022,-2.3082,-2.3082,-2.214,-2.0795,-1.9103,-1.655,-1.4779,-1.4029,-1.3293,-1.2834,-1.2812,-1.2678,-1.263,-1.263,-1.2549,-1.2501,-1.2501,-1.2501,-1.2501,-1.7641,-1.7617,-1.7605,-1.7532,-1.7508,-1.7508,-1.7508,-1.7508,-1.7508,-1.7508,-1.7508,0.0,0.0,0.0,-1.7484,0.0,0.0,-1.7847,-1.7744,-1.8056,-1.8606,-1.9464,-2.0148,-2.0695,-2.1082,-2.1309,-2.1622,-2.1951,-2.2178,-2.2458,-2.288,-2.2893,-2.2893,-2.2893,-2.2893,-2.2893,-2.2893,-2.2893,-2.2893,-2.2893,-2.2893,-2.2893,-2.2907,-2.3273,-2.3567,-2.383,-2.4155,-2.4399,-2.4599,-2.4599,-2.4599,-2.4599,-2.4599,-2.4599,-2.4599,-2.4599,-2.4599,-2.4599,-2.4599,-2.4599,-2.4599,-2.4599,-2.4599,-2.4599,-2.4599,-2.4599,-2.4599,-2.4599,-2.4599,-2.4451,-2.3748,-2.3475,-2.3228,-2.2595,-2.2371,-2.2296,-2.2296,-2.2296,-2.2296,-2.2296,-2.2296,-2.2296,-2.2296,-2.2296,-2.2296,-2.2296,-2.2357,-2.2478,-2.2659,-2.2816,-2.2985,-2.3167,-2.3263,-2.3104,-2.2623,-2.1385,-1.9719,-1.7576,-1.471,-1.3105,-1.3064,-1.3057,-1.3043,-1.3003,-1.2854,-1.2793,-1.2793,-1.2684,-1.2603,-1.2562,-1.2522,-1.2501,-1.7968,-1.7895,-1.7822,-1.7569,-1.7508,-1.7508,-1.7508,-1.7508,-1.7508,-1.7508,-1.7508,-1.7508,-1.7508,0.0,0.0,0.0,0.0,0.0,0.0,-1.7654,-1.8248,-1.8852,-1.968,-2.0458,-2.1051,-2.1122,-2.1363,-2.197,-2.2024,-2.2291,-2.2867,-2.2893,-2.2893,-2.2893,-2.2893,-2.2893,-2.2893,-2.2893,-2.2893,-2.2893,-2.2893,-2.2893,-2.292,-2.3522,-2.3803,-2.3843,-2.4369,-2.4586,-2.4599,-2.4599,-2.4599,-2.4599,-2.4599,-2.4599,-2.4599,-2.4599,-2.4599,-2.4599,-2.4599,-2.4599,-2.4599,-2.4599,-2.4599,-2.4599,-2.4599,-2.4599,-2.4599,-2.4599,-2.4599,-2.4488,-2.4081,-2.3698,-2.329,-2.2968,-2.2595,-2.2296,-2.2296,-2.2296,-2.2296,-2.2296,-2.2296,-2.2296,-2.2296,-2.2296,-2.2296,-2.2296,-2.2514,-2.2683,-2.2695,-2.3104,-2.339,-2.3402,-2.3631,-2.3084,-2.1402,-2.119,-1.9694,-1.627,-1.4361,-1.3322,-1.3214,-1.3207,-1.3146,-1.3003,-1.2996,-1.2996,-1.2996,-1.2989,-1.2868,-1.2679,-1.2569,-1.2501,-1.824,-1.8155,-1.8082,-1.7847,-1.7774,-1.7726,-1.7556,-1.7508,-1.7508,-1.7508,-1.7508,-1.7508,-1.7508,0.0,0.0,0.0,0.0,0.0,0.0,-1.7547,-1.7944,-1.8731,-1.9643,-2.0445,-2.1051,-2.1109,-2.1349,-2.1937,-2.1991,-2.2278,-2.2867,-2.2893,-2.2893,-2.2893,-2.2893,-2.2893,-2.2893,-2.2893,-2.2893,-2.2893,-2.2893,-2.2893,-2.292,-2.3536,-2.3803,-2.3843,-2.4382,-2.4599,-2.4599,-2.4599,-2.4599,-2.4599,-2.4599,-2.4599,-2.4599,-2.4599,-2.4599,-2.4599,-2.4599,-2.4599,-2.4599,-2.4599,-2.4599,-2.4599,-2.4599,-2.4599,-2.4599,-2.4599,-2.4599,-2.4451,-2.3772,-2.3488,-2.3265,-2.2632,-2.2408,-2.2296,-2.2296,-2.2296,-2.2296,-2.2296,-2.2296,-2.2296,-2.2296,-2.2296,-2.2357,-2.2526,-2.2635,-2.2816,-2.314,-2.3306,-2.3475,-2.3655,-2.3752,-2.3107,-2.1343,-1.9105,-1.6738,-1.4417,-1.3728,-1.3376,-1.3322,-1.3322,-1.3302,-1.3254,-1.3193,-1.3139,-1.3139,-1.305,-1.2975,-1.2881,-1.2725,-1.2596,-1.8518,-1.8525,-1.8514,-1.8155,-1.8143,-1.8124,-1.7835,-1.7726,-1.7653,-1.7653,-1.7581,-1.7508,-1.7508,0.0,0.0,0.0,0.0,0.0,0.0,-1.7508,-1.7832,-1.8704,-1.945,-2.0141,-2.0848,-2.1014,-2.1349,-2.1937,-2.1991,-2.2278,-2.2867,-2.2893,-2.2893,-2.2893,-2.2893,-2.2893,-2.2893,-2.2893,-2.2893,-2.2893,-2.2893,-2.2893,-2.292,-2.3536,-2.3803,-2.3843,-2.4382,-2.4599,-2.4599,-2.4599,-2.4599,-2.4599,-2.4599,-2.4599,-2.4599,-2.4599,-2.4599,-2.4599,-2.4599,-2.4599,-2.4599,-2.4599,-2.4599,-2.4599,-2.4599,-2.4599,-2.4599,-2.4599,-2.4599,-2.4451,-2.3785,-2.3513,-2.3265,-2.2632,-2.2408,-2.2296,-2.2296,-2.2296,-2.2296,-2.2296,-2.2296,-2.2296,-2.2296,-2.2296,-2.2381,-2.2647,-2.2768,-2.2985,-2.3354,-2.3499,-2.3619,-2.3788,-2.38,-2.2826,-2.0494,-1.7638,-1.5275,-1.3521,-1.3403,-1.3403,-1.3403,-1.3403,-1.3403,-1.3403,-1.3302,-1.3254,-1.3254,-1.3159,-1.3132,-1.3071,-1.2935,-1.2807]},{"header":{"parameterUnit":"m.s-1","parameterCategory":1,"la1":30.6,"la2":29.2853,"lo1":-89.7004,"lo2":-87.6739,"dy":0.0162,"dx":0.0183,"nx":112,"ny":82,"refTime":"2023-10-20T12:00:00:Z","depth":0,"parameterNumber":3,"parameterNumberName":"V-component_of_WINDS"},"data":[0.0,0.0,0.0,0.0,0.0,0.0,0.0,0.0,0.0,0.0,0.0,0.0,0.0,0.0,0.0,0.0,0.0,0.0,0.0,0.0,0.0,0.0,0.0,0.0,0.0,0.0,0.0,0.0,0.0,0.0,0.0,0.0,0.0,0.0,0.0,0.0,0.0,0.0,0.0,0.0,0.0,0.0,0.0,0.0,0.0,0.0,0.0,0.0,0.0,0.0,0.0,0.0,0.0,0.0,0.0,0.0,0.0,0.0,0.0,0.0,0.0,0.0,0.0,0.0,0.0,0.0,0.0,0.0,0.0,0.0,0.0,0.0,0.0,0.0,0.0,0.0,0.0,0.0,0.0,0.0,0.0,0.0,0.0,0.0,0.0,0.0,0.0,0.0,0.0,0.0,3.4737,3.5577,3.6423,3.7196,3.793,3.7311,3.6888,3.6888,0.0,0.0,0.0,0.0,0.0,0.0,0.0,0.0,0.0,0.0,0.0,0.0,0.0,0.0,0.0,0.0,0.0,0.0,0.0,0.0,0.0,0.0,0.0,0.0,0.0,0.0,0.0,0.0,0.0,0.0,0.0,0.0,0.0,0.0,0.0,0.0,0.0,0.0,0.0,0.0,0.0,0.0,0.0,0.0,0.0,0.0,0.0,0.0,0.0,0.0,0.0,0.0,0.0,0.0,0.0,0.0,0.0,0.0,0.0,0.0,0.0,0.0,0.0,0.0,0.0,0.0,0.0,0.0,0.0,0.0,0.0,0.0,0.0,0.0,0.0,0.0,0.0,0.0,0.0,0.0,0.0,0.0,0.0,0.0,0.0,0.0,0.0,0.0,0.0,0.0,0.0,0.0,0.0,0.0,0.0,0.0,0.0,0.0,0.0,0.0,0.0,0.0,0.0,0.0,3.5615,3.6427,3.7273,3.7853,3.8007,3.7892,3.7815,3.7815,0.0,0.0,0.0,0.0,0.0,0.0,0.0,0.0,0.0,0.0,0.0,0.0,0.0,0.0,0.0,0.0,0.0,0.0,0.0,0.0,0.0,0.0,0.0,0.0,0.0,0.0,0.0,0.0,0.0,0.0,0.0,0.0,0.0,0.0,0.0,0.0,0.0,0.0,0.0,0.0,0.0,0.0,0.0,0.0,0.0,0.0,0.0,0.0,0.0,0.0,0.0,0.0,0.0,0.0,0.0,0.0,0.0,0.0,0.0,0.0,0.0,0.0,0.0,0.0,0.0,0.0,0.0,0.0,0.0,0.0,0.0,0.0,0.0,0.0,0.0,0.0,0.0,0.0,0.0,0.0,0.0,0.0,0.0,0.0,0.0,0.0,0.0,0.0,0.0,0.0,0.0,0.0,0.0,0.0,0.0,0.0,0.0,0.0,0.0,0.0,0.0,0.0,0.0,3.5888,3.6657,3.7969,3.8473,3.8896,3.9319,3.8973,3.8703,3.8703,3.7546,0.0,0.0,0.0,0.0,0.0,0.0,0.0,0.0,0.0,0.0,0.0,0.0,0.0,0.0,0.0,0.0,0.0,0.0,0.0,0.0,0.0,0.0,0.0,0.0,0.0,0.0,0.0,0.0,0.0,0.0,0.0,0.0,0.0,0.0,0.0,0.0,0.0,0.0,0.0,0.0,0.0,0.0,0.0,0.0,0.0,0.0,0.0,0.0,0.0,0.0,0.0,0.0,0.0,0.0,0.0,0.0,0.0,0.0,0.0,0.0,0.0,0.0,0.0,0.0,0.0,0.0,0.0,0.0,0.0,0.0,0.0,0.0,0.0,0.0,0.0,0.0,0.0,0.0,0.0,0.0,0.0,0.0,0.0,0.0,0.0,0.0,0.0,0.0,0.0,0.0,0.0,0.0,0.0,0.0,0.0,0.0,0.0,0.0,0.0,0.0,0.0,0.0,3.6878,3.762,3.913,3.9473,3.9823,4.0439,3.9938,3.9588,3.9588,3.8973,0.0,0.0,0.0,0.0,0.0,0.0,0.0,0.0,0.0,0.0,0.0,0.0,0.0,0.0,0.0,0.0,0.0,0.0,0.0,0.0,0.0,0.0,0.0,0.0,0.0,0.0,0.0,0.0,0.0,0.0,0.0,0.0,0.0,0.0,0.0,0.0,0.0,0.0,0.0,0.0,0.0,0.0,0.0,0.0,0.0,0.0,0.0,0.0,0.0,0.0,0.0,0.0,0.0,0.0,0.0,0.0,0.0,0.0,0.0,0.0,0.0,0.0,0.0,0.0,0.0,0.0,0.0,0.0,0.0,0.0,0.0,0.0,0.0,0.0,0.0,0.0,0.0,0.0,0.0,0.0,0.0,0.0,0.0,0.0,0.0,0.0,0.0,0.0,0.0,0.0,0.0,0.0,0.0,0.0,0.0,0.0,0.0,0.0,0.0,0.0,0.0,0.0,3.7459,3.8334,3.9219,3.9977,4.0439,4.0516,4.0439,4.0439,4.0439,4.0362,0.0,0.0,0.0,0.0,0.0,0.0,0.0,0.0,0.0,0.0,0.0,0.0,0.0,0.0,0.0,0.0,0.0,0.0,0.0,0.0,0.0,0.0,0.0,0.0,0.0,0.0,0.0,0.0,0.0,0.0,0.0,0.0,0.0,0.0,0.0,0.0,0.0,0.0,0.0,0.0,0.0,0.0,0.0,0.0,0.0,0.0,0.0,0.0,0.0,0.0,0.0,0.0,0.0,0.0,0.0,0.0,0.0,0.0,0.0,0.0,0.0,0.0,0.0,0.0,0.0,0.0,0.0,0.0,0.0,0.0,0.0,0.0,0.0,0.0,0.0,0.0,0.0,0.0,0.0,0.0,0.0,0.0,0.0,0.0,0.0,0.0,0.0,0.0,0.0,0.0,0.0,0.0,0.0,0.0,0.0,0.0,0.0,0.0,0.0,0.0,0.0,0.0,3.8343,3.9434,4.0777,4.1147,4.1316,4.1316,4.1316,4.1085,4.0516,0.0,0.0,0.0,0.0,0.0,0.0,0.0,0.0,0.0,0.0,0.0,0.0,0.0,0.0,0.0,0.0,0.0,0.0,0.0,0.0,0.0,0.0,0.0,0.0,0.0,0.0,0.0,0.0,0.0,0.0,0.0,0.0,0.0,0.0,0.0,0.0,0.0,0.0,0.0,0.0,0.0,0.0,0.0,0.0,0.0,0.0,0.0,0.0,0.0,0.0,0.0,0.0,0.0,0.0,0.0,0.0,0.0,0.0,0.0,0.0,0.0,0.0,0.0,0.0,0.0,0.0,0.0,0.0,0.0,0.0,0.0,0.0,0.0,0.0,0.0,0.0,0.0,0.0,0.0,0.0,0.0,0.0,0.0,0.0,0.0,0.0,0.0,0.0,0.0,0.0,0.0,0.0,0.0,0.0,0.0,0.0,0.0,0.0,0.0,0.0,0.0,0.0,3.844,3.9361,4.0452,4.1808,4.2189,4.2303,4.2248,4.2013,4.1605,4.0939,0.0,0.0,0.0,0.0,0.0,0.0,0.0,0.0,0.0,0.0,0.0,0.0,0.0,0.0,0.0,0.0,0.0,0.0,0.0,0.0,0.0,0.0,0.0,0.0,0.0,0.0,0.0,0.0,0.0,0.0,0.0,0.0,0.0,0.0,0.0,0.0,0.0,0.0,0.0,0.0,0.0,0.0,0.0,0.0,0.0,0.0,0.0,0.0,0.0,0.0,0.0,0.0,0.0,0.0,0.0,0.0,0.0,0.0,0.0,0.0,0.0,0.0,0.0,0.0,0.0,0.0,0.0,0.0,0.0,0.0,0.0,0.0,0.0,0.0,0.0,0.0,0.0,0.0,0.0,0.0,0.0,0.0,0.0,0.0,0.0,0.0,0.0,0.0,0.0,0.0,0.0,0.0,0.0,0.0,0.0,0.0,0.0,0.0,0.0,0.0,0.0,0.0,3.9401,4.0445,4.1317,4.2057,4.2903,4.3366,4.3234,4.2489,4.1959,0.0,0.0,0.0,0.0,0.0,0.0,0.0,0.0,0.0,0.0,0.0,0.0,0.0,0.0,0.0,0.0,0.0,0.0,0.0,0.0,0.0,0.0,0.0,0.0,0.0,0.0,0.0,0.0,0.0,0.0,0.0,0.0,0.0,0.0,0.0,0.0,0.0,0.0,0.0,0.0,0.0,0.0,0.0,0.0,0.0,0.0,0.0,0.0,0.0,0.0,0.0,0.0,0.0,0.0,0.0,0.0,0.0,0.0,0.0,0.0,0.0,0.0,0.0,0.0,0.0,0.0,0.0,0.0,0.0,0.0,0.0,0.0,0.0,0.0,0.0,0.0,0.0,0.0,0.0,0.0,0.0,0.0,0.0,0.0,0.0,0.0,0.0,0.0,0.0,0.0,0.0,0.0,0.0,0.0,0.0,0.0,0.0,0.0,0.0,0.0,0.0,0.0,0.0,4.0429,4.1377,4.2468,4.3847,4.4182,4.4285,4.425,4.4056,4.3346,4.2005,0.0,0.0,0.0,0.0,0.0,0.0,0.0,0.0,0.0,0.0,0.0,0.0,0.0,0.0,0.0,0.0,0.0,0.0,0.0,0.0,0.0,0.0,0.0,0.0,0.0,0.0,0.0,0.0,0.0,0.0,0.0,0.0,0.0,0.0,0.0,0.0,0.0,0.0,0.0,0.0,0.0,0.0,0.0,0.0,0.0,0.0,0.0,0.0,0.0,0.0,0.0,0.0,0.0,0.0,0.0,0.0,0.0,0.0,0.0,0.0,0.0,0.0,0.0,0.0,0.0,0.0,0.0,0.0,0.0,0.0,0.0,0.0,0.0,0.0,0.0,0.0,0.0,0.0,0.0,0.0,0.0,0.0,0.0,0.0,0.0,0.0,0.0,0.0,0.0,0.0,0.0,0.0,0.0,0.0,0.0,0.0,0.0,0.0,0.0,0.0,0.0,0.0,4.1423,4.2633,4.376,4.4772,4.517,4.5328,4.5252,4.4941,4.4278,4.3155,0.0,0.0,0.0,0.0,0.0,0.0,0.0,0.0,0.0,0.0,0.0,0.0,0.0,0.0,0.0,0.0,0.0,0.0,0.0,0.0,0.0,0.0,0.0,0.0,0.0,0.0,0.0,0.0,0.0,0.0,0.0,0.0,0.0,0.0,0.0,0.0,0.0,0.0,0.0,0.0,0.0,0.0,0.0,0.0,0.0,0.0,0.0,0.0,0.0,0.0,0.0,0.0,0.0,0.0,0.0,0.0,0.0,0.0,0.0,0.0,0.0,0.0,0.0,0.0,0.0,0.0,0.0,0.0,0.0,0.0,0.0,0.0,0.0,0.0,0.0,0.0,0.0,0.0,0.0,0.0,0.0,0.0,0.0,0.0,0.0,0.0,0.0,0.0,0.0,0.0,0.0,0.0,0.0,0.0,0.0,0.0,0.0,0.0,0.0,0.0,0.0,0.0,4.2509,4.4035,4.5011,4.5128,4.5831,4.6246,4.6115,4.5373,4.4876,4.4708,0.0,0.0,0.0,0.0,0.0,0.0,0.0,0.0,0.0,0.0,0.0,0.0,0.0,0.0,0.0,0.0,0.0,0.0,0.0,0.0,0.0,0.0,0.0,0.0,0.0,0.0,0.0,0.0,0.0,0.0,0.0,0.0,0.0,0.0,0.0,0.0,0.0,0.0,0.0,0.0,0.0,0.0,0.0,0.0,0.0,0.0,0.0,0.0,0.0,0.0,0.0,0.0,0.0,0.0,0.0,0.0,0.0,0.0,0.0,0.0,3.3326,3.2762,0.0,0.0,0.0,0.0,0.0,0.0,0.0,0.0,0.0,0.0,0.0,0.0,0.0,0.0,0.0,0.0,0.0,0.0,0.0,0.0,0.0,0.0,0.0,0.0,0.0,0.0,0.0,0.0,0.0,0.0,0.0,0.0,0.0,0.0,0.0,0.0,0.0,0.0,0.0,0.0,4.4229,4.4776,4.5245,4.5948,4.6184,4.6297,4.6249,4.6093,4.5644,4.4841,4.4587,0.0,0.0,0.0,0.0,0.0,0.0,0.0,0.0,0.0,0.0,0.0,0.0,0.0,0.0,0.0,0.0,0.0,0.0,0.0,0.0,0.0,0.0,0.0,0.0,0.0,0.0,0.0,0.0,0.0,0.0,0.0,0.0,0.0,0.0,0.0,0.0,0.0,0.0,0.0,0.0,0.0,0.0,0.0,0.0,0.0,0.0,0.0,0.0,0.0,0.0,0.0,0.0,0.0,0.0,0.0,0.0,0.0,0.0,0.0,3.5632,3.4531,0.0,0.0,0.0,0.0,0.0,0.0,0.0,0.0,0.0,0.0,0.0,0.0,0.0,0.0,0.0,0.0,0.0,0.0,0.0,0.0,0.0,0.0,0.0,0.0,0.0,0.0,0.0,0.0,0.0,0.0,0.0,0.0,0.0,0.0,0.0,0.0,0.0,0.0,0.0,0.0,4.4894,4.5362,4.5792,4.6262,4.6301,4.6301,4.6301,4.6301,4.6097,4.5567,4.546,0.0,0.0,0.0,0.0,0.0,0.0,0.0,0.0,0.0,0.0,0.0,0.0,0.0,0.0,0.0,0.0,0.0,0.0,0.0,0.0,0.0,0.0,0.0,0.0,0.0,0.0,0.0,0.0,0.0,0.0,0.0,0.0,0.0,0.0,0.0,0.0,0.0,0.0,0.0,0.0,0.0,0.0,0.0,0.0,0.0,0.0,0.0,0.0,0.0,0.0,0.0,0.0,0.0,4.0881,4.1698,4.1698,4.1704,4.1723,4.1601,3.8864,3.7294,3.6758,3.6762,0.0,0.0,0.0,0.0,0.0,0.0,0.0,0.0,0.0,0.0,0.0,0.0,0.0,0.0,0.0,0.0,0.0,0.0,0.0,0.0,0.0,0.0,3.9244,3.9244,3.9396,3.9509,3.9509,0.0,0.0,0.0,0.0,0.0,0.0,0.0,0.0,0.0,0.0,0.0,4.5206,4.5831,4.6301,4.6301,4.6301,4.6301,4.6301,4.6301,4.6301,4.6301,4.6187,4.6114,0.0,0.0,0.0,0.0,0.0,0.0,0.0,0.0,0.0,0.0,0.0,0.0,0.0,0.0,0.0,0.0,0.0,0.0,0.0,0.0,0.0,0.0,0.0,0.0,0.0,0.0,0.0,0.0,0.0,0.0,0.0,0.0,3.3104,3.3104,0.0,0.0,0.0,0.0,0.0,0.0,0.0,0.0,0.0,0.0,0.0,0.0,0.0,4.0122,4.0122,4.1782,4.2621,4.2676,4.4408,4.5231,4.5235,4.5224,4.524,4.5207,4.4768,0.0,4.0224,4.0233,0.0,0.0,0.0,0.0,0.0,0.0,0.0,0.0,0.0,0.0,0.0,0.0,0.0,0.0,0.0,0.0,0.0,0.0,0.0,0.0,0.0,0.0,4.1914,4.1914,4.2493,4.3021,4.3021,4.185,4.0991,4.1732,4.2591,4.3217,0.0,0.0,0.0,0.0,0.0,0.0,4.6027,4.6223,4.6301,4.6301,4.6301,4.6301,4.6301,4.6301,4.6301,4.6301,4.6295,4.6236,4.6102,4.6089,0.0,0.0,0.0,0.0,0.0,0.0,0.0,0.0,0.0,0.0,0.0,0.0,0.0,0.0,0.0,0.0,0.0,0.0,0.0,0.0,0.0,0.0,0.0,0.0,0.0,0.0,0.0,0.0,0.0,3.5237,3.5427,3.5892,3.6751,3.7257,0.0,0.0,0.0,0.0,0.0,0.0,0.0,0.0,0.0,4.3579,4.3618,4.3618,4.3618,4.4814,4.5427,4.5452,4.6704,4.7291,4.7291,4.7309,4.7326,4.7304,4.7304,4.6477,4.5087,4.4134,4.3482,4.3016,0.0,0.0,0.0,0.0,4.2066,4.2377,4.2364,4.2365,4.2351,4.1961,0.0,0.0,0.0,0.0,0.0,0.0,0.0,4.2601,4.3054,4.3492,4.3932,4.436,4.4758,4.5193,4.5662,4.5195,4.4408,4.3338,4.3451,4.3841,4.4348,4.4426,0.0,0.0,0.0,4.587,4.6262,4.6729,4.7041,4.7041,4.7041,4.7041,4.7041,4.6573,4.6301,4.6301,4.6301,4.6253,4.6194,4.6122,4.6084,0.0,0.0,0.0,0.0,0.0,0.0,0.0,0.0,0.0,0.0,0.0,0.0,0.0,0.0,0.0,0.0,0.0,0.0,0.0,0.0,0.0,0.0,0.0,0.0,0.0,0.0,0.0,0.0,3.7456,3.7729,3.8653,3.9747,4.0352,0.0,0.0,0.0,0.0,0.0,0.0,4.4105,4.4186,4.4903,4.6422,4.6461,4.6461,4.6461,4.7312,4.7773,4.7773,4.8856,4.9359,4.9359,4.9359,4.9374,4.9361,4.9128,4.9065,4.8977,4.7313,4.6243,4.5661,4.5495,4.5154,4.4766,4.453,4.4582,4.4788,4.4792,4.4778,4.4757,4.4524,4.429,4.4108,4.416,0.0,0.0,0.0,0.0,4.5062,4.567,4.5873,4.6038,4.662,4.6786,4.6951,4.7578,4.7803,4.7265,4.5381,4.5019,4.5207,4.5869,4.5987,0.0,4.6846,4.6925,4.6925,4.6925,4.751,4.7899,4.7899,4.7899,4.7899,4.7899,4.7315,4.6925,4.6925,4.6925,4.6925,4.6925,4.6657,4.6477,4.6477,0.0,0.0,0.0,0.0,0.0,0.0,0.0,0.0,0.0,0.0,0.0,0.0,0.0,0.0,0.0,0.0,0.0,0.0,0.0,0.0,0.0,0.0,0.0,0.0,0.0,0.0,0.0,0.0,0.0,4.0165,4.1804,0.0,0.0,0.0,0.0,4.4902,4.4881,4.5378,4.6563,4.6615,4.7127,4.8233,4.8275,4.8275,4.8275,4.9126,4.9591,4.9591,5.1219,5.1993,5.1993,5.1993,5.1993,5.1958,5.1138,5.0786,5.0639,4.9051,4.8344,4.8228,4.7411,4.7569,4.8154,4.7333,4.7534,4.8238,4.8231,4.8235,4.8122,4.7265,4.6451,4.5795,4.5762,4.6408,0.0,0.0,4.7772,4.8456,4.8409,4.8452,4.8512,4.8551,4.856,4.8595,4.8634,4.8701,4.8711,4.8555,4.8546,4.8564,4.8603,0.0,4.8603,4.8681,4.8681,4.8681,4.8681,4.872,4.8759,4.8759,4.8759,4.8759,4.8759,4.8681,4.8681,4.8681,4.8681,4.8681,4.8681,4.7937,4.7506,4.7506,4.6725,0.0,0.0,0.0,0.0,0.0,0.0,0.0,0.0,0.0,0.0,0.0,0.0,0.0,0.0,0.0,0.0,0.0,0.0,0.0,0.0,0.0,0.0,0.0,0.0,0.0,0.0,0.0,0.0,4.2537,4.4158,0.0,4.5039,4.6188,4.6892,4.6762,4.6756,4.7182,4.8083,4.8695,4.9501,5.0531,5.111,5.152,5.1679,5.1989,5.2144,5.2144,5.2767,5.3037,5.3037,5.3037,5.3037,5.3037,5.2724,5.2569,5.2531,5.1943,5.0765,4.9238,4.8994,4.8732,4.8458,4.8147,4.8225,4.8496,4.8496,4.8496,4.8458,4.8147,4.7837,4.7566,4.7566,4.78,4.8069,4.8063,4.8326,4.8707,4.9248,4.9401,4.9559,5.0106,5.0262,5.0298,5.0298,5.032,5.0326,5.0334,4.9492,4.8798,4.8798,4.8798,4.8798,4.8798,4.8798,4.8798,4.8798,4.9305,4.9656,4.9656,4.9656,4.9656,4.9656,4.9111,4.8798,4.8798,4.8798,4.8798,4.8798,4.8525,4.8369,4.8369,4.8057,4.79,0.0,0.0,0.0,0.0,0.0,0.0,0.0,0.0,0.0,0.0,0.0,0.0,0.0,0.0,0.0,0.0,0.0,0.0,0.0,0.0,0.0,0.0,0.0,0.0,0.0,4.2873,4.3958,4.491,4.6265,4.7186,4.7359,4.8257,4.8934,4.9106,4.9137,4.9372,5.0006,5.0583,5.1284,5.2072,5.2653,5.303,5.322,5.322,5.322,5.322,5.3528,5.3644,5.3644,5.3644,5.3687,5.379,5.3407,5.3338,5.3493,5.3396,5.2412,5.0983,5.1012,5.0713,5.0167,4.9857,4.9741,4.9702,4.9428,4.9312,4.9312,4.9312,4.9312,4.9312,4.9312,4.9322,4.9332,4.9332,4.9342,4.9508,5.0092,5.0225,5.0397,5.0943,5.1114,5.1166,5.1166,5.1172,5.1163,5.1176,5.0326,4.9608,4.9646,4.9646,4.9644,4.9676,4.9676,4.9674,4.9664,5.0172,5.0523,5.0521,5.0521,5.0558,5.0554,5.0008,4.9696,4.9696,4.9696,4.9696,4.9696,4.9384,4.9227,4.9227,4.8954,4.8798,4.8798,0.0,0.0,0.0,0.0,0.0,0.0,0.0,0.0,0.0,0.0,0.0,0.0,0.0,0.0,0.0,0.0,0.0,0.0,0.0,0.0,0.0,0.0,0.0,4.4981,4.5355,4.5993,4.7116,4.8047,4.8772,4.9321,5.0432,5.1358,5.1872,5.1885,5.1991,5.2262,5.2314,5.2441,5.2743,5.2787,5.2831,5.2844,5.2844,5.2844,5.2882,5.3652,5.404,5.404,5.404,5.4182,5.4446,5.3348,5.313,5.3623,5.3311,5.335,5.3601,5.3532,5.3502,5.3386,5.2535,5.2225,5.2109,5.1289,5.0975,5.0975,5.0975,5.0975,5.0975,5.0975,5.1049,5.1083,5.1083,5.1108,5.1171,5.1171,5.1171,5.1136,5.1136,5.1136,5.1097,5.1097,5.1083,5.1086,5.1086,5.114,5.1201,5.1294,5.1296,5.1308,5.1366,5.1405,0.0,5.1396,5.1436,5.1437,5.1431,5.1469,5.1466,5.1494,5.1493,5.1493,5.1493,5.1493,5.1493,5.1493,5.0672,5.0203,5.0203,4.9385,4.8955,4.8955,0.0,0.0,0.0,0.0,0.0,0.0,0.0,0.0,0.0,0.0,0.0,0.0,0.0,0.0,0.0,0.0,0.0,0.0,0.0,0.0,0.0,4.5952,4.6524,4.5706,4.6584,4.766,4.8548,4.9366,5.0183,5.1041,5.1402,5.1692,5.1893,5.1885,5.1925,5.2021,5.2601,5.3353,5.4181,5.4795,5.5472,5.6325,5.6325,5.6325,5.6325,5.6561,5.6675,5.6675,5.6675,5.6715,5.6786,5.6479,5.641,5.6502,5.5828,5.5611,5.552,5.408,5.3502,5.3463,5.3231,5.3153,5.3115,5.2879,5.2801,5.2801,5.2801,5.2801,5.2801,5.2801,5.2809,5.2821,5.2821,5.2829,5.2837,5.2837,5.2392,5.1988,5.1988,5.1502,5.1097,5.1097,5.1072,5.105,5.1073,5.1098,5.11,5.1213,5.123,5.1235,5.1249,5.1249,5.1252,5.1262,5.1806,5.2206,5.2264,5.285,5.3242,5.3271,5.3308,5.3308,5.3308,5.3308,5.3308,5.3308,5.3073,5.2917,5.2917,5.2683,5.2566,0.0,0.0,0.0,0.0,0.0,0.0,0.0,0.0,0.0,0.0,0.0,0.0,0.0,0.0,0.0,0.0,0.0,0.0,0.0,0.0,0.0,0.0,4.7657,4.8216,4.8164,4.8575,4.9238,5.0055,5.0586,5.1358,5.2605,5.2752,5.3058,5.3792,5.3867,5.3867,5.3867,5.4363,5.4917,5.5526,5.6028,5.6595,5.7278,5.7354,5.737,5.737,5.737,5.737,5.737,5.737,5.7438,5.7511,5.7423,5.7481,5.7662,5.708,5.691,5.6823,0.0,0.0,0.0,0.0,5.3651,5.3356,5.3473,5.3502,5.3502,5.3502,5.3502,5.3502,5.3502,5.3502,5.3502,5.3502,5.3502,5.3502,5.3502,5.317,5.2798,5.2798,5.2469,5.2097,5.2097,5.2082,5.2071,5.2093,5.2078,0.0,5.2144,5.1607,5.117,5.1168,5.1166,5.1174,5.1205,5.1629,5.1954,5.1995,5.2466,5.2789,5.2808,5.2848,0.0,0.0,0.0,5.3511,5.3862,5.3862,0.0,0.0,0.0,5.3862,5.3862,5.3862,0.0,0.0,5.0972,5.1274,0.0,0.0,0.0,0.0,0.0,0.0,0.0,0.0,0.0,0.0,0.0,0.0,0.0,0.0,0.0,0.0,4.9262,4.9856,5.1454,5.1119,5.0998,5.1665,5.1822,5.2502,5.4131,5.4317,5.4969,5.6482,5.6594,5.6594,5.6594,5.6594,0.0,0.0,0.0,5.6874,5.6949,5.7078,5.7123,5.7123,5.7123,5.7123,5.7123,5.7123,5.7253,5.7484,5.7256,5.741,5.7842,5.7521,5.7469,5.7465,5.602,5.5479,5.5435,5.4967,5.4232,5.3533,5.3785,0.0,0.0,5.3764,5.3768,5.3768,5.3768,5.3768,5.3768,5.3768,5.3768,5.3768,5.3768,5.3691,5.3656,5.3656,5.3579,5.3502,5.3502,5.3502,5.3502,5.3502,5.3502,5.3502,5.3502,5.2318,5.136,5.1358,5.1356,5.1377,5.1466,5.1535,5.1611,5.1604,5.1723,0.0,5.1757,5.1798,5.2108,5.2883,5.2922,5.3194,5.3818,5.3857,5.3818,5.3701,5.3818,5.3857,5.3857,5.3935,5.3974,5.3977,5.398,5.4022,0.0,0.0,0.0,0.0,0.0,0.0,0.0,0.0,0.0,0.0,0.0,0.0,0.0,0.0,0.0,5.0636,5.1454,5.2234,5.32,5.3747,5.3905,5.3404,5.3925,5.4743,5.5835,5.5966,5.6126,5.6556,5.6594,5.6594,5.6594,5.6594,5.6893,5.7555,5.7575,5.7893,5.8538,5.8594,5.8604,5.8604,5.8604,0.0,5.8604,5.8604,5.8605,5.8672,5.8633,5.87,5.8856,5.8098,5.7484,5.7079,5.7182,5.7217,5.7185,5.7079,5.6531,5.588,5.6165,5.5794,5.5219,5.5457,5.5505,5.5505,5.5505,5.5505,0.0,5.5505,5.5505,5.5505,5.5505,5.5045,5.4542,5.4542,5.4,5.3502,5.3502,5.3502,5.3502,5.3502,5.3502,5.3502,5.3502,5.3243,5.3031,5.3023,5.3023,5.3027,5.3056,5.3673,5.4107,5.4194,5.4822,5.5252,5.5301,5.5309,5.5385,5.5541,5.558,5.5307,5.4761,5.4761,5.4451,5.3793,5.4412,5.4761,5.4761,5.5463,5.5814,5.5775,5.437,5.4121,0.0,0.0,0.0,0.0,0.0,0.0,0.0,0.0,0.0,0.0,0.0,4.8073,4.929,0.0,5.0711,5.2345,5.294,5.3645,5.4871,5.5753,5.5939,5.5169,5.5429,5.6006,5.6873,5.6948,5.7164,5.7623,5.766,5.766,5.766,5.766,5.7846,5.8256,5.8306,5.8522,5.8942,5.8965,5.8994,5.8994,5.8994,5.8994,5.8994,5.8994,5.8994,5.8994,5.8994,5.9024,5.9072,5.8614,5.8231,5.7978,5.8232,5.7932,5.7316,5.7468,5.7253,5.6961,5.7207,5.7033,5.6673,5.6796,5.6835,5.6835,5.6835,5.6835,5.6901,5.7022,5.7052,5.7,5.6716,5.6356,5.593,5.5505,5.5084,5.4735,5.4735,5.4735,5.4735,5.4735,5.4735,5.4735,5.4735,5.4735,5.4465,5.3618,5.3502,5.3502,5.3502,5.3884,5.4153,5.4199,5.4981,5.5514,5.555,5.633,5.6793,5.6793,5.722,5.7259,5.6832,5.6793,5.6599,5.6214,5.6599,5.6793,5.6793,5.722,5.7457,5.7418,5.6567,5.6222,0.0,0.0,0.0,0.0,0.0,0.0,0.0,4.6847,4.7181,4.8036,4.8816,4.967,5.0627,5.1379,5.2419,5.4007,5.4416,5.4983,5.6357,5.7249,5.7499,5.684,5.6766,5.7026,5.7685,5.7722,5.7982,5.865,5.8687,5.8687,5.8687,5.8687,5.8687,5.8687,5.8807,5.8859,5.8859,5.8922,5.8935,5.8935,5.8935,5.8935,5.8935,5.8935,5.8935,5.8935,5.8955,5.8992,5.8965,5.8984,5.8994,5.8994,5.8994,5.8306,5.732,5.7561,5.751,5.7446,5.7695,5.7689,5.7589,5.7659,5.7641,5.7686,5.77,5.7707,5.7754,5.7943,5.8043,5.8006,5.7569,5.7485,5.7361,5.6665,5.651,5.651,5.651,5.651,5.651,5.651,5.651,5.651,5.651,5.651,5.5973,5.4465,5.4233,5.431,5.4469,5.4507,5.4507,5.4507,5.5122,5.5548,5.5548,5.6786,5.7555,5.7555,5.8217,5.8531,5.8337,5.8337,5.826,5.8105,5.826,5.8337,5.8337,5.8531,5.8608,5.8608,5.8608,5.8292,4.4414,4.5395,4.607,4.6298,4.6364,4.6587,0.0,4.811,4.889,4.9745,5.0562,5.1565,5.3125,5.345,5.4082,5.5763,5.6617,5.7127,5.735,5.8056,5.8539,5.8427,5.8427,5.8465,5.8539,5.8576,5.8613,5.8687,5.8687,5.8687,5.8687,5.8687,5.8687,5.8687,5.8698,5.8708,5.8708,5.8719,5.8729,5.8729,5.8729,5.8729,5.8729,5.8729,5.8729,5.8739,5.8869,5.8909,5.892,5.8992,5.8994,5.8994,5.8994,5.8892,5.8772,5.881,5.8371,5.7782,5.8067,5.7666,5.7127,5.7443,5.7513,5.7527,5.7641,5.7707,5.7713,5.7747,5.7939,5.8083,5.8033,5.8234,5.8415,5.8337,5.8299,5.8299,5.8299,5.8299,5.8299,5.8299,5.8299,5.8299,5.8299,5.8299,5.7985,5.7013,5.6859,5.7129,5.7912,5.8028,5.8028,5.8028,5.8105,5.8183,5.8183,5.8337,5.8453,5.8453,5.8531,5.8255,5.7477,5.7439,5.7091,5.6317,5.7052,5.7439,5.7439,5.8217,5.8608,5.8608,5.8608,5.8553,4.5658,4.6261,4.6624,4.707,4.7553,4.811,4.8927,4.9745,5.045,5.0822,5.1899,5.3014,5.3673,5.4602,5.5652,5.6803,5.7276,5.7658,5.813,5.8502,5.8687,5.8687,5.8687,5.8687,5.8687,5.8687,5.8687,5.8687,5.8687,5.8687,5.8687,5.8687,5.891,5.9393,5.9393,5.9653,6.0147,6.0136,6.0136,6.0136,6.0136,6.0136,6.0136,6.0136,6.0136,6.0147,6.0226,6.0248,6.0248,6.0263,6.0284,6.0284,6.0284,6.0284,6.0193,5.9318,5.8807,5.8528,5.8644,5.8437,5.8211,5.8316,5.8377,5.8386,5.8437,5.8446,5.8488,5.8702,5.8821,5.8818,5.8484,5.8502,5.8476,5.8009,5.7894,5.7975,5.8165,5.8198,5.8242,5.8452,5.8539,5.8558,5.8558,5.8586,5.8647,5.8797,5.8372,5.8178,5.8531,5.8608,5.8802,5.9304,5.9343,5.9537,6.0035,6.0035,6.0035,6.0035,6.0035,5.988,5.9527,5.9527,5.9334,5.8986,5.9334,5.9527,5.9527,5.988,6.0035,6.0035,6.0035,6.0035,4.6661,4.7181,4.7664,4.8221,4.8964,4.9745,5.033,5.1119,5.1714,5.1714,5.2828,5.3933,5.4388,5.5466,5.6655,5.7658,5.7833,5.8019,5.8613,5.8687,5.8687,5.8687,5.8687,5.8687,5.8687,5.8687,5.8687,5.8687,5.8687,5.8799,5.9022,5.9022,5.9393,6.021,6.0248,6.0545,6.1187,6.1187,6.1187,6.1187,6.1187,6.1187,6.1187,6.1187,6.1187,6.1187,6.1187,6.1187,6.1187,6.1187,6.1187,6.1187,6.1187,6.1187,6.1049,6.0,5.9614,5.9614,5.9614,5.9614,5.9614,5.9644,5.9468,5.9318,5.9321,5.9181,5.9053,5.9279,5.9432,5.942,5.897,5.8905,5.8813,5.8235,5.8083,5.8149,5.841,5.8456,5.8515,5.8756,5.8863,5.8891,5.8891,5.8988,5.9292,5.9948,5.9611,5.9272,5.93,5.9304,5.9537,6.0151,6.0228,6.046,6.1041,6.1118,6.1118,6.1118,6.1118,6.1118,6.1118,6.1118,6.1118,6.1118,6.1118,6.1118,6.1118,6.1118,6.1118,6.1118,6.1118,6.1118,4.7664,4.8853,5.0079,5.0042,5.0673,5.1342,5.1342,5.1974,5.2568,5.2568,5.3227,5.4304,5.5912,5.6283,5.684,5.839,5.865,5.865,5.8687,5.8687,5.8687,5.8687,5.8687,5.8687,5.8687,5.8687,5.8687,5.8687,5.8687,5.9022,5.9802,5.9876,6.0248,6.115,6.115,6.1187,6.1187,6.1187,6.1187,6.1187,6.1187,6.1187,6.1187,6.1187,6.1187,6.1187,6.1187,6.1187,6.1187,6.1187,6.1187,6.1187,6.1187,6.1187,6.1187,6.115,6.1123,6.1123,6.1123,6.1123,6.1134,6.1204,6.0714,6.0065,6.015,5.9619,5.8994,5.9014,5.9262,5.952,5.9491,5.9674,5.984,5.984,5.984,5.984,5.9847,5.9847,5.9855,5.9862,5.987,5.987,5.987,6.0119,6.0342,6.038,6.07,6.0962,6.1026,6.1041,6.1041,6.1079,6.1079,6.1079,6.1118,6.1118,6.1118,6.1118,6.1118,6.1118,6.1118,6.1118,6.1118,6.1118,6.1118,6.1118,6.1118,6.1118,6.1118,6.1118,6.1118,6.1118,4.915,4.9707,5.0265,5.0822,5.1565,5.2197,5.2197,5.2828,5.3413,5.3413,5.4044,5.475,5.5345,5.6347,5.7286,5.7833,5.8353,5.8687,5.8687,5.8687,5.8687,5.8687,5.8687,5.8687,5.8687,5.8687,5.8687,5.8687,5.917,5.9616,5.9876,6.0433,6.1139,6.1956,6.1993,6.2253,6.2773,6.2773,6.2773,6.2773,6.2773,6.2773,6.2773,6.2773,6.2773,6.2773,6.2773,6.2773,6.2773,6.2773,6.2773,6.2773,6.2773,6.2773,6.2773,6.2773,6.2773,6.2625,6.1558,6.1187,6.1187,6.1219,6.1055,6.0832,6.0875,6.0662,6.0449,6.0449,6.0553,6.0628,6.0628,6.0691,6.0752,6.0752,6.0752,6.0829,6.1053,6.1107,6.1178,6.138,6.1462,6.1503,6.1503,6.1606,6.1793,6.2034,6.1447,6.1008,6.1044,6.1049,6.1049,6.1049,6.1049,6.1049,6.1049,6.1046,6.1032,6.1032,6.1099,6.1118,6.1118,6.1118,6.1118,6.1118,6.1118,6.1118,6.1118,6.1118,6.1118,6.1118,6.1693,6.1964,4.9959,5.0553,5.111,5.1676,5.2419,5.3051,5.3051,5.3413,5.3784,5.3784,5.4193,5.4676,5.4936,5.5865,5.6793,5.7387,5.7918,5.8353,5.865,5.8687,5.8687,5.8687,5.8687,5.8687,5.8687,5.8687,5.8836,5.9096,5.9616,6.0173,6.0768,6.1325,6.1993,6.281,6.281,6.307,6.359,6.359,6.359,6.359,6.359,6.359,6.359,6.359,6.359,6.359,6.359,6.359,6.359,6.359,6.359,6.359,6.359,6.359,6.359,6.359,6.359,6.3442,6.2402,6.2068,6.2068,6.2068,6.1845,6.1633,6.1633,6.1436,6.1187,6.1187,6.1187,6.1187,6.1187,6.1187,6.1187,6.1187,6.1187,6.1262,6.146,6.1521,6.1602,6.1779,6.1883,6.192,6.192,6.2045,6.2264,6.2597,6.1934,6.1536,6.1852,6.1879,6.1879,6.1879,6.1879,6.1879,6.1879,6.1878,6.1899,6.1899,6.1929,6.1949,6.1949,6.1949,6.1949,6.1949,6.1969,6.1979,6.1979,6.2037,6.2046,6.2046,6.2588,6.2859,5.0182,5.1379,5.2605,5.2642,5.3237,5.3784,5.3784,5.3784,5.3784,5.3757,5.3784,5.4007,5.475,5.4936,5.553,5.709,5.7435,5.7759,5.8539,5.865,5.8687,5.8687,5.8687,5.8687,5.8687,5.8725,5.9096,5.9913,5.9988,6.0693,6.229,6.2439,6.281,6.359,6.359,6.359,6.359,6.359,6.359,6.359,6.359,6.359,6.359,6.359,6.359,6.359,6.359,6.359,6.359,6.359,6.359,6.359,6.359,6.359,6.359,6.359,6.359,6.359,6.359,6.359,6.359,6.359,6.307,6.2439,6.2439,6.193,6.1336,6.1336,6.1336,6.1336,6.1336,6.1336,6.1336,6.1336,6.1336,6.1336,6.1336,6.1336,6.1336,6.1336,6.1336,6.1336,6.1336,6.162,6.1939,6.2266,6.2336,6.2619,6.3335,6.3461,6.3472,6.3472,6.3483,6.3489,6.3489,6.3494,6.3494,6.3494,6.35,6.35,6.35,6.35,6.35,6.35,6.3559,6.3585,6.3585,6.3646,6.3676,6.3715,6.3753,6.3753,5.163,5.2262,5.2754,5.3339,5.3636,5.3784,5.3784,5.3784,5.3645,5.3051,5.3385,5.3673,5.3264,5.4193,5.5122,5.5567,5.6682,5.7583,5.7769,5.8316,5.8687,5.8687,5.8687,5.8687,5.8687,5.9245,5.995,6.0805,6.0879,6.1336,6.2328,6.2959,6.3405,6.359,6.359,6.359,6.359,6.359,6.359,6.359,6.359,6.359,6.359,6.359,6.359,6.359,6.359,6.359,6.359,6.359,6.359,6.359,6.359,6.359,6.359,6.359,6.359,6.359,6.359,6.359,6.359,6.359,6.3442,6.3293,6.3293,6.3145,6.2996,6.2996,6.2996,6.2996,6.2996,6.2996,6.2996,6.2996,6.2996,6.2996,6.2996,6.2996,6.2996,6.2996,6.2996,6.2996,6.2996,6.3312,6.3601,6.3661,6.3905,6.3706,6.2657,6.2792,6.2978,6.2978,6.3207,6.3362,6.3362,6.3409,6.3438,6.3438,6.3477,6.35,6.35,6.35,6.35,6.35,6.3516,6.3521,6.3521,6.3585,6.3616,6.3655,6.4352,6.4682,5.2271,5.2865,5.3237,5.3683,5.3784,5.371,5.3348,5.3274,5.3032,5.2141,5.2392,5.2587,5.2067,5.306,5.4044,5.4416,5.5567,5.6645,5.7387,5.7829,5.8206,5.8577,5.8614,5.8762,5.9144,5.9621,6.0396,6.1622,6.1733,6.2068,6.2885,6.3368,6.359,6.359,6.359,6.359,6.359,6.359,6.359,6.359,6.359,6.3568,6.3522,6.3568,6.3568,6.3522,6.3568,6.359,6.359,6.359,6.359,6.359,6.359,6.359,6.359,6.359,6.359,6.359,6.359,6.359,6.359,6.359,6.359,6.359,6.359,6.359,6.359,6.359,6.359,6.359,6.359,6.359,6.359,6.359,6.359,6.359,6.359,6.359,6.359,6.359,6.359,6.359,6.359,6.3775,6.3958,6.3958,6.4091,6.3865,6.2934,6.3291,6.3624,6.3624,6.3787,6.3891,6.3891,6.4099,6.4231,6.4231,6.4416,6.4538,6.4538,6.4538,6.4538,6.4538,6.4567,6.4584,6.4584,6.4641,6.4629,6.4673,6.5208,6.5466,5.2531,5.3274,5.3784,5.3784,5.372,5.345,5.2754,5.2531,5.2169,5.1223,5.1241,5.1315,5.1074,5.1909,5.2828,5.3524,5.4416,5.553,5.7127,5.7332,5.7603,5.8429,5.8603,5.8974,5.9736,6.0072,6.082,6.2268,6.2443,6.2814,6.3553,6.359,6.359,6.359,6.359,6.359,6.359,6.359,6.3579,6.3568,6.3568,6.3511,6.3359,6.3522,6.3522,6.3394,6.3545,6.3579,6.3568,6.3568,6.3568,6.3568,6.3568,6.3568,6.3568,6.3568,6.3557,6.3545,6.3568,6.3568,6.3568,6.359,6.359,6.359,6.359,6.359,6.359,6.359,6.359,6.359,6.359,6.359,6.359,6.359,6.359,6.359,6.359,6.359,6.359,6.359,6.359,6.359,6.359,6.359,6.359,6.359,6.359,6.359,6.359,6.4194,6.4628,6.4628,6.4672,6.4708,6.4708,6.5025,6.523,6.523,6.5534,6.5755,6.5755,6.5788,6.5808,6.5808,6.5941,6.599,6.599,6.6011,6.5996,6.5996,6.6001,6.6036,5.319,5.3683,5.3784,5.3784,5.3311,5.2791,5.2642,5.2085,5.1352,5.0407,5.0833,5.1166,5.037,5.1501,5.2642,5.2791,5.4044,5.5345,5.6357,5.6961,5.7624,5.8571,5.9213,5.9673,5.9881,6.1041,6.1934,6.2231,6.2757,6.3224,6.3579,6.359,6.359,6.359,6.359,6.359,6.359,6.359,6.3545,6.3417,6.3417,6.3347,6.3218,6.3359,6.3405,6.3394,6.3545,6.3534,6.3417,6.3417,6.3417,6.3417,6.3417,6.3417,6.3417,6.3417,6.3347,6.3302,6.3419,6.3417,6.3465,6.3557,6.359,6.359,6.359,6.359,6.359,6.359,6.359,6.359,6.359,6.359,6.359,6.359,6.359,6.359,6.359,6.359,6.359,6.359,6.359,6.359,6.359,6.359,6.359,6.359,6.359,6.359,6.359,6.4004,6.4281,6.4281,6.451,6.4708,6.4708,6.476,6.4803,6.4803,6.4863,6.4896,6.4896,6.5238,6.5419,6.5419,6.5755,6.5916,6.5916,6.5984,6.602,6.602,6.5984,6.6013,5.3348,5.3784,5.371,5.3264,5.2902,5.2382,5.1482,5.1008,5.0443,4.9454,4.9721,4.9923,4.938,5.0352,5.138,5.1816,5.2892,5.4254,5.5862,5.6356,5.7027,5.8284,5.8747,5.9302,6.0171,6.0995,6.1809,6.2648,6.3033,6.3302,6.35,6.3557,6.3568,6.3511,6.35,6.3477,6.3396,6.3396,6.3373,6.3277,6.3277,6.3242,6.3183,6.3254,6.3277,6.3289,6.3373,6.3373,6.3277,6.3277,6.3277,6.3277,6.3277,6.3277,6.3289,6.3359,6.3347,6.3301,6.3465,6.3511,6.3522,6.3579,6.359,6.359,6.359,6.359,6.359,6.359,6.359,6.359,6.359,6.359,6.359,6.359,6.359,6.359,6.359,6.359,6.359,6.359,6.359,6.359,6.359,6.359,6.359,6.359,6.359,6.359,6.359,6.3753,6.3894,6.3894,6.4019,6.4141,6.4141,6.4311,6.4436,6.4436,6.4592,6.4794,6.5009,6.5214,6.5412,6.5615,6.5795,6.5904,6.5904,6.5935,6.5954,6.5954,6.594,6.6201,5.2902,5.3311,5.3116,5.2494,5.2197,5.1714,5.0404,4.9959,4.9617,4.8762,4.8767,4.882,4.8615,4.9344,5.0268,5.1046,5.1926,5.3277,5.5586,5.5897,5.6467,5.8039,5.8385,0.0,6.052,6.0872,6.1608,6.3036,6.3147,6.3206,6.3336,6.3465,6.3477,6.3347,6.3347,6.3289,6.3183,6.3183,6.3208,6.3147,6.3147,6.3135,6.3099,6.3135,6.3147,6.3147,6.3171,6.3171,6.3147,6.3147,6.3147,6.3147,6.3147,6.3147,6.3159,6.3301,6.3324,6.3324,6.3511,6.3557,6.3557,6.3579,6.359,6.359,6.359,6.359,6.359,6.359,6.359,6.359,6.359,6.359,6.359,6.359,6.359,6.359,6.359,6.359,6.359,6.359,6.359,6.359,6.359,6.359,6.359,6.359,6.359,6.359,6.359,6.359,6.359,6.359,6.359,6.359,6.359,6.3905,6.4067,6.4067,6.4311,6.463,6.4917,6.5073,6.5314,6.5642,6.5801,6.5904,6.5904,6.5904,6.5981,6.6173,6.6173,6.6615,5.1379,5.1602,5.1602,5.1528,5.0933,5.0302,5.019,4.9596,4.8949,4.866,4.8767,4.8803,4.856,4.9335,5.0241,5.0998,5.1841,5.324,5.5586,5.5897,5.6536,5.8197,0.0,0.0,6.066,6.1354,6.2057,6.2953,6.3026,6.3075,6.3194,6.3243,6.3218,6.3206,6.3206,6.3194,6.3183,6.3183,6.3135,6.3026,6.3026,6.2953,6.283,6.2966,6.3026,6.3026,6.3135,6.3123,6.3026,6.3026,6.3026,6.3026,6.3026,6.3026,6.3039,6.3159,6.3135,6.3075,6.3324,6.3405,6.3454,6.3557,6.359,6.359,6.359,6.359,6.359,6.359,6.359,6.359,6.359,6.359,6.359,6.359,6.359,6.359,6.359,6.359,6.359,6.359,6.359,6.359,6.359,6.359,6.359,6.359,6.359,6.359,6.359,6.359,6.359,6.359,6.359,6.359,6.359,6.3635,6.3658,6.3658,6.3702,6.3709,6.3753,6.4407,6.4777,6.4812,6.552,6.5904,6.5904,6.5904,6.6288,6.6981,6.6981,6.7481,5.1156,5.1416,5.1268,5.0748,5.0376,5.0042,4.9522,4.915,4.8838,4.8651,4.8767,4.882,4.8587,4.8873,4.9584,5.0905,5.1329,0.0,5.4659,5.5464,5.6223,5.7298,5.8099,5.9092,6.0415,6.0821,6.1483,6.2769,6.288,6.2904,6.2941,6.3099,6.3147,6.3075,6.3075,6.3039,6.2953,6.2953,6.2929,6.288,6.288,6.2892,6.2917,6.2892,6.2929,6.3002,6.2966,6.2917,6.288,6.288,6.288,6.288,6.288,6.288,6.2892,6.3026,6.3087,6.3135,6.3324,6.3465,6.3534,6.3579,6.359,6.359,6.359,6.359,6.359,6.359,6.359,6.359,6.359,6.359,6.359,6.359,6.359,6.359,6.359,6.359,6.359,6.359,6.359,6.359,6.359,6.359,6.359,6.359,6.359,6.359,6.359,6.359,6.359,6.359,6.359,6.359,6.359,6.359,6.359,6.359,6.359,6.3725,6.3931,6.4241,6.4501,6.4699,6.5261,6.5527,6.5527,6.6281,6.6789,6.7096,6.7628,6.8359,5.0488,5.0673,5.0525,4.9884,4.9764,4.9644,4.903,4.8864,4.8803,4.8651,4.8741,4.8785,4.8569,4.855,4.9039,5.045,5.077,5.1631,5.3749,5.5047,5.6062,5.6712,5.774,5.8877,6.0272,6.0811,6.1582,6.2719,6.2793,6.2793,6.2793,6.2966,6.3026,6.2941,6.2941,6.2892,6.2793,6.2793,6.2793,6.2793,6.2793,6.2842,6.2941,6.2842,6.2842,6.2941,6.283,6.2793,6.2793,6.2793,6.2793,6.2793,6.2793,6.2793,6.2805,6.2953,6.3063,6.3147,6.3277,6.3419,6.3488,6.3534,6.3545,6.3545,6.3579,6.359,6.359,6.359,6.359,6.359,6.359,6.359,6.359,6.359,6.359,6.359,6.359,6.359,6.359,6.359,6.359,6.359,6.359,6.359,6.359,6.359,6.359,6.359,6.359,6.359,6.359,6.359,6.359,6.359,6.359,6.359,6.359,6.359,6.359,6.3747,6.4004,6.4138,6.432,6.4566,6.5308,6.5681,6.5681,6.6912,6.7628,6.7859,6.8513,6.9237,4.8919,4.8927,4.8919,4.8927,4.8857,4.8822,4.8901,4.8857,4.8769,4.8642,4.8696,4.8706,4.8363,4.8419,4.8751,4.9473,5.035,0.0,5.2978,5.4706,5.6062,5.6712,5.8205,5.9526,6.0309,6.1838,6.2793,6.2793,6.2793,6.2793,6.2793,6.2793,6.2793,6.2793,6.2793,6.2793,6.2793,6.2793,6.2793,6.2793,6.2793,6.2793,6.2793,6.2793,6.2793,6.2793,6.2793,6.2793,6.2793,6.2793,6.2793,6.2793,6.2793,6.2793,6.2805,6.2953,6.3002,6.3026,6.3147,6.3183,6.3243,6.3347,6.3394,6.3442,6.3557,6.359,6.359,6.359,6.359,6.359,6.359,6.359,6.359,6.359,6.359,6.359,6.359,6.359,6.359,6.359,6.359,6.359,6.359,6.359,6.359,6.359,6.359,6.359,6.359,6.359,6.359,6.359,6.359,6.359,6.359,6.359,6.359,6.359,6.359,6.359,6.3602,6.3973,6.4219,6.4219,6.5762,6.6606,6.6575,6.7795,6.8814,6.9667,6.9667,7.0129,4.8709,4.8884,4.8873,4.8849,4.8813,4.8804,4.8831,4.8732,4.8651,4.8624,4.8696,4.8751,4.855,4.8541,4.903,5.0403,5.0748,5.1393,5.2957,5.4615,5.5728,5.5952,5.8364,6.0346,6.1153,6.2181,6.2793,6.2793,6.2793,6.2793,6.2793,6.2793,6.2793,6.2793,6.2793,6.2793,6.2793,6.2793,6.2793,6.2793,6.2793,6.2793,6.2793,6.2793,6.2793,6.2793,6.2793,6.2793,6.2793,6.2793,6.2793,6.2793,6.2793,6.2793,6.2805,6.2842,6.2917,6.3014,6.3051,6.3111,6.3231,6.323,6.3312,6.3394,6.3465,6.3534,6.359,6.359,6.359,6.359,6.359,6.359,6.359,6.359,6.359,6.359,6.359,6.359,6.359,6.359,6.359,6.359,6.359,6.359,6.359,6.359,6.359,6.359,6.359,6.359,6.359,6.359,6.359,6.359,6.359,6.359,6.359,6.359,6.359,6.359,6.359,6.3698,6.4047,6.4595,6.5372,6.6209,6.6999,6.8271,6.9426,7.0514,7.0514,7.0667,4.819,4.8624,4.8864,4.8822,4.8769,4.8751,4.8787,4.8687,4.8615,4.8615,4.866,4.866,4.8523,4.8495,4.8937,5.031,5.0672,5.1342,5.2957,5.4583,5.6062,5.7274,5.9171,6.086,6.1961,6.2499,6.2793,6.2793,6.2793,6.2793,6.2793,6.2793,6.2793,6.2793,6.2793,6.2793,6.2793,6.2793,6.2793,6.2793,6.2793,6.2793,6.2793,6.2793,6.2793,6.2793,6.2793,6.2793,0.0,6.2793,6.2793,6.2793,6.2793,6.2793,6.2793,6.2793,6.2842,6.2929,6.2929,6.2978,6.3051,6.3099,6.3206,6.3312,6.3312,6.3465,6.359,6.359,6.359,6.359,6.359,6.359,6.359,6.359,6.359,6.359,6.359,6.359,6.359,6.359,6.359,6.359,6.359,6.359,6.359,6.359,6.359,6.359,6.359,6.359,6.359,6.359,6.359,6.359,6.359,6.359,6.359,6.359,6.359,6.359,6.359,6.3888,6.4296,6.4779,6.5817,6.6789,6.7693,6.9088,7.0177,7.0898,7.0898,7.0898,0.0,4.8259,4.8864,4.8804,4.8678,4.8642,4.876,4.8678,0.0,4.8615,4.8615,4.855,4.8354,4.8306,4.8609,4.9537,5.0335,5.1379,5.3067,5.4656,5.687,6.0015,6.0419,6.1031,6.2646,6.2793,6.2793,6.2793,6.2793,6.2793,6.2793,6.2793,6.2793,6.2793,6.2793,6.2793,6.2793,6.2793,6.2793,6.2793,6.2793,6.2793,6.2793,6.2793,6.2793,6.2793,6.2793,6.2793,6.2793,6.2793,6.2793,6.2793,6.2793,6.2793,6.2793,6.2793,6.2793,6.2793,6.2793,6.2793,6.2818,6.2966,6.3075,6.3171,6.322,6.3396,6.3579,6.3579,6.3579,6.359,6.359,6.359,6.359,6.359,6.359,6.359,6.359,6.359,6.359,6.359,6.359,6.359,6.359,6.359,6.359,6.359,6.359,6.359,6.359,6.359,6.359,6.359,6.359,6.359,6.359,6.359,6.359,6.359,6.359,6.3628,6.3665,6.4408,6.4853,6.4965,6.6983,6.8196,6.8583,7.0141,7.0898,7.0898,7.0898,7.0898,4.655,0.0,4.8847,4.8687,4.8633,4.8624,0.0,0.0,0.0,0.0,0.0,0.0,0.0,4.8457,4.8926,5.036,5.0705,5.1573,5.3812,5.55,5.7471,6.0077,6.0419,6.1031,6.2646,6.2793,6.2793,6.2793,6.2793,6.2793,6.2793,6.2793,6.2793,6.2793,6.2793,6.2793,6.2793,6.2793,6.2793,6.2793,6.2793,6.2793,6.2793,6.2793,6.2793,6.2793,6.2793,6.2793,6.2793,6.2793,6.2793,6.2793,6.2793,6.2793,6.2793,6.2793,6.2793,6.2793,6.2793,6.2793,6.2818,6.2966,6.3026,6.3063,6.3159,6.3338,6.3465,6.3465,6.3522,6.359,6.359,6.359,6.359,6.359,6.359,6.359,6.359,6.359,6.359,6.359,6.359,6.359,6.359,6.359,6.359,6.359,6.359,6.359,6.359,6.359,6.359,6.359,6.359,6.359,6.359,6.359,6.359,6.359,6.359,6.3888,6.4482,6.4705,6.5411,6.6673,6.8418,6.9303,6.9437,7.0402,7.0898,7.0898,7.0898,7.0898,4.629,4.7404,4.8401,4.8549,4.8615,4.8615,4.8615,0.0,0.0,0.0,0.0,0.0,0.0,4.8759,4.9421,5.0652,5.1457,5.2737,5.517,5.6884,5.8535,6.0187,6.075,6.1447,6.2683,6.2793,6.2793,6.2793,6.2793,6.2793,6.2793,6.2793,6.2793,6.2793,6.2793,6.2793,6.2793,6.2793,6.2793,6.2793,6.2793,6.2793,6.2793,6.2793,6.2793,6.2793,6.2793,6.2793,6.2793,6.2793,6.2793,6.2793,6.2793,6.2793,6.2793,6.2793,6.2793,6.2793,6.2793,6.2793,6.2805,6.288,6.3174,6.3517,6.3579,6.3959,6.4228,6.3581,6.3725,6.4079,6.4136,6.4445,6.4742,6.4742,6.4742,6.4742,6.4742,6.4742,6.4742,6.4742,6.4742,6.4742,6.4742,6.4742,6.4742,6.4742,6.4742,6.4742,6.4742,6.4742,6.4742,6.4742,6.4408,6.4148,6.4148,6.3813,6.359,6.359,6.3962,6.4333,6.4779,6.5559,6.6562,6.7825,6.8876,6.9508,6.9702,7.0329,7.0727,7.0898,7.0898,7.0898,4.6252,4.6995,4.7696,4.8401,4.8624,4.8633,4.8578,0.0,0.0,0.0,0.0,0.0,0.0,4.9013,4.9858,5.0655,5.237,5.4315,5.648,5.8205,5.949,6.0297,6.1117,6.1924,6.2719,6.2793,6.2793,6.2793,6.2793,6.2793,6.2793,6.2793,6.2793,6.2793,6.2793,6.2793,6.2793,6.2793,6.2793,6.2793,6.2793,6.2793,6.2793,6.2793,6.2793,6.2793,6.2793,6.2793,6.2793,6.2793,6.2793,6.2793,6.2793,6.2793,6.2793,6.2793,6.2793,6.2829,6.2939,6.3013,6.3013,6.3123,6.3686,6.4273,6.4273,6.4853,6.5262,6.4066,6.4259,6.4813,6.4967,6.5559,6.6079,6.6079,6.6079,6.6079,6.6079,6.6079,6.6079,6.6079,6.6079,6.6079,6.6079,6.6079,6.6079,6.6079,6.6079,6.6079,6.6079,6.6079,6.6079,6.6079,6.5448,6.5002,6.5002,6.4371,6.3962,6.3962,6.4519,6.4928,6.5188,6.6673,6.7788,6.8493,6.8885,6.9313,6.9692,7.0099,7.0524,7.0898,7.0898,7.0898,4.6067,4.6587,4.6991,4.829,4.8678,4.8751,4.8633,0.0,0.0,0.0,0.0,0.0,0.0,4.9013,4.9858,5.0655,5.3298,5.5611,5.6627,5.8205,5.949,6.0297,6.1117,6.1924,6.2719,6.2793,6.2793,6.2793,6.2793,6.2793,6.2793,6.2793,6.2793,6.2793,6.2793,6.2793,6.2793,6.2793,6.2793,6.2793,6.2793,6.2793,6.2793,6.2793,6.2793,6.2793,6.2793,6.2793,6.2793,6.2793,6.2793,6.2793,6.2793,6.2793,6.2793,6.2793,6.2793,6.2903,6.3649,6.3906,6.4016,6.4701,6.4995,6.5118,6.5118,6.5281,6.5458,6.5361,6.5471,6.5654,6.5858,6.6005,6.6079,6.6079,6.6079,6.6079,6.6079,6.6079,6.6079,6.6079,6.6079,6.6079,6.6079,6.6079,6.6079,6.6079,6.6079,6.6079,6.6079,6.6079,6.6079,6.6079,6.5968,6.5893,6.5893,6.5782,6.5708,6.5708,6.5151,6.5448,6.6859,6.7825,6.8382,6.8493,6.8885,6.9313,6.9692,7.0099,7.0524,7.0898,7.0898,7.0898,4.6178,4.6776,4.7339,4.8355,4.8651,4.8669,4.8624,0.0,0.0,0.0,0.0,0.0,0.0,4.9674,5.0959,5.3052,5.463,5.6025,5.7262,5.8829,6.0003,6.037,6.1471,6.2389,6.2756,6.2793,6.2793,6.2793,6.2793,6.2793,6.2793,6.2793,6.2793,6.2793,6.2793,6.2793,6.2793,6.2793,6.2793,6.2793,6.2793,6.2793,6.2793,6.2793,6.2793,6.2793,6.2793,6.2793,6.2793,6.2793,6.2793,6.2793,6.2793,6.2793,6.2866,6.3319,6.3503,6.3613,6.4457,6.4751,6.4824,6.5178,6.5582,6.5962,6.5962,6.636,6.6833,6.6973,6.6766,6.6555,6.6724,6.7082,6.7379,6.7379,6.7379,6.7379,6.7379,6.7379,6.7379,6.7379,6.7379,6.7379,6.7379,6.7379,6.7379,6.7379,6.7379,6.7379,6.7379,6.7379,6.7379,6.7379,6.7008,6.6748,6.6748,6.6339,6.6302,6.6711,6.6376,6.6673,6.7899,6.8308,6.8493,6.8493,6.8695,6.9069,6.9692,6.9887,7.0304,7.0898,7.0898,7.0898,4.629,4.7048,4.7778,4.8484,4.8651,0.0,0.0,0.0,0.0,0.0,0.0,0.0,4.951,5.0592,5.2307,5.5144,5.5768,5.6393,5.7813,5.9391,6.0419,6.0419,6.1802,6.2793,6.2793,6.2793,6.2793,6.2793,6.2793,6.2793,6.2793,6.2793,6.2793,6.2793,6.2793,6.2793,6.2793,6.2793,6.2793,6.2793,6.2793,6.2793,6.2793,6.2793,6.2793,6.2793,6.2793,6.2793,6.2793,6.2793,6.2793,6.2793,6.2793,6.2903,6.3196,6.3833,6.4213,6.4494,6.5301,6.5582,6.5632,6.5802,6.6292,6.6769,6.6769,6.7316,6.7939,6.8006,6.7752,6.7419,6.7541,6.8048,6.8493,6.8493,6.8493,6.8493,6.8493,6.8493,6.8493,6.8493,6.8493,6.8493,6.8493,6.8493,6.8493,6.8493,6.8493,6.8493,6.8493,6.8493,6.8493,6.8493,6.7936,6.7565,6.7565,6.7008,6.6933,6.7528,6.7565,6.7862,6.8456,6.8493,6.8493,6.8493,6.8493,6.8911,6.9692,6.9692,7.0099,7.0898,7.0898,7.0898,4.629,4.7048,4.7795,4.8601,4.8787,0.0,4.8541,4.8532,0.0,4.8504,0.0,0.0,4.9574,5.1463,5.3581,5.5328,5.6235,5.6994,5.7886,5.9391,6.0419,6.0419,6.1802,6.2793,6.2793,6.2793,6.2793,6.2793,6.2793,6.2793,6.2793,6.2793,6.2793,6.2793,6.2793,6.2793,6.2793,6.2793,6.2793,6.2793,6.2793,6.2793,6.2793,6.2793,6.2793,6.2793,6.2793,6.2793,6.2793,6.2793,6.2793,6.2793,6.2793,6.3282,6.4029,6.4066,6.4567,6.5325,6.6145,6.6402,6.6549,6.7297,6.759,6.7627,6.7627,6.777,6.7913,6.7926,6.807,6.826,6.8383,6.8456,6.8493,6.8493,6.8493,6.8493,6.8493,6.8493,6.8493,6.8493,6.8493,6.8493,6.8493,6.8493,6.8493,6.8493,6.8493,6.8493,6.8493,6.8493,6.8493,6.8493,6.8456,6.8419,6.8419,6.8345,6.8345,6.8419,6.8419,6.8456,6.8493,6.8493,6.8493,6.8493,6.8493,6.8911,6.9692,6.9692,7.0099,7.0898,7.0898,7.0898,4.7033,4.771,4.8317,4.8704,4.8697,0.0,0.0,4.888,4.9193,4.9191,4.9804,0.0,5.1646,5.3004,5.4473,5.6088,5.659,5.7079,5.7886,5.9391,6.0419,6.0419,6.1802,6.2793,6.2793,6.2793,6.2793,6.2793,6.2793,6.2793,6.2793,6.2793,6.2793,6.2793,6.2793,6.2793,6.2793,6.2793,6.2793,6.2793,6.2793,6.2793,6.2793,6.2793,6.2793,6.2793,6.2793,6.2793,6.2793,6.2793,6.2793,6.2866,6.3392,6.3796,6.4213,6.5228,6.5778,6.6145,6.6953,6.726,6.7297,6.759,6.77,6.77,6.77,6.7794,6.7913,6.7913,6.8094,6.8309,6.8358,6.8432,6.8493,6.8493,6.8493,6.8493,6.8493,6.8493,6.8493,6.8493,6.8493,6.8493,6.8493,6.8493,6.8493,6.8493,6.8493,6.8493,6.8493,6.8493,6.8493,6.8493,6.8493,6.8493,6.8493,6.8493,6.8493,6.8493,6.8493,6.8493,6.8493,6.8728,6.8851,6.8851,6.9101,6.9416,6.9692,6.995,7.0247,7.054,7.0777,7.0898,4.7478,4.8183,4.8669,4.8705,0.0,0.0,4.8788,4.9228,4.9713,4.9941,5.0802,5.1966,5.3324,5.4436,5.5537,5.6627,5.6994,5.7373,5.7923,5.9391,6.0419,6.0419,6.1802,6.2793,6.2793,6.2793,6.2793,6.2793,6.2793,6.2793,6.2793,6.2793,6.2793,6.2793,6.2793,6.2793,6.2793,6.2793,6.2793,6.2793,6.2793,6.2793,6.2793,6.2793,6.2793,6.2793,6.2793,6.2793,6.2793,6.2793,6.2793,6.2903,6.3759,6.4249,6.464,6.5999,6.6659,6.6966,6.7517,6.77,6.77,6.77,6.77,6.77,6.77,6.7767,6.7847,6.7847,6.8004,6.8183,6.8234,6.8371,6.8493,6.8493,6.8493,6.8493,6.8493,6.8493,6.8493,6.8493,6.8493,6.8493,6.8493,6.8493,6.8493,6.8493,6.8493,6.8493,6.8493,6.8493,6.8493,6.8493,6.8493,6.8493,6.8493,6.8493,6.8493,6.8493,6.8493,6.8566,6.8695,6.8952,6.9166,6.9303,6.9557,6.9758,6.9887,7.015,7.0369,7.0517,7.0769,7.0898,4.7478,4.8227,4.8769,4.8642,0.0,0.0,4.9446,4.9642,4.9938,5.0675,5.2113,5.3471,5.4252,5.5721,5.6811,5.6811,5.7483,5.7997,5.7997,5.9391,6.0419,6.0419,6.1802,6.2793,6.2793,6.2793,6.2793,6.2793,6.2793,6.2793,6.2793,6.2793,6.2793,6.2793,6.2793,6.2793,6.2793,6.2793,6.2793,6.2793,6.2793,6.2793,6.2793,6.2793,6.2793,6.2793,6.2793,6.2793,6.2793,6.2793,6.2793,6.2903,6.3759,6.4604,6.5398,6.6219,6.704,6.77,6.77,6.77,6.77,6.77,6.77,6.77,6.77,6.77,6.77,6.77,6.7807,6.7939,6.8044,6.8309,6.8493,6.8493,6.8493,6.8493,6.8493,6.8493,6.8493,6.8493,6.8493,6.8493,6.8493,6.8493,6.8493,6.8493,6.8493,6.8493,6.8493,6.8493,6.8493,6.8493,6.8493,6.8493,6.8493,6.8493,6.8493,6.8493,6.8493,6.8695,6.9069,6.9101,6.9275,6.9692,6.9711,6.9905,7.0312,7.032,7.0524,7.0891,7.0898,7.0898,4.8107,4.8547,4.8669,4.8742,0.0,0.0,0.0,5.0564,0.0,0.0,5.3324,5.4289,5.5108,5.6088,5.7005,5.7556,5.785,5.7997,5.7997,5.9391,6.0419,6.0419,6.1802,6.2793,6.2793,6.2793,6.2793,6.2793,6.2793,6.2793,6.2793,6.2793,6.2793,6.2793,6.2793,6.2793,6.2793,6.2793,6.2793,6.2793,6.2793,6.2793,6.2793,6.2793,6.2793,6.2793,6.2793,6.2793,6.2793,6.2793,6.316,6.3796,6.464,6.5448,6.6256,6.704,6.7517,6.77,6.77,6.77,6.77,6.77,6.77,6.77,6.77,6.77,6.77,6.77,6.7807,6.7926,6.7965,6.817,6.8383,6.8469,6.8493,6.8493,6.8493,6.8493,6.8493,6.8493,6.8493,6.8493,6.8493,6.8493,6.8493,6.8493,6.8493,6.8493,6.8493,6.8493,6.8493,6.8493,6.8493,6.8493,6.8493,6.8493,6.8493,6.8493,6.8493,6.8695,6.9069,6.9358,6.9711,7.0107,7.0393,7.0448,7.0312,7.0585,7.063,7.0463,7.0762,7.0898,4.8486,4.8741,4.8687,4.8778,4.8818,4.9301,5.1045,0.0,0.0,5.3398,5.4326,5.5133,5.5941,5.6748,5.7446,5.7923,5.7997,5.7997,5.7997,5.9391,6.0419,6.0419,6.1802,6.2793,6.2793,6.2793,6.2793,6.2793,6.2793,6.2793,6.2793,6.2793,6.2793,6.2793,6.2793,6.2793,6.2793,6.2793,6.2793,6.2793,6.2793,6.2793,6.2793,6.2793,6.2793,6.2793,6.2793,6.2793,6.2829,6.3172,6.3613,6.4213,6.5338,6.6072,6.6586,6.7407,6.77,6.77,6.77,6.77,6.77,6.77,6.77,6.77,6.77,6.77,6.77,6.77,6.7767,6.7847,6.7899,6.803,6.8196,6.8371,6.8457,6.8493,6.8493,6.8493,6.8493,6.8493,6.8493,6.8493,6.8493,6.8493,6.8493,6.8493,6.8493,6.8493,6.8493,6.8493,6.8493,6.8493,6.8493,6.8493,6.8493,6.8493,6.8493,6.8493,6.8493,6.8695,6.9069,6.9478,6.9887,7.0304,7.0712,7.0769,7.0547,7.0777,7.0769,7.0555,7.0777,7.0898,4.8641,4.8849,4.8796,4.8769,4.9298,5.0196,5.1677,5.2637,5.3434,5.4216,5.5034,5.5842,5.6627,5.7446,5.7997,5.7997,5.7997,5.7997,5.7997,5.9318,6.0309,6.037,6.1765,6.2719,6.2793,6.2793,6.2793,6.2793,6.2793,6.2793,6.2793,6.2793,6.2793,6.2793,6.2793,6.2793,6.2793,6.2793,6.2793,6.2793,6.2793,6.2793,6.2793,6.2793,6.2793,6.2793,6.2793,6.2793,6.2866,6.3723,6.4139,6.436,6.5888,6.6549,6.6696,6.7444,6.77,6.77,6.77,6.77,6.77,6.77,6.77,6.77,6.77,6.77,6.77,6.77,6.77,6.7727,6.786,6.7899,6.7978,6.8221,6.8383,6.8481,6.8493,6.8493,6.8493,6.8493,6.8493,6.8493,6.8493,6.8493,6.8493,6.8493,6.8493,6.8493,6.8493,6.8493,6.8493,6.8493,6.8493,6.8493,6.8493,6.8493,6.8493,6.8493,6.8493,6.8672,6.9014,6.9459,6.9887,7.0304,7.0712,7.0898,7.0898,7.0898,7.0898,7.0898,7.0898,7.0898,4.8492,4.8714,4.876,4.8597,4.96,5.0868,5.1787,5.2637,5.3434,5.4216,5.5034,5.5842,5.6627,5.7446,5.7997,5.7997,5.7997,5.7997,5.7997,5.8829,5.9673,6.0309,6.1263,6.2108,6.2756,6.2793,6.2793,6.2793,6.2793,6.2793,6.2793,6.2793,6.2793,6.2793,6.2793,6.2793,6.2793,6.2793,6.2793,6.2793,6.2793,6.2793,6.2793,6.2793,6.2793,6.2793,6.2793,6.2793,6.2866,6.3723,6.4457,6.5141,6.6109,6.688,6.748,6.7627,6.77,6.77,6.77,6.77,6.77,6.77,6.77,6.77,6.77,6.77,6.77,6.77,6.77,6.7714,6.7741,6.7834,6.7952,6.8083,6.8246,6.8371,6.8469,6.8493,6.8493,6.8493,6.8493,6.8493,6.8493,6.8493,6.8493,6.8493,6.8493,6.8493,6.8493,6.8493,6.8493,6.8493,6.8493,6.8493,6.8493,6.8493,6.8493,6.8493,6.8493,6.8542,6.8624,6.9334,6.9887,7.0304,7.0712,7.0898,7.0898,7.0898,7.0898,7.0898,7.0898,7.0898,4.8612,4.876,4.8853,4.902,4.9994,5.1079,5.1824,5.2637,5.3434,5.4216,5.5034,5.5842,5.6627,5.7446,5.7997,5.7997,5.7997,5.7997,5.7997,5.8682,5.949,6.0297,6.1117,6.1924,6.2719,6.2793,6.2793,6.2793,6.2793,6.2793,6.2793,6.2793,6.2793,6.2793,6.2793,6.2793,6.2793,6.2793,6.2793,6.2793,6.2793,6.2793,6.2793,6.2793,6.2793,6.2793,6.2793,6.305,6.3503,6.4347,6.5154,6.5962,6.6769,6.7333,6.77,6.77,6.77,6.77,6.77,6.77,6.77,6.77,6.77,6.77,6.77,6.77,6.77,6.77,6.77,6.77,6.77,6.7754,6.786,6.8031,6.8208,6.8334,6.8469,6.8493,6.8493,6.8493,6.8493,6.8493,6.8493,6.8493,6.8493,6.8493,6.8493,6.8493,6.8493,6.8493,6.8493,6.8493,6.8493,6.8493,6.8493,6.8493,6.8493,6.8493,6.8493,6.8493,6.8493,6.9271,6.9796,7.0003,7.0593,7.0898,7.0898,7.0898,7.0898,7.0898,7.0898,7.0898,4.8822,4.8769,4.8891,4.9546,5.0289,5.1076,5.1814,5.2637,5.3398,5.4069,5.495,5.5842,5.6627,5.7446,5.7997,5.7997,5.7997,5.7997,5.7997,5.8572,5.9306,6.0114,6.0896,6.1704,6.2499,6.2719,6.2793,6.2793,6.2793,6.2793,6.2793,6.2793,6.2793,6.2793,6.2793,6.2793,6.2793,6.2793,6.2793,6.2793,6.2793,6.2793,6.2793,6.2793,6.2793,6.2793,6.2793,6.3282,6.4176,6.4971,6.5765,6.6586,6.7407,6.77,6.77,6.77,6.77,6.77,6.77,6.77,6.77,6.77,6.77,6.77,6.77,6.77,6.77,6.77,6.77,6.77,6.77,6.77,6.7767,6.8055,6.8196,6.8309,6.8457,6.8493,6.8493,6.8493,6.8493,6.8493,6.8493,6.8493,6.8493,6.8493,6.8493,6.8493,6.8493,6.8493,6.8493,6.8493,6.8493,6.8493,6.8493,6.8493,6.8493,6.8493,6.8493,6.8493,6.8493,6.9271,6.9692,6.9692,7.0501,7.0898,7.0898,7.0898,7.0898,7.0898,7.0898,7.0898,4.8822,0.0,4.8725,0.0,5.0289,5.1032,5.1803,5.2637,5.3214,5.3324,5.4546,5.5842,5.6627,5.7446,5.7997,5.7997,5.7997,5.7997,5.7997,5.8107,5.8474,5.9269,6.0077,6.0896,6.1667,6.2389,6.2793,6.2793,6.2793,6.2793,6.2793,6.2793,6.2793,6.2793,6.2793,6.2793,6.2793,6.2793,6.2793,6.2793,6.2793,6.2793,6.2793,6.2793,6.2793,6.2793,6.2793,6.3282,6.4176,6.4971,6.5765,6.6586,6.7407,6.77,6.77,6.77,6.77,6.77,6.77,6.77,6.77,6.77,6.77,6.77,6.77,6.77,6.77,6.77,6.77,6.77,6.77,6.77,6.7767,6.8055,6.8095,6.8208,6.8445,6.8493,6.8493,6.8493,6.8493,6.8493,6.8493,6.8493,6.8493,6.8493,6.8493,6.8493,6.8493,6.8493,6.8493,6.8493,6.8493,6.8493,6.8493,6.8493,6.8493,6.8493,6.8493,6.8493,6.8493,6.9271,6.9692,6.9692,7.0501,7.0898,7.0898,7.0898,7.0898,7.0898,7.0898,7.0898,4.8838,4.8696,4.8661,0.0,4.9996,5.0936,5.1253,5.2307,5.3214,5.3214,5.4106,5.517,5.5978,5.6785,5.7483,5.7923,5.7997,5.7997,5.7997,5.7997,5.829,5.9086,5.9893,6.0713,6.1533,6.2328,6.2793,6.2793,6.2793,6.2793,6.2793,6.2793,6.2793,6.2793,6.2793,6.2793,6.2793,6.2793,6.2793,6.2793,6.2793,6.2793,6.2793,6.2793,6.2793,6.2829,6.3319,6.4016,6.4824,6.5632,6.6439,6.7223,6.7554,6.77,6.77,6.77,6.77,6.77,6.77,6.77,6.77,6.77,6.77,6.77,6.77,6.77,6.77,6.77,6.77,6.77,6.77,6.77,6.7754,6.7928,6.8068,6.8133,6.8346,6.8445,6.8493,6.8493,6.8493,6.8493,6.8493,6.8493,6.8493,6.8493,6.8493,6.8493,6.8493,6.8493,6.8493,6.8493,6.8493,6.8493,6.8493,6.8493,6.8493,6.8493,6.8493,6.8493,6.8493,6.9271,6.9692,6.9692,7.0501,7.0898,7.0898,7.0898,7.0898,7.0898,7.0898,7.0898,4.889,0.0,4.8615,4.8615,4.9583,5.0598,5.0739,5.1903,5.2957,5.3177,5.3691,5.4326,5.5144,5.6124,5.6994,5.7593,5.7886,5.7997,5.7997,5.7997,5.8217,5.8829,5.96,6.0419,6.1227,6.2034,6.2572,6.2793,6.2793,6.2793,6.2793,6.2793,6.2793,6.2793,6.2793,6.2793,6.2793,6.2793,6.2793,6.2793,6.2793,6.2793,6.2793,6.2793,6.2903,6.3172,6.3796,6.4567,6.5362,6.6182,6.6953,6.77,6.77,6.77,6.77,6.77,6.77,6.77,6.77,6.77,6.77,6.77,6.77,6.77,6.77,6.77,6.77,6.77,6.77,6.77,6.77,6.77,6.7741,6.7873,6.798,6.8158,6.8309,6.842,6.8493,6.8493,6.8493,6.8493,6.8493,6.8493,6.8493,6.8493,6.8493,6.8493,6.8493,6.8493,6.8493,6.8493,6.8493,6.8493,6.8493,6.8493,6.8493,6.8493,6.8493,6.8493,6.8493,6.9271,6.9692,6.9692,7.0501,7.0898,7.0898,7.0898,7.0898,7.0898,7.0898,7.0898,0.0,4.8759,0.0,4.8615,4.913,4.9867,5.0618,5.1463,5.227,5.3031,5.3214,5.3508,5.4326,5.5757,5.6811,5.6847,5.7483,5.7997,5.7997,5.7997,5.8033,5.807,5.8756,5.96,6.0382,6.119,6.1998,6.2756,6.2793,6.2793,6.2793,6.2793,6.2793,6.2793,6.2793,6.2793,6.2793,6.2793,6.2793,6.2793,6.2793,6.2793,6.2793,6.2793,6.3246,6.4029,6.4066,6.4567,6.5362,6.6182,6.6953,6.77,6.77,6.77,6.77,6.77,6.77,6.77,6.77,6.77,6.77,6.77,6.77,6.77,6.77,6.77,6.77,6.77,6.77,6.77,6.77,6.77,6.7741,6.7873,6.798,6.8159,6.8432,6.8493,6.8493,6.8493,6.8493,6.8493,6.8493,6.8493,6.8493,6.8493,6.8493,6.8493,6.8493,6.8493,6.8493,6.8493,6.8493,6.8493,6.8493,6.8493,6.8493,6.8493,6.8493,6.8493,6.8493,6.9271,6.9692,6.9692,7.0501,7.0898,7.0898,7.0898,7.0898,7.0898,7.0898,7.0898,0.0,0.0,0.0,4.8723,4.9224,4.9913,5.0681,5.144,5.2234,5.3031,5.3214,5.3287,5.3581,5.495,5.6198,5.6701,5.7483,5.7997,5.7997,5.7997,5.7997,5.7997,5.8719,5.9526,6.0309,6.1117,6.1924,6.2756,6.2793,6.2793,6.2793,6.2793,6.2793,6.2793,6.2793,6.2793,6.2793,6.2793,6.2793,6.2793,6.2793,6.2793,6.2793,6.2793,6.3282,6.4139,6.464,6.5338,6.6145,6.6953,6.7444,6.77,6.77,6.77,6.77,6.77,6.77,6.77,6.77,6.77,6.77,6.77,6.77,6.77,6.77,6.77,6.77,6.77,6.77,6.77,6.77,6.77,6.7767,6.7991,6.8094,6.8159,6.8445,6.8493,6.8493,6.8493,6.8493,6.8493,6.8493,6.8493,6.8493,6.8493,6.8493,6.8493,6.8493,6.8493,6.8493,6.8493,6.8493,6.8493,6.8493,6.8493,6.8493,6.8493,6.8493,6.8493,6.8493,6.9271,6.9692,6.9692,7.0501,7.0898,7.0898,7.0898,7.0898,7.0898,7.0898,7.0898,4.889,0.0,0.0,4.8804,4.9085,4.9676,5.0667,5.127,5.1918,5.2968,5.3214,5.3214,5.3214,5.4289,5.5464,5.6271,5.7079,5.7703,5.796,5.7997,5.7997,5.7997,5.8462,5.9123,5.993,6.0713,6.152,6.2352,6.2646,6.2793,6.2793,6.2793,6.2793,6.2793,6.2793,6.2793,6.2793,6.2793,6.2793,6.2793,6.2793,6.2793,6.2793,6.2793,6.3417,6.453,6.5081,6.5778,6.6549,6.737,6.77,6.77,6.77,6.77,6.77,6.77,6.77,6.77,6.77,6.77,6.77,6.77,6.77,6.77,6.77,6.77,6.77,6.77,6.77,6.77,6.77,6.7741,6.7834,6.8068,6.8121,6.8234,6.8445,6.8493,6.8493,6.8493,6.8493,6.8493,6.8493,6.8493,6.8493,6.8493,6.8493,6.8493,6.8493,6.8493,6.8493,6.8493,6.8493,6.8493,6.8493,6.8493,6.8493,6.8493,6.8493,6.8566,6.8707,6.9354,6.9758,6.9896,7.0563,7.0898,7.0898,7.0898,7.0898,7.0898,7.0898,7.0898,0.0,0.0,0.0,4.8796,4.8687,4.8993,5.0529,5.0888,5.1337,5.2842,5.3177,5.3214,5.3214,5.3849,5.462,5.5438,5.6271,5.7068,5.785,5.7997,5.7997,5.7997,5.7997,5.8327,5.9123,5.993,6.075,6.152,6.2365,6.2793,6.2793,6.2793,6.2793,6.2793,6.2793,6.2793,6.2793,6.2793,6.2793,6.2793,6.2793,6.2793,6.2793,6.2793,6.371,6.5288,6.5288,6.5765,6.6586,6.737,6.77,6.77,6.77,6.77,6.77,6.77,6.77,6.77,6.77,6.77,6.77,6.77,6.77,6.77,6.77,6.77,6.77,6.77,6.77,6.77,6.77,6.7807,6.7952,6.8094,6.8208,6.8334,6.8469,6.8493,6.8493,6.8493,6.8493,6.8493,6.8493,6.8493,6.8493,6.8493,6.8493,6.8493,6.8493,6.8493,6.8493,6.8493,6.8493,6.8493,6.8493,6.8493,6.8493,6.8493,6.8493,6.8695,6.9069,6.9478,6.9887,7.0304,7.0712,7.0898,7.0898,7.0898,7.0898,7.0898,7.0898,7.0898,4.889,0.0,0.0,0.0,0.0,0.0,5.0028,5.057,5.1199,5.22,5.2826,5.3214,5.3214,5.3398,5.3801,5.4583,5.5904,5.6884,5.7116,5.7629,5.7997,5.7997,5.7997,5.8327,5.9123,5.993,6.075,6.152,6.2365,6.2793,6.2793,6.2793,6.2793,6.2793,6.2793,6.2793,6.2793,6.2793,6.2793,6.2793,6.2793,6.2793,6.2793,6.2793,6.371,6.5288,6.5288,6.6109,6.7407,6.7627,6.77,6.77,6.77,6.77,6.77,6.77,6.77,6.77,6.77,6.77,6.77,6.77,6.77,6.77,6.77,6.77,6.77,6.77,6.77,6.77,6.77,6.7807,6.7952,6.8094,6.8208,6.8334,6.8469,6.8493,6.8493,6.8493,6.8493,6.8493,6.8493,6.8493,6.8493,6.8493,6.8493,6.8493,6.8493,6.8493,6.8493,6.8493,6.8493,6.8493,6.8493,6.8493,6.8493,6.8493,6.8493,6.8695,6.9069,6.9478,6.9887,7.0304,7.0712,7.0898,7.0898,7.0898,7.0898,7.0898,7.0898,7.0898,0.0,0.0,0.0,0.0,0.0,0.0,4.9815,5.0527,5.1244,5.2025,5.2735,5.3251,5.3251,5.3209,5.3361,5.3801,5.4987,5.6051,5.6701,5.7483,5.7997,5.7997,5.7997,5.818,5.8646,5.971,6.0603,6.1043,6.2169,6.2793,6.2793,6.2793,6.2793,6.2793,6.2793,6.2793,6.2793,6.2793,6.2793,6.2793,6.2793,6.2793,6.2793,6.2793,6.371,6.5288,6.5288,6.6219,6.77,6.77,6.77,6.77,6.77,6.77,6.77,6.77,6.77,6.77,6.77,6.77,6.77,6.77,6.77,6.77,6.77,6.77,6.77,6.77,6.77,6.77,6.77,6.7847,6.798,6.807,6.8259,6.8396,6.8481,6.8493,6.8493,6.8493,6.8493,6.8493,6.8493,6.8493,6.8493,6.8493,6.8493,6.8493,6.8493,6.8493,6.8493,6.8493,6.8493,6.8493,6.8493,6.8493,6.8493,6.8493,6.8493,6.874,6.9344,6.9567,6.9959,7.0547,7.0769,7.0898,7.0898,7.0898,7.0898,7.0898,7.0898,7.0898,0.0,0.0,0.0,0.0,4.889,0.0,4.9731,5.0556,5.137,5.2033,5.2773,5.3308,5.3308,5.3261,5.3198,5.3198,5.3896,5.4924,5.6455,5.7373,5.7886,5.7997,5.7997,5.7997,5.7997,5.9391,6.0297,6.037,6.1875,6.2793,6.2793,6.2793,6.2793,6.2793,6.2793,6.2793,6.2793,6.2793,6.2793,6.2793,6.2793,6.2793,6.2793,6.2793,6.371,6.5288,6.5288,6.6219,6.77,6.77,6.77,6.77,6.77,6.77,6.77,6.77,6.77,6.77,6.77,6.77,6.77,6.77,6.77,6.77,6.77,6.77,6.77,6.77,6.77,6.77,6.77,6.7913,6.8083,6.8083,6.8309,6.8493,6.8493,6.8493,6.8493,6.8493,6.8493,6.8493,6.8493,6.8493,6.8493,6.8493,6.8493,6.8493,6.8493,6.8493,6.8493,6.8493,6.8493,6.8493,6.8493,6.8493,6.8493,6.8493,6.8542,6.8897,6.9664,6.974,7.0107,7.0885,7.0898,7.0898,7.0898,7.0898,7.0898,7.0898,7.0898,7.0898,0.0,0.0,0.0,0.0,4.889,0.0,4.9087,5.0194,5.124,5.1379,5.2407,5.3308,5.3308,5.3297,5.3277,5.3277,5.3949,5.4801,5.5706,5.6528,5.7262,5.7923,5.7997,5.7997,5.7997,5.8866,5.971,6.0346,6.1875,6.2793,6.2793,6.2793,6.2793,6.2793,6.2793,6.2793,6.2793,6.2793,6.2793,6.2793,6.2793,6.2793,6.2793,6.2793,6.371,6.5288,6.5288,6.6219,6.77,6.77,6.77,6.77,6.77,6.77,6.77,6.77,6.77,6.77,6.77,6.77,6.77,6.77,6.77,6.77,6.77,6.77,6.77,6.77,6.77,6.77,6.77,6.7913,6.8083,6.8083,6.8309,6.8493,6.8493,6.8493,6.8493,6.8493,6.8493,6.8493,6.8493,6.8493,6.8493,6.8493,6.8493,6.8493,6.8493,6.8493,6.8493,6.8493,6.8493,6.8493,6.8493,6.8493,6.8493,6.8493,6.8809,6.9198,6.9673,7.0012,7.04,7.0891,7.0898,7.0898,7.0898,7.0898,7.0898,7.0898,7.0898,7.0898,0.0,0.0,0.0,5.0153,5.0153,0.0,0.0,5.1074,5.189,5.189,5.2766,5.3508,5.3508,5.343,5.34,5.34,5.368,5.4181,5.4937,5.6048,5.6957,5.7336,5.7776,5.7997,5.7997,5.8719,5.971,6.0896,6.2132,6.2793,6.2793,6.2793,6.2793,6.2793,6.2793,6.2793,6.2793,6.2793,6.2793,6.2793,6.2793,6.2793,6.2793,6.2793,6.371,6.5288,6.5288,6.6219,6.77,6.77,6.77,6.77,6.77,6.77,6.77,6.77,6.77,6.77,6.77,6.77,6.77,6.77,6.77,6.77,6.77,6.77,6.77,6.77,6.77,6.7714,6.7794,6.7965,6.8132,6.8196,6.8358,6.8493,6.8493,6.8493,6.8493,6.8493,6.8493,6.8493,6.8493,6.8493,6.8493,6.8493,6.8493,6.8493,6.8493,6.8493,6.8493,6.8493,6.8493,6.8493,6.8493,6.8493,6.8602,6.8786,6.8997,6.9358,6.9977,7.0175,7.0471,7.0891,7.0898,7.0898,7.0898,7.0898,7.0898,7.0898,7.0898,7.0898,0.0,0.0,0.0,0.0,0.0,5.1416,0.0,0.0,0.0,5.2605,5.3188,5.3704,5.3704,5.3608,5.3474,5.3326,5.332,5.3564,5.4043,5.5389,5.6477,5.6737,5.7373,5.7813,5.796,5.8719,5.9783,6.1263,6.2108,6.2646,6.2793,6.2793,6.2793,6.2793,6.2793,6.2793,6.2793,6.2793,6.2793,6.2793,6.2793,6.2793,6.2793,6.2976,6.3857,6.5288,6.5472,6.6366,6.77,6.77,6.77,6.77,6.77,6.77,6.77,6.77,6.77,6.77,6.77,6.77,6.77,6.77,6.77,6.77,6.77,6.77,6.77,6.77,6.77,6.7727,6.7873,6.8017,6.8108,6.8271,6.8396,6.8493,6.8493,6.8493,6.8493,6.8493,6.8493,6.8493,6.8493,6.8493,6.8493,6.8493,6.8493,6.8493,6.8493,6.8642,6.8716,6.8716,6.8865,6.8976,6.8976,6.8976,6.9131,6.9557,6.9638,7.0039,7.0784,7.0721,7.0731,7.0891,7.0898,7.0898,7.0898,7.0898,7.0898,7.0898,7.0898,7.0898,0.0,0.0,0.0,0.0,5.1416,5.1416,5.1416,0.0,5.2605,5.2605,0.0,5.3704,5.3704,0.0,0.0,5.2638,5.3156,5.3405,5.2729,5.3863,5.5279,5.6638,5.6884,5.7226,5.7923,5.8719,5.9563,6.0456,6.1263,6.2034,6.2756,6.2793,6.2793,6.2793,6.2793,6.2793,6.2793,6.2793,6.2793,6.2793,6.2793,6.2793,6.2829,6.3613,6.4457,6.5325,6.6035,6.688,6.77,6.77,6.77,6.77,6.77,6.77,6.77,6.77,6.77,6.77,6.77,6.77,6.77,6.77,6.77,6.77,6.77,6.77,6.77,6.77,6.77,6.7727,6.7873,6.8017,6.8108,6.8271,6.8396,6.8493,6.8493,6.8493,6.8493,6.8493,6.8493,6.8493,6.8493,6.8493,6.8493,6.8493,6.8493,6.8493,6.8493,6.9125,6.9571,6.9571,7.0202,7.0648,7.0648,7.0648,7.0808,7.1306,7.1666,7.2082,7.2597,7.221,7.164,7.0898,7.0898,7.0898,7.0898,7.0898,7.0898,7.0898,7.0898,7.0898,0.0,0.0,0.0,0.0,5.2791,5.2791,5.2791,5.3051,5.3311,5.3311,0.0,0.0,0.0,0.0,0.0,0.0,5.3483,5.3556,5.3222,5.3612,5.4475,5.604,5.6562,5.7104,5.7923,5.8719,5.9526,6.0346,6.1153,6.1961,6.2756,6.2793,6.2793,6.2793,6.2793,6.2793,6.2793,6.2793,6.2793,6.2793,6.2793,6.2793,6.2829,6.3686,6.453,6.5325,6.6145,6.6966,6.77,6.77,6.77,6.77,6.77,6.77,6.77,6.77,6.77,6.77,6.77,6.77,6.77,6.77,6.77,6.77,6.77,6.77,6.77,6.77,6.77,6.7754,6.7978,6.8081,6.8133,6.8358,6.8457,6.8493,6.8493,6.8493,6.8493,6.8493,6.8493,6.8493,6.8493,6.8493,6.8493,6.8493,6.8493,6.8679,6.9125,6.9496,6.9868,7.0351,7.0722,7.0908,7.0908,7.1167,7.149,7.192,7.259,7.3051,7.3239,7.3058,7.2783,7.243,7.1898,7.1629,7.1629,7.1168,7.0898,7.0898,7.0898,7.0898,5.4193,5.4119,5.4082,5.3859,5.3784,5.3784,5.3784,5.3784,5.3784,5.3784,5.3784,0.0,0.0,0.0,5.371,0.0,0.0,5.3632,5.3419,5.3479,5.4035,5.5349,5.6309,5.7149,5.7923,5.8547,5.9306,6.0309,6.0933,6.1704,6.2756,6.2793,6.2793,6.2793,6.2793,6.2793,6.2793,6.2793,6.2793,6.2793,6.2793,6.2793,6.2829,6.3943,6.4751,6.5362,6.6366,6.715,6.77,6.77,6.77,6.77,6.77,6.77,6.77,6.77,6.77,6.77,6.77,6.77,6.77,6.77,6.77,6.77,6.77,6.77,6.77,6.77,6.77,6.7754,6.8004,6.8057,6.8183,6.8396,6.8469,6.8493,6.8493,6.8493,6.8493,6.8493,6.8493,6.8493,6.8493,6.8493,6.8493,6.8493,6.8679,6.9051,6.9608,7.0091,7.0611,7.1168,7.1465,7.164,7.1752,7.2049,7.2483,7.3032,7.3742,7.4084,7.3853,7.3815,7.3738,7.3507,7.2899,7.2552,7.2552,7.1937,7.1475,7.1245,7.1014,7.0898,5.5196,5.4973,5.475,5.397,5.3784,5.3784,5.3784,5.3784,5.3784,5.3784,5.3784,5.3784,5.3784,0.0,0.0,0.0,0.0,0.0,0.0,5.3243,5.395,5.4652,5.606,5.7276,5.7935,5.8033,5.8694,6.026,6.0407,6.1141,6.2719,6.2793,6.2793,6.2793,6.2793,6.2793,6.2793,6.2793,6.2793,6.2793,6.2793,6.2793,6.2866,6.4517,6.5288,6.5398,6.6953,6.7664,6.77,6.77,6.77,6.77,6.77,6.77,6.77,6.77,6.77,6.77,6.77,6.77,6.77,6.77,6.77,6.77,6.77,6.77,6.77,6.77,6.77,6.7741,6.7886,6.798,6.8121,6.8271,6.8396,6.8493,6.8493,6.8493,6.8493,6.8493,6.8493,6.8493,6.8493,6.8493,6.8493,6.8493,6.9162,6.9682,6.9719,7.1106,7.2122,7.2159,7.2865,7.3491,7.3876,7.3897,7.4309,7.5133,7.5641,7.5553,7.47,7.4661,7.4315,7.3507,7.3469,7.3469,7.3469,7.343,7.2976,7.2136,7.1283,7.0898,5.5929,5.5874,5.5652,5.4825,5.4602,5.4453,5.3933,5.3784,5.3784,5.3784,5.3784,5.3784,5.3784,0.0,0.0,0.0,0.0,0.0,0.0,5.3607,5.4217,5.5478,5.6445,5.7239,5.7935,5.7997,5.8657,6.0272,6.0419,6.1104,6.2719,6.2793,6.2793,6.2793,6.2793,6.2793,6.2793,6.2793,6.2793,6.2793,6.2793,6.2793,6.2866,6.4554,6.5288,6.5398,6.699,6.77,6.77,6.77,6.77,6.77,6.77,6.77,6.77,6.77,6.77,6.77,6.77,6.77,6.77,6.77,6.77,6.77,6.77,6.77,6.77,6.77,6.77,6.7754,6.7954,6.8094,6.817,6.8383,6.8457,6.8493,6.8493,6.8493,6.8493,6.8493,6.8493,6.8493,6.8493,6.8493,6.8679,6.9199,6.9534,7.0091,7.1218,7.1862,7.2382,7.2939,7.3237,7.3566,7.3975,7.4544,7.5111,7.571,7.5917,7.5861,7.5553,7.5553,7.5438,7.5168,7.4584,7.4276,7.4276,7.3776,7.3353,7.3053,7.2168,7.1437,5.6783,5.6699,5.6456,5.5669,5.5426,5.5268,5.4787,5.4453,5.423,5.423,5.4007,5.3784,5.3784,0.0,0.0,0.0,0.0,0.0,0.0,5.3784,5.4377,5.5899,5.6388,5.6974,5.7966,5.8031,5.8657,6.0272,6.0419,6.1104,6.2719,6.2793,6.2793,6.2793,6.2793,6.2793,6.2793,6.2793,6.2793,6.2793,6.2793,6.2793,6.2866,6.4554,6.5288,6.5398,6.699,6.77,6.77,6.77,6.77,6.77,6.77,6.77,6.77,6.77,6.77,6.77,6.77,6.77,6.77,6.77,6.77,6.77,6.77,6.77,6.77,6.77,6.77,6.7754,6.7991,6.8044,6.817,6.8383,6.8457,6.8493,6.8493,6.8493,6.8493,6.8493,6.8493,6.8493,6.8493,6.8493,6.8753,6.9571,6.9942,7.0611,7.2011,7.2456,7.2828,7.3348,7.3385,7.3653,7.4214,7.4904,7.5501,7.5954,7.6015,7.6015,7.6015,7.6015,7.6015,7.6015,7.5438,7.5168,7.5168,7.463,7.4238,7.3892,7.336,7.2629]}]]